[[{"header":{"parameterUnit":"m.s-1","parameterCategory":1,"la1":30.6,"la2":29.2853,"lo1":-89.7004,"lo2":-87.6739,"dy":0.0162,"dx":0.0183,"nx":112,"ny":82,"refTime":"2024-04-27T12:00:00:Z","depth":0,"parameterNumber":2,"parameterNumberName":"U-component_of_WINDS"},"data":[0.0,0.0,0.0,0.0,0.0,0.0,0.0,0.0,0.0,0.0,0.0,0.0,0.0,0.0,0.0,0.0,0.0,0.0,0.0,0.0,0.0,0.0,0.0,0.0,0.0,0.0,0.0,0.0,0.0,0.0,0.0,0.0,0.0,0.0,0.0,0.0,0.0,0.0,0.0,0.0,0.0,0.0,0.0,0.0,0.0,0.0,0.0,0.0,0.0,0.0,0.0,0.0,0.0,0.0,0.0,0.0,0.0,0.0,0.0,0.0,0.0,0.0,0.0,0.0,0.0,0.0,0.0,0.0,0.0,0.0,0.0,0.0,0.0,0.0,0.0,0.0,0.0,0.0,0.0,0.0,0.0,0.0,0.0,0.0,0.0,0.0,0.0,0.0,0.0,0.0,-4.4995,-4.9843,-5.8087,-6.2499,-6.0642,-5.8261,-5.2978,-4.3863,0.0,0.0,0.0,0.0,0.0,0.0,0.0,0.0,0.0,0.0,0.0,0.0,0.0,0.0,0.0,0.0,0.0,0.0,0.0,0.0,0.0,0.0,0.0,0.0,0.0,0.0,0.0,0.0,0.0,0.0,0.0,0.0,0.0,0.0,0.0,0.0,0.0,0.0,0.0,0.0,0.0,0.0,0.0,0.0,0.0,0.0,0.0,0.0,0.0,0.0,0.0,0.0,0.0,0.0,0.0,0.0,0.0,0.0,0.0,0.0,0.0,0.0,0.0,0.0,0.0,0.0,0.0,0.0,0.0,0.0,0.0,0.0,0.0,0.0,0.0,0.0,0.0,0.0,0.0,0.0,0.0,0.0,0.0,0.0,0.0,0.0,0.0,0.0,0.0,0.0,0.0,0.0,0.0,0.0,0.0,0.0,0.0,0.0,0.0,0.0,0.0,0.0,0.0,0.0,-4.7404,-5.6694,-6.1425,-6.3341,-6.1919,-5.7594,-5.1991,-4.5024,0.0,0.0,0.0,0.0,0.0,0.0,0.0,0.0,0.0,0.0,0.0,0.0,0.0,0.0,0.0,0.0,0.0,0.0,0.0,0.0,0.0,0.0,0.0,0.0,0.0,0.0,0.0,0.0,0.0,0.0,0.0,0.0,0.0,0.0,0.0,0.0,0.0,0.0,0.0,0.0,0.0,0.0,0.0,0.0,0.0,0.0,0.0,0.0,0.0,0.0,0.0,0.0,0.0,0.0,0.0,0.0,0.0,0.0,0.0,0.0,0.0,0.0,0.0,0.0,0.0,0.0,0.0,0.0,0.0,0.0,0.0,0.0,0.0,0.0,0.0,0.0,0.0,0.0,0.0,0.0,0.0,0.0,0.0,0.0,0.0,0.0,0.0,0.0,0.0,0.0,0.0,0.0,0.0,0.0,0.0,0.0,0.0,0.0,0.0,0.0,0.0,0.0,0.0,-4.665,-5.1265,-5.9451,-6.2238,-6.2732,-6.0758,-5.652,-5.1091,-4.4298,-4.1134,0.0,0.0,0.0,0.0,0.0,0.0,0.0,0.0,0.0,0.0,0.0,0.0,0.0,0.0,0.0,0.0,0.0,0.0,0.0,0.0,0.0,0.0,0.0,0.0,0.0,0.0,0.0,0.0,0.0,0.0,0.0,0.0,0.0,0.0,0.0,0.0,0.0,0.0,0.0,0.0,0.0,0.0,0.0,0.0,0.0,0.0,0.0,0.0,0.0,0.0,0.0,0.0,0.0,0.0,0.0,0.0,0.0,0.0,0.0,0.0,0.0,0.0,0.0,0.0,0.0,0.0,0.0,0.0,0.0,0.0,0.0,0.0,0.0,0.0,0.0,0.0,0.0,0.0,0.0,0.0,0.0,0.0,0.0,0.0,0.0,0.0,0.0,0.0,0.0,0.0,0.0,0.0,0.0,0.0,0.0,0.0,0.0,0.0,0.0,0.0,0.0,0.0,-5.1614,-5.4981,-6.0787,-6.2267,-6.189,-5.951,-5.5329,-5.0104,-4.3631,-3.9799,0.0,0.0,0.0,0.0,0.0,0.0,0.0,0.0,0.0,0.0,0.0,0.0,0.0,0.0,0.0,0.0,0.0,0.0,0.0,0.0,0.0,0.0,0.0,0.0,0.0,0.0,0.0,0.0,0.0,0.0,0.0,0.0,0.0,0.0,0.0,0.0,0.0,0.0,0.0,0.0,0.0,0.0,0.0,0.0,0.0,0.0,0.0,0.0,0.0,0.0,0.0,0.0,0.0,0.0,0.0,0.0,0.0,0.0,0.0,0.0,0.0,0.0,0.0,0.0,0.0,0.0,0.0,0.0,0.0,0.0,0.0,0.0,0.0,0.0,0.0,0.0,0.0,0.0,0.0,0.0,0.0,0.0,0.0,0.0,0.0,0.0,0.0,0.0,0.0,0.0,0.0,0.0,0.0,0.0,0.0,0.0,0.0,0.0,0.0,0.0,0.0,0.0,-5.2717,-5.7594,-6.16,-6.2122,-6.1396,-5.9451,-5.4139,-4.8885,-4.4211,-3.9218,0.0,0.0,0.0,0.0,0.0,0.0,0.0,0.0,0.0,0.0,0.0,0.0,0.0,0.0,0.0,0.0,0.0,0.0,0.0,0.0,0.0,0.0,0.0,0.0,0.0,0.0,0.0,0.0,0.0,0.0,0.0,0.0,0.0,0.0,0.0,0.0,0.0,0.0,0.0,0.0,0.0,0.0,0.0,0.0,0.0,0.0,0.0,0.0,0.0,0.0,0.0,0.0,0.0,0.0,0.0,0.0,0.0,0.0,0.0,0.0,0.0,0.0,0.0,0.0,0.0,0.0,0.0,0.0,0.0,0.0,0.0,0.0,0.0,0.0,0.0,0.0,0.0,0.0,0.0,0.0,0.0,0.0,0.0,0.0,0.0,0.0,0.0,0.0,0.0,0.0,0.0,0.0,0.0,0.0,0.0,0.0,0.0,0.0,0.0,0.0,0.0,0.0,-5.1788,-5.6229,0.0,-6.0903,-5.9829,-5.71,-5.3065,-4.842,-4.3137,0.0,0.0,0.0,0.0,0.0,0.0,0.0,0.0,0.0,0.0,0.0,0.0,0.0,0.0,0.0,0.0,0.0,0.0,0.0,0.0,0.0,0.0,0.0,0.0,0.0,0.0,0.0,0.0,0.0,0.0,0.0,0.0,0.0,0.0,0.0,0.0,0.0,0.0,0.0,0.0,0.0,0.0,0.0,0.0,0.0,0.0,0.0,0.0,0.0,0.0,0.0,0.0,0.0,0.0,0.0,0.0,0.0,0.0,0.0,0.0,0.0,0.0,0.0,0.0,0.0,0.0,0.0,0.0,0.0,0.0,0.0,0.0,0.0,0.0,0.0,0.0,0.0,0.0,0.0,0.0,0.0,0.0,0.0,0.0,0.0,0.0,0.0,0.0,0.0,0.0,0.0,0.0,0.0,0.0,0.0,0.0,0.0,0.0,0.0,0.0,0.0,0.0,-4.7114,-5.1672,-5.5852,0.0,-5.9916,-5.8697,-5.5678,-5.1556,-4.723,-4.2673,0.0,0.0,0.0,0.0,0.0,0.0,0.0,0.0,0.0,0.0,0.0,0.0,0.0,0.0,0.0,0.0,0.0,0.0,0.0,0.0,0.0,0.0,0.0,0.0,0.0,0.0,0.0,0.0,0.0,0.0,0.0,0.0,0.0,0.0,0.0,0.0,0.0,0.0,0.0,0.0,0.0,0.0,0.0,0.0,0.0,0.0,0.0,0.0,0.0,0.0,0.0,0.0,0.0,0.0,0.0,0.0,0.0,0.0,0.0,0.0,0.0,0.0,0.0,0.0,0.0,0.0,0.0,0.0,0.0,0.0,0.0,0.0,0.0,0.0,0.0,0.0,0.0,0.0,0.0,0.0,0.0,0.0,0.0,0.0,0.0,0.0,0.0,0.0,0.0,0.0,0.0,0.0,0.0,0.0,0.0,0.0,0.0,0.0,0.0,0.0,0.0,0.0,-4.7288,-5.2804,-5.7129,-5.9074,-5.9277,-5.8232,-5.562,-4.9553,-4.5082,0.0,0.0,0.0,0.0,0.0,0.0,0.0,0.0,0.0,0.0,0.0,0.0,0.0,0.0,0.0,0.0,0.0,0.0,0.0,0.0,0.0,0.0,0.0,0.0,0.0,0.0,0.0,0.0,0.0,0.0,0.0,0.0,0.0,0.0,0.0,0.0,0.0,0.0,0.0,0.0,0.0,0.0,0.0,0.0,0.0,0.0,0.0,0.0,0.0,0.0,0.0,0.0,0.0,0.0,0.0,0.0,0.0,0.0,0.0,0.0,0.0,0.0,0.0,0.0,0.0,0.0,0.0,0.0,0.0,0.0,0.0,0.0,0.0,0.0,0.0,0.0,0.0,0.0,0.0,0.0,0.0,0.0,0.0,0.0,0.0,0.0,0.0,0.0,0.0,0.0,0.0,0.0,0.0,0.0,0.0,0.0,0.0,0.0,0.0,0.0,0.0,0.0,0.0,-4.6737,-5.1759,-5.5968,-5.8348,-5.8174,-5.6868,-5.4284,-4.9872,-4.5837,-4.2557,0.0,0.0,0.0,0.0,0.0,0.0,0.0,0.0,0.0,0.0,0.0,0.0,0.0,0.0,0.0,0.0,0.0,0.0,0.0,0.0,0.0,0.0,0.0,0.0,0.0,0.0,0.0,0.0,0.0,0.0,0.0,0.0,0.0,0.0,0.0,0.0,0.0,0.0,0.0,0.0,0.0,0.0,0.0,0.0,0.0,0.0,0.0,0.0,0.0,0.0,0.0,0.0,0.0,0.0,0.0,0.0,0.0,0.0,0.0,0.0,0.0,0.0,0.0,0.0,0.0,0.0,0.0,0.0,0.0,0.0,0.0,0.0,0.0,0.0,0.0,0.0,0.0,0.0,0.0,0.0,0.0,0.0,0.0,0.0,0.0,0.0,0.0,0.0,0.0,0.0,0.0,0.0,0.0,0.0,0.0,0.0,0.0,0.0,0.0,0.0,0.0,0.0,-4.6853,-5.1701,-5.5649,-5.7681,-5.7536,-5.6287,-5.3733,-4.9988,-4.6156,-4.2324,0.0,0.0,0.0,0.0,0.0,0.0,0.0,0.0,0.0,0.0,0.0,0.0,0.0,0.0,0.0,0.0,0.0,0.0,0.0,0.0,0.0,0.0,0.0,0.0,0.0,0.0,0.0,0.0,0.0,0.0,0.0,0.0,0.0,0.0,0.0,0.0,0.0,0.0,0.0,0.0,0.0,0.0,0.0,0.0,0.0,0.0,0.0,0.0,0.0,0.0,0.0,0.0,0.0,0.0,0.0,0.0,0.0,0.0,0.0,0.0,0.0,0.0,0.0,0.0,0.0,0.0,0.0,0.0,0.0,0.0,0.0,0.0,0.0,0.0,0.0,0.0,0.0,0.0,0.0,0.0,0.0,0.0,0.0,0.0,0.0,0.0,0.0,0.0,0.0,0.0,0.0,0.0,0.0,0.0,0.0,0.0,0.0,0.0,0.0,0.0,0.0,0.0,-4.7288,-5.2107,-5.5736,-5.7071,-5.7158,-5.6113,-5.3646,-4.9959,-4.6156,-4.2324,0.0,0.0,0.0,0.0,0.0,0.0,0.0,0.0,0.0,0.0,0.0,0.0,0.0,0.0,0.0,0.0,0.0,0.0,0.0,0.0,0.0,0.0,0.0,0.0,0.0,0.0,0.0,0.0,0.0,0.0,0.0,0.0,0.0,0.0,0.0,0.0,0.0,0.0,0.0,0.0,0.0,0.0,0.0,0.0,0.0,0.0,0.0,0.0,0.0,0.0,0.0,0.0,0.0,0.0,0.0,0.0,0.0,0.0,0.0,0.0,-5.1439,0.0,0.0,0.0,0.0,0.0,0.0,0.0,0.0,0.0,0.0,0.0,0.0,0.0,0.0,0.0,0.0,0.0,0.0,0.0,0.0,0.0,0.0,0.0,0.0,0.0,0.0,0.0,0.0,0.0,0.0,0.0,0.0,0.0,0.0,0.0,0.0,0.0,0.0,0.0,0.0,0.0,-4.6766,-5.1062,-5.4604,-5.6403,-5.6142,-5.4981,-5.2949,-4.9698,-4.6156,-4.2324,-3.9654,0.0,0.0,0.0,0.0,0.0,0.0,0.0,0.0,0.0,0.0,0.0,0.0,0.0,0.0,0.0,0.0,0.0,0.0,0.0,0.0,0.0,0.0,0.0,0.0,0.0,0.0,0.0,0.0,0.0,0.0,0.0,0.0,0.0,0.0,0.0,0.0,0.0,0.0,0.0,0.0,0.0,0.0,0.0,0.0,0.0,0.0,0.0,0.0,0.0,0.0,0.0,0.0,0.0,0.0,0.0,0.0,0.0,0.0,0.0,0.0,-5.4517,0.0,0.0,0.0,0.0,0.0,0.0,0.0,0.0,0.0,0.0,0.0,0.0,0.0,0.0,0.0,0.0,0.0,0.0,0.0,0.0,0.0,0.0,0.0,0.0,0.0,0.0,0.0,0.0,0.0,0.0,0.0,0.0,0.0,0.0,0.0,0.0,0.0,0.0,0.0,0.0,-4.7027,-5.1207,-5.4487,-5.5794,-5.562,-5.4633,-5.2798,-4.9901,-4.6737,-4.3224,-4.0554,0.0,0.0,0.0,0.0,0.0,0.0,0.0,0.0,0.0,0.0,0.0,0.0,0.0,0.0,0.0,0.0,0.0,0.0,0.0,0.0,0.0,0.0,0.0,0.0,0.0,0.0,0.0,0.0,0.0,0.0,0.0,0.0,0.0,0.0,0.0,0.0,0.0,0.0,0.0,0.0,0.0,0.0,0.0,0.0,0.0,0.0,0.0,0.0,0.0,0.0,0.0,0.0,0.0,-6.6767,-6.7812,-6.8102,-6.8247,-6.8363,-6.8247,-6.5083,-6.2035,-5.919,-5.7826,0.0,0.0,0.0,0.0,0.0,0.0,0.0,0.0,0.0,0.0,0.0,0.0,0.0,0.0,0.0,0.0,0.0,0.0,0.0,0.0,0.0,0.0,0.0,0.0,-5.4052,-5.3181,0.0,0.0,0.0,0.0,0.0,0.0,0.0,0.0,0.0,0.0,0.0,0.0,-4.7375,-5.1468,-5.4458,-5.5184,-5.5155,-5.4342,-5.2572,-5.0249,-4.755,-4.4356,-4.1918,-3.945,0.0,0.0,0.0,0.0,0.0,0.0,0.0,0.0,0.0,0.0,0.0,0.0,0.0,0.0,0.0,0.0,0.0,0.0,0.0,0.0,0.0,0.0,0.0,0.0,0.0,0.0,0.0,0.0,0.0,0.0,0.0,0.0,-5.2688,-5.4981,0.0,0.0,0.0,0.0,0.0,0.0,0.0,0.0,0.0,0.0,0.0,0.0,0.0,-6.4415,-6.5867,-7.0453,-7.2573,-7.2282,-7.6346,-7.774,-7.6782,-7.7304,-7.7856,-7.8378,-7.7856,0.0,-6.3076,-6.1309,0.0,0.0,0.0,0.0,0.0,0.0,0.0,0.0,0.0,0.0,0.0,0.0,0.0,0.0,0.0,0.0,0.0,0.0,0.0,0.0,0.0,0.0,-5.5591,-5.5852,-5.6026,-5.5591,0.0,-5.0627,-4.7608,-4.5024,-4.3747,0.0,0.0,0.0,0.0,0.0,0.0,0.0,-4.6766,-5.0394,-5.3297,-5.4517,-5.411,-5.321,-5.1875,-5.0423,-4.8217,-4.4966,-4.3398,-4.1453,-3.8928,-3.768,0.0,0.0,0.0,0.0,0.0,0.0,0.0,0.0,0.0,0.0,0.0,0.0,0.0,0.0,0.0,0.0,0.0,0.0,0.0,0.0,0.0,0.0,0.0,0.0,0.0,0.0,0.0,0.0,0.0,-5.3849,-5.6113,-5.5416,-5.649,-5.6142,0.0,0.0,0.0,0.0,0.0,0.0,0.0,0.0,0.0,-6.7492,-6.9379,-7.1469,-7.385,-7.7159,-7.9046,-7.954,-8.2239,-8.3429,-8.3226,-8.3487,-8.3778,-8.4039,-8.3691,-8.0381,-7.4866,-6.935,-6.4706,-6.0758,0.0,0.0,0.0,0.0,-5.6984,-5.8058,-6.0584,-6.1222,0.0,-6.099,0.0,0.0,0.0,0.0,0.0,0.0,0.0,0.0,0.0,0.0,-5.8726,-5.9422,-6.0148,-6.0351,-5.9045,-5.6316,-5.2717,0.0,-4.6911,-4.6011,-4.3631,0.0,0.0,0.0,0.0,-4.6446,-4.7677,-5.0946,-5.3326,-5.3907,-5.3355,-5.263,-5.1701,-5.0104,-4.8246,-4.6098,-4.4095,-4.2179,-4.035,-3.9044,-3.8028,0.0,0.0,0.0,0.0,0.0,0.0,0.0,0.0,0.0,0.0,0.0,0.0,0.0,0.0,0.0,0.0,0.0,0.0,0.0,0.0,0.0,0.0,0.0,0.0,0.0,0.0,0.0,0.0,-5.7419,-5.9335,-5.6752,-5.9974,-6.0322,0.0,0.0,0.0,0.0,0.0,0.0,-6.4677,-6.7551,-7.0947,-7.4953,-7.6637,-7.8756,-8.1484,-8.3429,-8.4881,-8.581,-8.6971,-8.7755,-8.8219,-8.8219,-8.8219,-8.8161,-8.7523,-8.6419,-8.4445,-7.6433,-7.0599,-6.636,-6.2674,-6.0642,-5.9887,-6.1019,-6.1745,-6.2674,-6.6157,-6.697,-6.6331,-6.5722,-6.3661,-6.0642,-5.649,0.0,0.0,0.0,0.0,-5.5533,-5.7913,-5.9742,-6.1309,-6.2732,-6.369,-6.398,-6.2848,-6.099,-5.771,0.0,-5.0307,-4.9291,-4.6359,0.0,0.0,0.0,0.0,-4.7619,-4.8547,-5.1381,-5.3268,-5.3268,-5.2717,-5.2078,-5.1439,-4.9901,-4.842,-4.7143,-4.514,-4.334,-4.1889,-4.0437,-3.916,-3.8057,0.0,0.0,0.0,0.0,0.0,0.0,0.0,0.0,0.0,0.0,0.0,0.0,0.0,0.0,0.0,0.0,0.0,0.0,0.0,0.0,0.0,0.0,0.0,0.0,0.0,0.0,0.0,0.0,0.0,-6.1803,-6.5664,0.0,0.0,0.0,0.0,-6.2616,-6.6186,-6.9437,-7.1963,-7.5708,-7.8988,-8.163,-8.4155,-8.61,-8.7493,-8.9409,-9.0425,-9.0483,-9.1151,-9.1499,-9.1529,-9.1529,-9.1529,-9.1499,-9.0861,-8.9496,-8.7174,-8.0062,-7.5882,-7.3501,-6.845,-6.6447,-6.6273,-6.5141,-6.5925,-6.7609,-6.845,-6.8305,-6.8276,-7.1179,-6.8799,-6.4125,-6.0845,-5.8523,0.0,0.0,-5.8,-5.9451,-6.1367,-6.2383,-6.3428,-6.5286,-6.5315,-6.4764,-6.4096,-6.337,-6.1309,0.0,-5.3152,-5.0888,-4.8885,0.0,-4.6911,-4.5111,-4.6998,-4.8605,-4.8663,-5.1004,-5.2681,-5.2681,-5.2049,-5.141,-5.0772,-5.0046,-4.9136,-4.7811,-4.7056,-4.5808,-4.3921,-4.2005,-4.067,-3.9973,-3.8202,0.0,0.0,0.0,0.0,0.0,0.0,0.0,0.0,0.0,0.0,0.0,0.0,0.0,0.0,0.0,0.0,0.0,0.0,0.0,0.0,0.0,0.0,0.0,0.0,0.0,0.0,0.0,0.0,-6.8857,-7.2834,0.0,-6.8102,-6.9118,-7.0047,-6.9873,-7.3792,-7.6956,-7.8698,-8.2065,-8.491,-8.7029,-8.88,-9.0135,-9.1006,-9.2109,-9.2225,-9.1441,-9.208,-9.2167,-9.1761,-9.1761,-9.1761,-9.1761,-9.1529,-9.0571,-8.8858,-8.5113,-8.0991,-7.6753,-7.4082,-7.1789,-7.0018,-7.0395,-7.0976,-7.1731,-7.2776,-7.2979,-7.2515,-7.0744,-6.7812,-6.4532,-6.2151,-6.0932,-6.0555,-6.1396,-6.2267,-6.3196,-6.4299,-6.4735,-6.4996,-6.5257,-6.5141,-6.4909,-6.4706,-6.3835,-6.2558,-6.07,-5.7303,-5.4081,-5.2136,-5.0249,-4.8914,-4.8653,-4.9407,-4.9988,-4.9988,-5.1497,-5.2397,-5.1991,-5.1381,-5.0917,-5.0685,-4.9698,-4.8508,-4.7259,-4.5808,-4.4501,-4.3398,-4.1889,-4.0786,-4.0118,-3.9073,-3.8115,0.0,0.0,0.0,0.0,0.0,0.0,0.0,0.0,0.0,0.0,0.0,0.0,0.0,0.0,0.0,0.0,0.0,0.0,0.0,0.0,0.0,0.0,0.0,0.0,0.0,-6.9176,-7.3763,-7.4169,-7.8756,-7.9888,-7.475,-7.6608,-7.7943,-7.7507,-8.0817,-8.3517,-8.5026,-8.7319,-8.938,-9.1064,-9.237,-9.327,-9.3677,-9.4315,-9.4112,-9.3067,-9.3038,-9.2719,-9.208,-9.1877,-9.1761,-9.1761,-9.1761,-9.1151,-9.0048,-8.8568,-8.5316,-8.1049,-7.8669,-7.6462,-7.4605,-7.4808,-7.4895,-7.4982,-7.5621,-7.5824,-7.5243,-7.1615,-6.9002,-6.6912,-6.5199,-6.4386,-6.4212,-6.5083,-6.5635,-6.607,-6.6476,-6.6418,-6.6157,-6.5722,-6.5286,-6.4996,-6.4996,-6.4328,-6.3603,-6.3167,-6.0177,-5.7071,-5.5126,-5.321,-5.1875,-5.1672,-5.1643,-5.1643,-5.1643,-5.2368,-5.2572,-5.1701,-5.1236,-5.0743,-5.0075,-4.9407,-4.8333,-4.6621,-4.5314,-4.4037,-4.2731,-4.1657,-4.0786,-4.0118,-3.9509,-3.858,-3.7302,0.0,0.0,0.0,0.0,0.0,0.0,0.0,0.0,0.0,0.0,0.0,0.0,0.0,0.0,0.0,0.0,0.0,0.0,0.0,0.0,0.0,0.0,0.0,-6.7028,-7.3182,-7.7682,-7.774,-8.3313,-8.52,-8.0207,-8.311,-8.5316,-8.5316,-8.7058,-8.8945,-9.0803,-9.1558,-9.2486,-9.3706,-9.4983,-9.568,-9.568,-9.6231,-9.6202,-9.5564,-9.4315,-9.3357,-9.269,-9.208,-9.179,-9.1761,-9.1761,-9.1412,-9.0774,-9.0077,-8.8684,-8.6536,-8.2152,-8.041,-8.0091,-7.8204,-7.7449,-7.7333,-7.6695,-7.6567,-7.6143,-7.4285,-7.2805,-7.1498,-7.025,-6.8973,-6.7928,-6.7928,-6.7928,-6.7899,-6.787,-6.7376,-6.6883,-6.6825,-6.5896,-6.4996,-6.4996,-6.4967,-6.4561,-6.3341,-6.1542,-5.9626,-5.7681,-5.681,-5.5736,-5.3849,-5.353,0.0,-5.3471,-5.3471,-5.3007,-5.1759,-5.1643,-5.0859,-4.8866,-4.9291,-4.8537,-4.5982,-4.5779,-4.4618,-4.215,-4.1395,-4.0728,-4.0089,-3.9509,-3.8609,-3.736,0.0,0.0,0.0,0.0,0.0,0.0,0.0,0.0,0.0,0.0,0.0,0.0,0.0,0.0,0.0,0.0,0.0,0.0,0.0,0.0,0.0,-6.8218,-7.2224,-7.2427,-7.8524,-8.3662,-8.549,-8.8916,-9.06,-8.9177,-8.999,-9.0629,-9.0629,-9.1964,-9.2806,-9.2893,-9.4373,-9.536,-9.5709,-9.6551,-9.6986,-9.6986,-9.6667,-9.597,-9.4867,-9.4519,-9.3764,-9.2719,-9.2545,-9.2196,-9.1761,-9.1761,-9.1412,-9.0745,-8.9613,-8.8277,-8.6768,-8.462,-8.2617,-8.0817,-7.9859,-7.8611,-7.7391,-7.7217,-7.684,-7.6288,-7.5301,-7.414,-7.2921,-7.2079,-7.0628,-6.9263,-6.9263,-6.8915,-6.8334,-6.7405,-6.7028,-6.6651,-6.5722,-6.5228,-6.4996,-6.4996,-6.427,-6.3516,-6.3167,-6.1919,-6.0467,-5.9016,-5.7042,-5.5503,-5.4981,-5.411,0.0,-5.2891,-5.2833,-5.2514,-5.1701,-5.202,-5.1527,-4.9611,-4.9175,-4.7695,-4.4705,-4.3195,-4.1889,-4.0699,-4.006,-3.9625,-3.945,-3.9276,-3.9044,0.0,0.0,0.0,0.0,0.0,0.0,0.0,0.0,0.0,0.0,0.0,0.0,0.0,0.0,0.0,0.0,0.0,0.0,0.0,0.0,0.0,0.0,-7.4343,-7.9191,-8.1107,-8.4678,-8.8219,-9.1325,-9.3473,-9.4809,-9.507,-9.5099,-9.5215,-9.5505,-9.5709,-9.5767,-9.5651,-9.6696,-9.7189,-9.6928,-9.7828,-9.8031,-9.7508,-9.7102,-9.6289,-9.5012,-9.446,-9.3677,-9.2719,-9.2457,-9.2109,-9.1761,-9.1761,-9.1558,-9.1122,-8.9816,-8.8829,0.0,0.0,0.0,0.0,0.0,-7.8611,-7.7362,-7.7101,-7.6753,-7.6346,-7.5708,-7.4808,-7.3879,-7.3211,-7.1702,-7.0163,-7.0163,-6.9321,-6.8247,-6.7492,-6.6883,-6.6302,-6.5548,-6.517,-6.4996,-6.4996,-6.4183,-6.3399,-6.3138,-6.1832,0.0,-5.948,-5.8058,-5.6781,-5.5939,-5.4952,-5.4081,-5.3471,-5.292,-5.231,-5.1701,-5.1701,-5.112,-4.9388,-4.8711,0.0,0.0,0.0,-4.1482,-4.0554,-4.0176,0.0,0.0,0.0,-3.9857,-3.9567,0.0,0.0,0.0,-3.8957,-3.9189,0.0,0.0,0.0,0.0,0.0,0.0,0.0,0.0,0.0,0.0,0.0,0.0,0.0,0.0,0.0,0.0,-8.0643,-8.6303,-9.0832,-9.1064,-9.2051,-9.5418,-9.6957,-9.7944,-9.8583,-9.8554,-9.8786,-9.9453,-9.8466,-9.8031,-9.8495,0.0,0.0,0.0,0.0,-9.8902,-9.7828,-9.7625,-9.6899,-9.5709,-9.446,-9.3502,-9.2806,-9.2254,-9.1906,-9.1761,-9.1761,-9.1761,-9.1674,-9.0367,-8.9642,-8.9032,-8.549,-8.3313,-8.1891,-7.9511,-7.8146,-7.7449,-7.6869,0.0,0.0,-7.5708,-7.5069,-7.4372,-7.3705,-7.2195,-7.0686,-7.0541,-6.9234,-6.7841,-6.7696,-6.6796,-6.5896,-6.5838,-6.5402,-6.4996,-6.4996,-6.4444,-6.3777,-6.3196,-6.1513,-6.0003,-5.9393,-5.9132,-5.8377,-5.6578,-5.5736,-5.5068,-5.4371,-5.3297,-5.231,-5.1701,0.0,0.0,-4.8943,-4.8246,-4.6998,-4.4908,-4.3456,-4.215,-4.1018,-4.0989,-4.0989,-4.0989,-4.1047,-4.0815,-4.0205,-4.035,-4.0728,-4.1308,-4.0554,-4.0263,0.0,0.0,0.0,0.0,0.0,0.0,0.0,0.0,0.0,0.0,0.0,0.0,0.0,0.0,0.0,-7.983,-8.52,-9.028,-9.478,-9.6173,-9.6841,-9.7102,-9.8263,-9.9279,-9.9947,-9.9512,-9.9482,-10.0179,-9.9976,-9.9657,-9.9221,-9.9715,-10.0179,-10.0586,-9.9802,-9.9541,-9.9831,-9.8292,-9.7102,-9.6318,0.0,0.0,-9.3473,-9.3357,-9.2748,-9.1761,-9.1761,-9.1761,-9.1674,-9.0367,-8.8626,-8.6594,-8.4794,-8.3313,-8.2007,-8.0497,-7.9191,-7.8204,-7.8059,-7.7333,-7.6346,-7.5708,-7.5069,-7.4285,-7.3153,-7.1818,0.0,-6.9495,-6.8567,-6.7638,-6.6593,-6.6128,-6.5809,-6.5286,-6.5083,-6.4996,-6.4996,-6.4096,-6.3225,-6.3109,-6.1513,-6.0003,-5.9393,-5.8,-5.6665,-5.5736,-5.5068,-5.4255,-5.3094,-5.2768,-5.231,-5.1701,-5.1962,-5.1468,-4.9669,-4.8914,-4.7288,-4.4356,-4.1947,-4.0554,-4.0292,-4.0292,-4.0292,-4.0292,-4.0815,-4.1047,-4.0902,-4.1947,-4.2498,-4.2586,-4.1453,-4.1192,0.0,0.0,0.0,0.0,0.0,0.0,0.0,0.0,0.0,0.0,0.0,-6.787,-6.9466,0.0,-8.1281,-8.5781,-8.999,-9.3938,-9.745,-9.8786,-9.9163,-9.8525,-9.986,-10.0992,-10.1311,-10.1311,-10.1573,-10.2269,-10.1979,-10.1515,-10.0876,-10.1195,-10.1021,-10.0382,-10.0092,-9.9744,-9.9395,-9.8147,-9.7015,-9.6057,-9.5099,-9.4141,-9.3183,-9.2864,-9.237,-9.1761,-9.1441,-9.1296,-9.118,-8.9555,-8.7552,-8.5432,-8.4155,-8.2849,-8.1514,-7.9917,-7.8727,-7.7856,-7.7537,-7.7014,-7.6363,-7.5359,-7.4808,-7.4227,-7.2631,-7.1469,-7.0453,-6.9176,-6.8131,-6.7173,-6.6186,-6.5693,-6.5373,-6.5054,-6.4996,-6.4909,-6.459,-6.3777,-6.2993,-6.2645,-6.1048,-5.9655,-5.9364,-5.7942,-5.6636,-5.5997,-5.5358,-5.4633,-5.3675,-5.2688,-5.1962,-5.1643,-5.1323,-5.0743,-4.9785,-4.8508,-4.6824,-4.4589,-4.2615,-4.1541,-4.1541,-4.125,-4.1105,-4.1105,-4.1715,-4.2034,-4.2034,-4.3021,-4.3485,-4.3485,-4.2847,-4.2731,0.0,0.0,0.0,0.0,0.0,0.0,0.0,-6.3748,-6.5344,-6.6709,-7.057,-7.443,-7.6753,-8.2123,-8.7377,-9.0977,-9.4141,-9.6928,-9.9105,-10.0208,-10.0498,-9.9686,-10.1282,-10.2472,-10.2472,-10.2908,-10.3488,-10.4098,-10.3488,-10.2879,-10.2502,-10.2095,-10.1282,-9.9802,-10.0092,-9.9686,-9.8612,-9.7886,-9.687,-9.5593,-9.4431,-9.3444,-9.269,-9.2196,-9.1877,-9.1732,-9.1093,-9.0745,-9.0483,-8.8539,-8.6768,-8.5113,-8.3604,-8.2181,-8.0817,-7.9191,-7.8088,-7.7333,-7.6811,-7.6579,-7.6334,-7.5127,-7.4634,-7.414,-7.2253,-7.1237,-7.0395,-6.8886,-6.7696,-6.6709,-6.5954,-6.5373,-6.4996,-6.4996,-6.4996,-6.4822,-6.412,-6.3545,-6.2906,-6.2238,-6.0671,-5.9451,-5.9335,-5.829,-5.7245,-5.652,-5.5852,-5.5126,-5.44,-5.2746,-5.1585,-5.1439,-5.0365,-4.964,-4.9494,-4.784,-4.633,-4.514,-4.3892,-4.3137,-4.2992,-4.2528,-4.2266,-4.2266,-4.2731,-4.305,-4.3195,-4.3834,-4.4153,-4.4182,-4.4298,-4.424,-6.1977,-6.0438,-6.0032,-6.2645,-6.308,-6.4764,0.0,-7.2573,-7.2689,-7.6753,-7.9423,-8.1455,-8.2878,-8.7,-9.1064,-9.3764,-9.6376,-9.8408,-9.9279,-10.0963,-10.1602,-10.0411,-10.1979,-10.3082,-10.3082,-10.3169,-10.3488,-10.4098,-10.3082,-10.2589,-10.3082,-10.1515,-10.0789,-10.1079,-10.0092,-9.9453,-9.9279,-9.8118,-9.687,-9.5593,-9.4867,-9.388,-9.2719,-9.2632,-9.2312,-9.1732,-9.1093,-9.0483,-8.9787,-8.7871,-8.6623,-8.5694,-8.3255,-8.1514,-8.0294,-7.9511,-7.8436,-7.7391,-7.7333,-7.6927,-7.6346,-7.565,-7.5011,-7.414,-7.2253,-7.1237,-7.0221,-6.7783,-6.6999,-6.6593,-6.5402,-6.5025,-6.4996,-6.4996,-6.4996,-6.4822,-6.412,-6.3545,-6.2906,-6.2238,-6.1019,-5.9916,-5.9393,-5.8668,-5.7797,-5.6578,-5.5852,-5.4981,-5.3791,-5.2455,-5.141,-5.083,-5.0104,-4.9436,-4.8885,-4.7561,-4.6534,-4.5808,-4.4589,-4.3602,-4.3021,-4.2934,-4.2905,-4.2905,-4.2963,-4.3282,-4.3892,-4.4501,-4.4792,-4.4792,-4.5401,-4.5082,-6.4793,-6.4299,-6.4706,-6.6389,-6.9147,-7.2427,-7.6317,-7.8001,-7.9394,-8.163,-8.4823,-8.761,-8.8887,-9.2457,-9.5825,-9.7683,-9.9482,-10.0498,-10.0005,-10.0324,-9.9976,-9.8321,-9.9482,-10.0992,-10.2502,-10.2995,-10.3488,-10.4098,-10.3314,-10.2792,-10.2676,-10.1195,-10.0324,-10.0208,-9.9686,-9.9395,-9.9395,-9.8147,-9.7044,-9.6115,-9.4722,-9.359,-9.2719,-9.2341,-9.1616,-9.0629,-9.0367,-8.9467,-8.8045,-8.6506,-8.5287,-8.4184,-8.2326,-8.0846,-7.9627,-7.9017,-7.7972,-7.6869,-7.6869,-7.6433,-7.5795,-7.5127,-7.4488,-7.3618,-7.1702,-7.0918,-7.0192,-6.7609,-6.6883,-6.6593,-6.5315,-6.4996,-6.4996,-6.4996,-6.4996,-6.4822,-6.412,-6.3545,-6.2906,-6.2238,-6.0787,-5.948,-5.8842,-5.8174,-5.7419,-5.6549,-5.5852,-5.5213,-5.4691,-5.2862,-5.1236,-5.0191,-4.9892,-4.9582,-4.9291,-4.8449,-4.7811,-4.755,-4.5982,-4.4966,-4.4676,-4.3602,-4.3166,-4.3573,-4.3573,-4.3892,-4.4531,-4.514,-4.5459,-4.5488,-4.575,-4.5605,-6.6302,-6.7144,-6.8799,-7.0512,-7.4866,-7.9075,-8.0468,-8.2849,-8.5084,-8.6245,-8.9206,-9.2051,-9.3502,-9.6463,-9.9105,-10.0411,-10.1573,-10.1863,-10.0586,-9.9831,-9.8408,-9.5767,-9.6115,-9.7392,-9.9453,-10.1311,-10.2676,-10.3372,-10.2792,-10.2298,-10.2008,-10.0818,-9.9889,-9.9424,-9.9395,-9.9308,-9.9134,-9.806,-9.6986,-9.597,-9.4402,-9.3241,-9.2457,-9.1993,-9.1151,-9.0077,-8.9729,-8.8684,-8.7145,-8.5694,-8.4445,-8.3313,-8.1978,-8.0585,-7.922,-7.8611,-7.7682,-7.6695,-7.6521,-7.6056,-7.5417,-7.4953,-7.4256,-7.3269,-7.1528,-7.086,-7.0221,-6.7841,-6.7028,-6.6622,-6.5548,-6.5112,-6.4996,-6.4996,-6.4996,-6.4822,-6.412,-6.3545,-6.2906,-6.2238,-6.0729,-5.9277,-5.8435,-5.7913,-5.7303,-5.652,-5.5997,-5.562,-5.5416,-5.3181,-5.1178,-5.0075,-4.9785,-4.9717,-4.9717,-4.9088,-4.8663,-4.8663,-4.7259,-4.633,-4.6156,-4.4792,-4.4269,-4.4763,-4.4589,-4.4821,-4.543,-4.5721,-4.5895,-4.5895,-4.5895,-4.5895,-6.5954,-6.7783,-7.0773,-7.5127,-7.9162,-8.2878,-8.6013,-8.7755,-8.9409,-9.1935,-9.3067,-9.4141,-9.6028,-9.8031,-9.9802,-10.1079,-10.1863,-10.1863,-10.0586,-9.9831,-9.777,-9.3357,-9.2312,-9.2254,-9.2951,-9.7538,-10.0702,-10.1311,-10.0818,-10.0702,-10.1282,-10.0121,-9.9424,-9.9395,-9.9395,-9.9076,-9.8437,-9.7828,-9.6551,-9.4664,-9.3996,-9.3009,-9.179,-9.179,-9.1412,-9.0716,-8.9467,-8.8509,-8.7755,-8.5868,-8.4678,-8.3923,-8.2675,-8.0991,-7.922,-7.8611,-7.7972,-7.7275,-7.6666,-7.6056,-7.5504,-7.5475,-7.4634,-7.3356,-7.205,-7.1208,-7.0308,-6.8392,-6.7376,-6.6738,-6.607,-6.546,-6.4996,-6.4996,-6.4996,-6.4822,-6.412,-6.3545,-6.2906,-6.2238,-6.1048,-5.9771,-5.8523,-5.829,-5.7855,-5.6607,-5.6374,-5.6142,-5.5503,-5.3181,-5.1381,-5.0714,-5.0124,-4.9717,-4.9717,-4.9088,-4.8663,-4.8663,-4.8101,-4.7433,-4.6778,-4.6691,-4.6662,-4.6691,-4.6156,-4.6127,-4.672,-4.6185,-4.5895,-4.5895,-4.5895,-4.5895,-6.8654,-7.1905,-7.6027,-8.0962,-8.4736,-8.7987,-9.0774,-9.1761,-9.2312,-9.3183,-9.2516,-9.2109,-9.3154,-9.4577,-9.6289,-9.8437,-10.0382,-10.1311,-10.0498,-9.9831,-9.7247,-9.147,-9.1383,-9.1006,-8.909,-9.2777,-9.6609,-9.9802,-9.9424,-9.9541,-10.0615,-9.986,-9.9395,-9.9395,-9.9395,-9.8902,-9.7828,-9.7596,-9.6318,-9.3967,-9.2922,-9.2196,-9.1761,-9.1325,-9.0774,-9.0077,-8.88,-8.7406,-8.5926,-8.4445,-8.3168,-8.2036,-8.0759,-7.9888,-7.9162,-7.8117,-7.7595,-7.7304,-7.6666,-7.5766,-7.4837,-7.4837,-7.3995,-7.2718,-7.144,-7.0889,-7.0337,-6.8421,-6.7725,-6.7289,-6.6215,-6.578,-6.5519,-6.5083,-6.4996,-6.4938,-6.4706,-6.4154,-6.3516,-6.2877,-6.1716,-6.0322,-5.861,-5.829,-5.8,-5.7129,-5.6287,-5.5358,-5.4284,-5.3036,-5.202,-5.1381,-5.0714,-5.0336,-5.0336,-4.9727,-4.9349,-4.9349,-4.8769,-4.8304,-4.8054,-4.7242,-4.6778,-4.6778,-4.6214,-4.5982,-4.6214,-4.5982,-4.6098,-4.6505,-4.6505,-4.6737,-7.2456,-7.655,-8.0933,-8.5607,-8.9003,-9.1703,-9.359,-9.3822,-9.3532,-9.3096,-9.1093,-8.9496,-8.97,-8.9845,-9.1064,-9.4548,-9.6492,-9.806,-9.9482,-9.835,-9.5651,-9.1064,-9.0251,-8.9351,-8.7493,-8.9148,-9.237,-9.7305,-9.7944,-9.8554,-9.9628,-9.9512,-9.9395,-9.9395,-9.896,-9.8321,-9.7508,-9.6812,-9.5418,-9.3299,-9.2254,-9.1645,-9.1412,-9.1006,-9.0222,-8.909,-8.8045,-8.6506,-8.4649,-8.3633,-8.2413,-8.1107,-8.0062,-7.9365,-7.8843,-7.7798,-7.7246,-7.7014,-7.6608,-7.5766,-7.4837,-7.4576,-7.3821,-7.2689,-7.1179,-7.0715,-7.0366,-6.8683,-6.8073,-6.7638,-6.6535,-6.6099,-6.578,-6.5141,-6.4996,-6.4996,-6.4996,-6.4473,-6.3835,-6.3225,-6.2064,-6.0642,-5.8958,-5.8261,-5.7797,-5.7361,-5.6229,-5.5126,-5.4284,-5.3442,-5.2659,-5.202,-5.1178,-5.0734,-5.0734,-5.0124,-4.9717,-4.9717,-4.9291,-4.9059,-4.9059,-4.8275,-4.784,-4.784,-4.723,-4.6911,-4.6911,-4.6679,-4.6766,-4.7172,-4.7172,-4.7375,-7.7188,-8.1543,-8.5345,-8.9119,-9.1877,-9.3822,-9.4431,-9.3967,-9.3038,-9.1703,-8.88,-8.6245,-8.549,-8.4068,-8.4649,-8.9671,-9.0803,-9.2806,-9.7828,-9.5941,-9.3532,-9.208,-8.9235,-8.7552,-8.8045,-8.6971,-8.8597,-9.4228,0.0,-9.7654,-9.8408,-9.9047,-9.9395,-9.9395,-9.8205,-9.7508,-9.7392,-9.5447,-9.388,-9.2719,-9.208,-9.1441,-9.0832,-9.0774,-8.9729,-8.7871,-8.7174,-8.581,-8.3981,-8.3342,-8.2297,-8.1049,-8.0439,-7.9452,-7.8262,-7.7595,-7.6985,-7.6538,-7.6538,-7.6027,-7.5359,-7.4721,-7.4082,-7.3211,-7.1295,-7.0715,-7.0453,-6.9176,-6.8392,-6.7754,-6.7057,-6.6418,-6.5809,-6.5141,-6.4996,-6.4996,-6.4996,-6.4502,-6.3893,-6.3254,-6.2064,-6.0729,-5.948,-5.8174,-5.7303,-5.7274,-5.6258,-5.5474,-5.5416,-5.4284,-5.3268,-5.2681,-5.1519,-5.0714,-5.0734,-5.0124,-4.9717,-4.9717,-4.9717,-4.9717,-4.9717,-4.9717,-4.9669,-4.964,-4.903,-4.8663,-4.8682,-4.8072,-4.7811,-4.784,-4.784,-4.784,-8.1949,-8.6187,-8.9787,-9.2661,-9.3532,-9.3706,-9.388,-9.1935,-8.9467,-8.7261,-8.3081,-7.9075,-7.6521,-7.8378,-8.1484,-8.52,-9.0629,-9.5825,-9.9976,-9.986,-9.8002,-9.4315,-9.3154,-9.1993,-9.0251,-8.9787,-9.1209,-9.507,-9.4925,-9.597,-9.8989,-9.9308,-9.9395,-9.9395,-9.8612,-9.7508,-9.6115,-9.3706,-9.2574,-9.2719,-9.208,-9.1441,-9.0803,-9.0309,-8.9293,-8.7842,-8.6245,-8.4765,-8.3342,-8.2181,-8.0933,-7.9714,-7.9133,-7.8378,-7.7595,-7.6927,-7.6608,-7.6538,-7.6538,-7.5708,-7.475,-7.4576,-7.3763,-7.2602,-7.115,-7.0715,-7.0453,-6.9176,-6.8712,-6.8334,-6.7173,-6.6767,-6.636,-6.5257,-6.4996,-6.4996,-6.4996,-6.4851,-6.4561,-6.3922,-6.1977,-6.0061,-5.8784,-5.7855,-5.7158,-5.6694,-5.6752,-5.649,-5.5533,-5.4284,-5.3268,-5.2681,-5.1846,-5.1178,-5.0714,-5.0124,-4.9717,-4.9717,-4.9717,-4.9717,-4.9717,-4.9717,-4.9465,-4.8972,-4.8798,-4.8508,-4.8014,-4.7869,-4.8014,-4.8478,-4.8478,-4.874,-8.6768,-9.0425,-9.327,-9.4693,-9.4344,-9.3154,-9.118,-8.8916,-8.5781,-8.0672,-7.6433,-7.266,-6.9437,-7.1586,-7.5446,-8.0352,-8.6913,-9.3415,-9.9221,-9.9802,-9.9018,-9.7334,-9.6405,-9.5331,-9.3909,-9.298,-9.3706,-9.6609,-9.5389,-9.5825,-9.8786,-9.896,-9.896,-9.896,-9.7799,-9.626,-9.4373,-9.2893,-9.2225,-9.2283,-9.1935,-9.1267,-9.0367,-8.999,-8.8829,-8.7029,0.0,-8.4184,-8.2675,-8.163,-8.0614,-7.9656,-7.8756,-7.8175,-7.774,-7.6811,-7.6288,-7.6085,-7.6375,-7.5446,-7.4169,-7.443,-7.385,-7.2805,-7.1528,-7.0947,-7.0512,-6.9525,-6.8857,-6.8247,-6.7522,-6.6883,-6.6273,-6.5577,-6.5199,-6.4996,-6.4996,-6.4996,-6.4793,-6.4154,-6.2412,-6.0613,-5.9364,-5.861,-5.7855,-5.6926,-5.6868,-5.6665,-5.5939,-5.4981,-5.3994,-5.3065,-5.2426,-5.1904,-5.1577,-5.0705,-5.0153,-5.0153,-4.9843,-4.9717,-4.9717,-4.9717,-4.9494,-4.9146,-4.9146,-4.8972,-4.8624,-4.8624,-4.8798,-4.9146,-4.9146,-4.932,-9.1412,-9.4141,-9.5941,-9.5767,-9.4548,-9.2254,-8.7755,-8.5229,-8.1514,-7.3385,-6.9641,-6.6854,-6.3656,-6.5112,-6.9089,-7.623,-8.2326,-8.9061,-9.7363,-9.8176,-9.8525,-10.0208,-9.8989,-9.7944,-9.777,-9.6144,-9.6057,-9.835,-9.687,-9.6638,-9.8437,-9.8437,-9.8292,-9.8031,-9.6376,-9.4577,-9.2748,-9.2632,-9.2312,-9.1761,-9.1674,-9.1006,-8.9816,-8.9729,-8.8364,-8.5984,-8.5258,0.0,-8.2123,-8.1397,-8.0701,-8.0062,-7.8872,-7.8349,-7.8117,-7.6811,-7.5998,-7.5592,-7.6143,-7.5185,-7.3821,-7.4343,-7.3995,-7.3124,-7.1905,-7.1092,-7.0453,-6.9815,-6.8799,-6.787,-6.7783,-6.6854,-6.5896,-6.5838,-6.5373,-6.4996,-6.4996,-6.4996,-6.4764,-6.4067,-6.2993,-6.1803,-6.0438,-5.9771,-5.8929,-5.7507,-5.6868,-5.6461,-5.6287,-5.5707,-5.4836,-5.3646,-5.2949,-5.2594,-5.2455,-5.1439,-5.0801,-5.0801,-5.0211,-4.9814,-4.9814,-4.9776,-4.9717,-4.9717,-4.9717,-4.9717,-4.9717,-4.9717,-4.9717,-4.9717,-4.9717,-4.9717,-9.4925,-9.6783,-9.7654,-9.6609,-9.4199,-9.0919,-8.6448,-8.1136,-7.5243,-6.8479,-6.4648,-6.1687,-5.8958,-6.2645,-6.8567,-7.6172,-8.2704,-8.9729,-9.806,-9.9599,-10.0005,-10.0382,-10.0528,-10.0208,-9.9163,-9.8263,-9.8147,-9.9163,-9.7944,-9.777,-9.9163,-9.8699,-9.7683,-9.6144,-9.5244,-9.4112,-9.2719,-9.2196,-9.1877,-9.1761,-9.1238,-9.0571,-8.9787,-8.9264,-8.7929,-8.5955,-8.4765,0.0,-8.2094,-8.0933,-8.0062,-7.9394,-7.8669,-7.8059,-7.742,-7.6143,-7.5592,-7.5534,-7.565,-7.5098,-7.4372,-7.4488,-7.3385,-7.1876,-7.1121,-7.0453,-6.9815,-6.9176,-6.845,-6.7754,-6.7202,-6.6506,-6.5809,-6.5257,-6.5083,-6.4996,-6.4996,-6.4996,-6.4648,-6.3486,-6.308,-6.2325,-6.0496,-6.0119,-5.9422,-5.7594,-5.7216,-5.6781,-5.5707,-5.5039,-5.4371,-5.3588,-5.2949,-5.2368,-5.1817,-5.1585,-5.1439,-5.1439,-5.0859,-5.056,-5.056,-5.0008,-4.9717,-4.9717,-4.9717,-4.9717,-4.9717,-4.9717,-4.9717,-4.9717,-4.9717,-4.9717,-9.7392,-9.8466,-9.8699,-9.7741,-9.3357,-8.7755,-8.192,-7.5621,-6.8915,-6.1513,-5.8784,-5.7129,-5.5213,-5.9568,-6.5431,-7.1469,-7.7275,-8.4271,-9.3619,-9.5215,-9.6754,-10.0411,-10.1398,-10.1689,-10.1398,-10.0498,-10.0005,-10.0382,-9.9221,-9.8757,-9.9366,-9.8147,-9.6696,-9.5128,-9.4141,-9.3328,-9.2719,-9.208,-9.1761,-9.1761,-9.1122,-9.0454,-8.9787,-8.8829,-8.7523,-8.5955,-8.4649,0.0,-8.2123,-8.1165,-8.0381,-7.9714,-7.8785,-7.8204,-7.7769,-7.6491,-7.5563,-7.504,-7.5388,-7.4866,-7.4053,-7.4053,-7.3414,-7.2515,-7.1498,-7.0773,-7.0134,-6.9495,-6.8625,-6.7812,-6.7492,-6.668,-6.5867,-6.5548,-6.5228,-6.4996,-6.4996,-6.4996,-6.4822,-6.4183,-6.3806,-6.3167,-6.1919,-6.1164,-6.0177,-5.8581,-5.8058,-5.7361,-5.6084,-5.5678,-5.5126,-5.4139,-5.3762,-5.3326,-5.2659,-5.231,-5.2107,-5.2107,-5.1527,-5.1033,-5.0685,-5.0415,-5.0095,-4.9746,-4.9717,-4.9717,-4.9717,-4.9717,-4.9717,-4.9717,-4.9717,-4.9717,-9.8902,-9.9599,-9.9541,-9.8466,-9.2457,-8.4939,-7.7856,-7.086,-6.3661,-5.591,-5.4081,-5.3675,-5.292,-5.6723,-6.1745,-6.7202,-7.1789,-7.832,-8.8742,-9.0803,-9.3619,-10.0092,-10.1718,-10.2502,-10.2966,-10.1979,-10.1224,-10.1108,-10.0005,-9.9279,-9.9018,-9.7421,-9.5854,-9.446,-9.3299,-9.2661,-9.2516,-9.2022,-9.1703,-9.1558,-9.0919,-9.0251,-8.9584,-8.8306,-8.7116,-8.5955,-8.4649,0.0,0.0,-8.1484,-8.0846,-8.0178,-7.8901,-7.8407,-7.8233,-7.6782,-7.5592,-7.4779,-7.5156,-7.4634,-7.3792,-7.3647,-7.3501,-7.3153,-7.1847,-7.1034,-7.0395,-6.9757,-6.8741,-6.787,-6.787,-6.6912,-6.5896,-6.5751,-6.5344,-6.4996,-6.4996,-6.4996,-6.4996,-6.4996,-6.459,-6.4038,-6.3399,-6.247,-6.1338,-5.9916,-5.9132,-5.8261,-5.6984,-5.6694,-5.6171,-5.5039,-5.4807,-5.4487,-5.3965,-5.3355,-5.2978,-5.2978,-5.2252,-5.1614,-5.1141,-5.0946,-5.0569,-4.995,-4.9872,-4.9814,-4.9717,-4.9717,-4.9717,-4.9717,-4.9717,-4.9717,-9.9047,-10.0208,-10.0586,-9.8176,-9.1819,-8.4271,-7.7217,-6.8828,-6.0845,-5.4836,-5.2688,-5.2194,-5.3239,-5.4807,-5.8755,-6.7347,-7.0599,-7.5795,-8.6681,-9.0687,-9.4286,-9.9018,-10.1195,-10.2298,-10.2385,-10.1718,-10.1079,-10.0498,-9.9802,-9.8902,-9.7741,-9.6928,-9.5651,-9.3822,-9.3067,-9.2457,-9.1877,-9.179,-9.147,-9.089,-9.0222,-8.9584,-8.8916,-8.7639,-8.6681,-8.5955,-8.4649,0.0,0.0,-8.1484,-8.0846,-8.0178,-7.8901,-7.8407,-7.8175,-7.6288,-7.5534,-7.533,-7.4779,-7.4518,-7.4343,-7.3792,-7.3211,-7.2456,-7.1208,-7.0366,-6.9728,-6.9089,-6.8421,-6.787,-6.787,-6.6912,-6.578,-6.5199,-6.5025,-6.4996,-6.4996,-6.4996,-6.4996,-6.4996,-6.4938,-6.4706,-6.4067,-6.3801,-6.3138,-6.1309,-6.0438,-5.9568,-5.829,-5.7594,-5.6955,-5.6316,-5.5678,-5.53,-5.5242,-5.4691,-5.4342,-5.4342,-5.3181,-5.2507,-5.2449,-5.1846,-5.1236,-5.0598,-5.0598,-5.0278,-4.9717,-4.9717,-4.9717,-4.9717,-4.9717,-4.9717,-9.8321,-10.0295,-10.0789,-9.8583,-9.0832,-8.1978,-7.5301,-6.6215,-5.7797,-5.2833,-5.1091,-5.0859,-5.2136,-5.3094,-5.5765,-6.2064,-6.3051,-6.6564,-7.6724,-7.9569,-8.3865,-9.2603,-9.568,-9.8321,-10.1398,-10.1108,-10.0498,-9.986,-9.9192,-9.8408,-9.7567,-9.687,-9.5622,-9.3735,-9.3038,-9.2399,-9.179,-9.1761,-9.1441,-9.0803,-9.0135,-8.9496,-8.8829,-8.7552,-8.6623,-8.5955,-8.4649,0.0,0.0,-8.1484,-8.0846,-8.0178,-7.8901,-7.8407,-7.8204,-7.6666,-7.5853,-7.5417,-7.4779,-7.4518,-7.4343,-7.3327,-7.3356,-7.3414,-7.1353,-7.0541,-7.0134,-6.9118,-6.8654,-6.8363,-6.7986,-6.7202,-6.6331,-6.5693,-6.5548,-6.546,-6.5083,-6.4996,-6.4996,-6.4996,-6.4996,-6.4909,-6.4648,-6.4299,-6.3661,-6.2499,-6.1454,-6.0351,-5.9074,-5.8668,-5.8261,-5.7623,-5.6636,-5.5852,-5.5445,-5.5184,-5.5039,-5.5039,-5.4226,-5.3559,-5.3152,-5.2543,-5.1904,-5.1265,-5.0888,-5.0589,-5.0328,-4.9921,-4.9717,-4.9717,-4.9717,-4.995,-9.568,-9.8641,-9.9744,-9.8002,-8.9671,-8.0207,-7.3792,-6.4532,-5.6055,-5.1585,-5.0182,-5.0017,-5.112,-5.1875,-5.3646,-5.7768,-5.829,-6.1338,-7.0395,-7.2544,-7.684,-8.6681,-8.9787,-9.3125,-9.8263,-9.957,-9.9831,-9.9163,-9.8495,-9.7857,-9.7247,-9.6609,-9.5447,-9.3706,-9.3038,-9.2399,-9.179,-9.1761,-9.1354,-9.0513,-9.0048,-8.9293,-8.8277,-8.7203,-8.6361,-8.5694,-8.4387,0.0,0.0,-8.1484,-8.0846,-8.0178,-7.8901,-7.8407,-7.8233,-7.6956,-7.6172,-7.5679,-7.4837,-7.4663,-7.4605,-7.3327,-7.3531,-7.3908,-7.1876,-7.1266,-7.0947,-6.9292,-6.8828,-6.8683,-6.8044,-6.7522,-6.7028,-6.636,-6.607,-6.5809,-6.5373,-6.5112,-6.4996,-6.4996,-6.4996,-6.4996,-6.4996,-6.4619,-6.4096,-6.3457,-6.2616,-6.1513,-6.0061,-5.9858,-5.9539,-5.8697,-5.7797,-5.6984,-5.6316,-5.591,-5.5707,-5.5707,-5.5126,-5.4575,-5.4081,-5.3471,-5.2833,-5.2194,-5.1556,-5.1149,-5.0946,-5.0481,-5.0162,-5.0037,-5.0162,-5.0511,-9.0629,-9.4635,-9.7247,-9.597,-8.8364,-7.954,-7.3124,-6.4212,-5.6055,-5.1585,-5.0182,-4.9872,-5.0569,-5.1207,-5.2688,-5.591,-5.8523,-6.2848,-7.0599,-7.3327,-7.6695,-8.25,-8.4358,-8.7174,-9.2312,-9.6812,-9.9134,-9.8466,-9.7857,0.0,-9.6551,-9.5941,-9.5012,-9.3706,-9.3038,-9.2399,-9.179,-9.1761,-9.1122,-8.9845,-8.9816,-8.8829,-8.6971,-8.6332,-8.5694,0.0,0.0,0.0,0.0,-8.1484,-8.0846,-8.0178,-7.8901,-7.8407,-7.8233,-7.6956,-7.6538,-7.6259,-7.4953,-7.4953,-7.5301,-7.4024,-7.3618,-7.3501,-7.2805,-7.2602,-7.2079,-6.9525,-6.8828,-6.8683,-6.8044,-6.787,-6.7696,-6.7028,-6.6389,-6.5925,-6.5925,-6.5431,-6.4996,-6.4996,-6.4996,-6.4996,-6.4996,-6.4967,-6.4764,-6.4125,-6.3946,-6.3341,-6.1425,-6.1164,-6.07,-5.9422,-5.9277,-5.9016,-5.8319,-5.7129,-5.6403,-5.6403,-5.5765,-5.5387,-5.5387,-5.4807,-5.4168,-5.35,-5.2862,-5.2223,-5.1614,-5.1585,-5.1265,-5.0685,-5.1294,-5.1585,-8.1659,-8.5432,-8.761,-8.4591,-7.922,-7.324,-6.7725,-6.1396,-5.5562,-5.1497,-5.0182,-4.9921,-5.0589,-5.1178,-5.3384,-5.8813,-6.0351,-6.279,-6.8305,-7.2631,-7.6869,-8.131,-8.8771,-9.4548,-9.7044,-9.777,-9.8176,-9.8379,-9.7044,-9.6115,-9.5912,-9.4867,-9.4083,-9.3677,-9.3038,-9.2399,-9.179,-9.1354,-9.0687,-8.9816,-8.8945,-8.7987,-8.6971,-8.6332,-8.5432,0.0,0.0,0.0,0.0,-8.0846,-8.0468,-8.0207,-7.9365,-7.8756,-7.8291,-7.742,-7.684,-7.6346,-7.5475,-7.533,-7.5359,-7.4518,-7.4547,-7.4634,-7.3095,-7.2311,-7.1615,-6.996,-6.9466,-6.9321,-6.8683,-6.8538,-6.8363,-6.7725,-6.7405,-6.7028,-6.6128,-6.6128,-6.6012,-6.5141,-6.5344,-6.5489,-6.5054,-6.4996,-6.4909,-6.4706,-6.4299,-6.3772,-6.3225,-6.2761,-6.218,-6.1309,-6.0845,-5.9974,-5.8435,-5.7942,-5.7507,-5.7042,-5.6432,-5.6084,-5.6084,-5.5068,-5.44,-5.4197,-5.3123,-5.2484,-5.2281,-5.1817,-5.1527,-5.1323,-5.1962,-5.2281,-7.4111,-7.8117,-8.041,-7.8494,-7.4285,-6.9379,-6.4735,-5.9539,-5.4662,-5.1033,-5.0008,-4.9863,-5.027,-5.083,-5.2659,-5.6897,-5.861,-6.0961,-6.5431,-7.0279,-7.5388,-8.0933,-8.9293,-9.5099,-9.6405,-9.7102,-9.7567,-9.7683,-9.6144,-9.5244,-9.5244,-9.3996,-9.3299,-9.3299,-9.2922,-9.2399,-9.179,-9.1151,-9.0483,-8.9816,-8.8771,-8.7697,-8.6623,-8.6216,-8.52,0.0,0.0,0.0,0.0,-8.0556,-8.0294,-8.0236,-7.9569,-7.893,-7.832,-7.7653,-7.7014,-7.6375,-7.5737,-7.5679,-7.5766,-7.5098,-7.5011,-7.4866,-7.3414,-7.2195,-7.115,-7.0366,-6.996,-6.9641,-6.9002,-6.8828,-6.8741,-6.8334,-6.8073,-6.7667,-6.6825,-6.6767,-6.6651,-6.5867,-6.6012,-6.6099,-6.546,-6.5344,-6.5257,-6.5025,-6.4648,-6.4299,-6.4004,-6.369,-6.3196,-6.2529,-6.2122,-6.1309,-5.9858,-5.9074,-5.8493,-5.8087,-5.7477,-5.7129,-5.7129,-5.591,-5.5097,-5.4865,-5.3849,-5.3181,-5.292,-5.2281,-5.2107,-5.2339,-5.2484,-5.2688,0.0,-7.1963,-7.4634,-7.5592,-7.1847,-6.697,-6.3254,-5.8232,0.0,-5.0394,-4.9698,-4.9776,-4.993,-5.0336,-5.1033,-5.2136,-5.4807,-5.829,-6.2674,-6.7492,-7.3647,-8.1949,-8.7261,-9.0716,-9.1935,-9.5273,-9.7102,-9.6492,-9.5273,-9.4519,-9.4489,-9.3299,-9.2661,-9.2661,-9.2603,-9.2312,-9.1703,-9.1064,-9.0425,-8.9758,-8.9061,-8.7784,-8.6042,-8.5926,-8.4881,0.0,0.0,0.0,0.0,-8.0468,-8.0236,-8.0149,-7.9511,-7.8872,-7.8262,-7.7595,-7.6956,-7.6375,-7.5737,-7.594,-7.6346,-7.5708,-7.5069,-7.4401,-7.3792,-7.2311,-7.0831,-7.0744,-7.0308,-6.9699,-6.9002,-6.8828,-6.8828,-6.8828,-6.8363,-6.7928,-6.7899,-6.7434,-6.6999,-6.6912,-6.6912,-6.6738,-6.6041,-6.5925,-6.5722,-6.5083,-6.4996,-6.4764,-6.4183,-6.4033,-6.3864,-6.3225,-6.3167,-6.2877,-6.2238,-6.0496,-5.9422,-5.9364,-5.8755,-5.8348,-5.829,-5.7129,-5.6171,-5.5503,-5.4894,-5.4284,-5.3646,-5.3007,-5.3007,-5.3559,-5.2949,-5.2949,-5.8203,0.0,-6.3283,-6.1106,-5.9945,-5.8697,0.0,-5.4342,-5.2543,-5.0801,-5.0095,-5.0278,-5.2252,-5.1556,-5.2484,-5.8058,-5.9568,-6.128,-6.4764,-7.2921,-8.1426,-8.9293,-9.2603,-9.4373,-9.4693,-9.5535,-9.5999,-9.5825,-9.4606,-9.3677,-9.3183,-9.2428,-9.1993,-9.1993,-9.1529,-9.1209,-9.1035,-9.0396,-8.9729,-8.909,-8.7958,-8.6942,-8.6013,-8.4997,-8.3778,0.0,0.0,0.0,-8.0468,-7.9801,-7.954,-7.9481,-7.8843,-7.8204,-7.7566,-7.6927,-7.6579,-7.6375,-7.5737,-7.594,-7.6346,-7.5708,-7.5069,-7.443,-7.3792,-7.295,-7.1963,-7.1005,-7.0628,-7.025,-6.9118,-6.8828,-6.8828,-6.8828,-6.8712,-6.8479,-6.7986,-6.8131,-6.8073,-6.7086,-6.7289,-6.7289,-6.6128,-6.5925,-6.5722,-6.5083,-6.4996,-6.4938,-6.4793,-6.4764,-6.4532,-6.3893,-6.3806,-6.3545,-6.2906,-6.1571,-6.0526,-6.0032,-5.9422,-5.8842,-5.8319,-5.7536,-5.681,-5.62,-5.5533,-5.5126,-5.4952,-5.4342,-5.4139,-5.4255,-5.3588,-5.3355,-5.3907,-5.6432,-5.861,-5.7477,-5.681,-5.6055,-5.4691,-5.2978,-5.1461,-5.0473,-4.993,-5.0191,-5.1904,-5.1614,-5.2659,-5.7361,-5.9103,-6.2209,-6.8915,-7.6927,-8.4649,-9.147,-9.3996,-9.5273,0.0,-9.5622,-9.536,-9.4751,-9.3793,-9.3067,-9.2748,-9.2109,-9.1645,-9.1354,-9.1006,-9.0832,-9.0832,-8.9874,-8.9061,-8.8422,-8.7464,-8.6506,-8.5578,-8.4533,-8.34,0.0,0.0,0.0,-8.0236,-7.9569,-7.9307,-7.9249,-7.864,-7.8001,-7.7333,-7.6695,-7.6538,-7.6317,-7.5388,-7.5475,-7.6027,-7.5969,-7.5301,-7.4488,-7.414,-7.3153,-7.1992,-7.1005,-7.0715,-7.0424,-6.9147,-6.9031,-6.9263,-6.9263,-6.9495,-6.9525,-6.8886,-6.9031,-6.8973,-6.7957,-6.8073,-6.7986,-6.6999,-6.6825,-6.6506,-6.5548,-6.5431,-6.5315,-6.5025,-6.4996,-6.4851,-6.4502,-6.4473,-6.4328,-6.398,-6.3051,-6.2093,-6.1135,-6.0206,-5.9539,-5.919,-5.8261,-5.7332,-5.6432,-5.5765,-5.5416,-5.5416,-5.5068,-5.4923,-5.4923,-5.4546,-5.4371,-5.3175,-5.5416,-5.7681,-5.8058,-5.7129,-5.5881,-5.4894,-5.2601,-5.056,-4.9979,-4.9814,-5.0162,-5.1207,-5.1933,-5.3123,-5.5445,-5.829,-6.3835,-7.4227,-8.0265,-8.5607,-9.0977,-9.3473,0.0,-9.5012,-9.5302,-9.4925,-9.3619,-9.3009,-9.2661,-9.2574,-9.2051,-9.147,-9.0832,-9.0629,-9.0483,-9.0367,-8.9293,-8.8422,-8.7784,-8.7058,-8.6071,-8.491,-8.4155,-8.3168,-8.2007,0.0,0.0,-8.0091,-7.9423,-7.9104,-7.8959,-7.8349,-7.7769,-7.7159,-7.6433,-7.623,-7.6143,-7.4924,-7.4866,-7.5446,-7.5998,-7.5359,-7.4372,-7.4372,-7.3124,-7.1528,-7.0889,-7.0657,-7.0366,-6.9379,-6.9437,-6.9786,-6.9902,-7.0337,-7.057,-7.0047,-6.9844,-6.9612,-6.906,-6.8886,-6.8625,-6.7986,-6.787,-6.7434,-6.6128,-6.5925,-6.5693,-6.5083,-6.4996,-6.4996,-6.4996,-6.4996,-6.4996,-6.4996,-6.4415,-6.3574,-6.247,-6.1193,-6.0409,-6.0206,-5.8987,-5.7797,-5.6723,-5.6026,-5.5707,-5.5707,-5.562,-5.5562,-5.5562,-5.5445,-5.5416,-5.5707,-5.7768,-5.8,-5.3849,-5.382,-5.4197,-5.1933,-5.1033,-5.0705,-5.0589,-5.056,-5.1381,-5.4168,-5.5213,-5.7013,-6.1106,-6.5751,-7.1673,-7.9859,-8.3633,-8.6913,-9.0542,-9.3619,-9.4635,-9.2574,-9.3822,-9.4228,-9.2951,-9.2777,-9.2486,-9.1964,-9.1819,-9.147,-9.0832,-8.9758,-8.8916,-8.8364,-8.8161,-8.7755,-8.7116,-8.5926,-8.4968,-8.4184,-8.3023,-8.2065,-8.131,0.0,-8.0062,-7.9423,-7.8785,-7.8204,-7.7624,-7.7014,-7.6695,-7.6462,-7.5243,-7.5156,-7.5534,-7.4779,-7.4576,-7.4692,-7.4779,-7.4343,-7.3763,-7.3763,-7.2776,-7.1528,-7.0889,-7.0337,-6.9989,-7.0337,-7.0105,-6.9902,-7.0453,-7.0657,-7.0686,-7.0599,-7.0163,-6.9757,-6.9641,-6.9205,-6.8625,-6.7986,-6.787,-6.7434,-6.6128,-6.5925,-6.5693,-6.5083,-6.4996,-6.4996,-6.4996,-6.4996,-6.4996,-6.4996,-6.4415,-6.3888,-6.3685,-6.2529,-6.1309,-6.0235,-5.8987,-5.8203,-5.8,-5.7361,-5.7013,-5.7013,-5.649,-5.6258,-5.6229,-5.5678,-5.5416,-5.3239,-5.5184,-5.6229,-5.4168,-5.591,-5.7448,-5.4865,-5.3471,-5.2949,-5.3617,-5.3239,-5.3617,-5.6461,-5.8348,-6.1513,-6.7754,-7.3066,-7.7885,-8.2094,-8.491,-8.7726,-9.0948,0.0,-9.3357,-9.2835,-9.327,-9.3212,-9.2283,0.0,0.0,-9.179,-9.1441,-9.0948,-9.0309,-8.9032,-8.8074,-8.7435,-8.6361,-8.5694,-8.5403,-8.4503,-8.372,-8.3023,-8.2094,-8.1484,-8.1136,0.0,-7.9569,-7.922,-7.8262,-7.7682,-7.7333,-7.6724,-7.6538,-7.6346,-7.5388,-7.4808,-7.4488,-7.4518,-7.4518,-7.4518,-7.4518,-7.4576,-7.4576,-7.4198,-7.3211,-7.2195,-7.2253,-7.1063,-6.9844,-7.0134,-7.025,-7.0453,-7.1092,-7.1498,-7.1557,-7.086,-7.0773,-7.0482,-6.9466,-6.9292,-6.9147,-6.8509,-6.8392,-6.8073,-6.7115,-6.6999,-6.6622,-6.5635,-6.5489,-6.5373,-6.5025,-6.4996,-6.4996,-6.4996,-6.4706,-6.427,-6.3574,-6.2616,-6.1687,-6.0787,-5.9829,-5.9161,-5.8842,-5.8552,-5.8203,-5.7855,-5.7565,-5.7245,-5.6897,-5.6578,-5.6432,-5.1991,-5.3559,-5.5126,-5.591,-5.7971,-5.9597,-5.8639,-5.6868,-5.5939,-5.7797,-5.7303,-5.7071,-5.8871,-6.2122,-6.6825,-7.3821,-7.9249,-8.3023,-8.43,-8.6565,-8.9032,-9.147,-9.2022,-9.2486,-9.3154,-9.2922,-9.2457,-9.1819,0.0,0.0,-9.1558,-9.0948,-9.0222,-8.9409,-8.8161,-8.7174,-8.6536,-8.462,-8.3807,-8.4068,-8.3168,-8.2442,-8.1949,-8.1281,-8.0904,-8.0701,-7.9714,-7.9133,-7.8785,-7.7798,-7.7333,-7.713,-7.6637,-7.6288,-7.594,-7.5301,-7.4343,-7.3443,-7.3908,-7.4082,-7.4082,-7.4256,-7.4547,-7.475,-7.4227,-7.3298,-7.2456,-7.2834,-7.1528,-7.0076,-7.0366,-7.0686,-7.1092,-7.1731,-7.2253,-7.2311,-7.1179,-7.1208,-7.0976,-6.935,-6.9321,-6.9408,-6.8915,-6.8828,-6.8625,-6.7986,-6.787,-6.7463,-6.6302,-6.6012,-6.5751,-6.5257,-6.5083,-6.4996,-6.4996,-6.4996,-6.4561,-6.3603,-6.2761,-6.2064,-6.1425,-6.0787,-6.0148,-5.951,-5.9364,-5.9045,-5.8523,-5.8523,-5.8261,-5.7768,-5.7768,-5.7681,-5.5881,-5.6549,-5.6578,-5.7797,-5.6955,-5.6868,-6.0845,-5.9829,-5.9074,-6.267,-6.2935,-6.2325,-6.189,-6.7318,-7.3385,-7.8117,-8.3197,-8.7,-8.8277,-9.0164,-9.1499,-9.1732,-9.2806,-9.3096,-9.2022,-9.2399,-9.2457,0.0,0.0,0.0,-9.0919,-9.0251,-8.9322,-8.8103,-8.6826,-8.5868,-8.5229,-8.3284,-8.2907,-8.4068,-8.221,-8.131,-8.1252,-8.0643,-8.0033,-7.9423,-7.9336,-7.864,-7.7537,-7.7449,-7.7072,-7.6521,-7.6567,-7.5708,-7.4576,-7.3966,-7.3298,-7.2689,-7.2747,-7.2747,-7.2863,-7.3472,-7.3298,-7.2805,-7.2776,-7.2282,-7.1615,-7.1092,-7.0802,-7.0918,-7.2108,-7.2021,-7.176,-7.2398,-7.2573,-7.2427,-7.176,-7.1179,-7.057,-6.9844,-6.9263,-6.8886,-6.8828,-6.8828,-6.8625,-6.7986,-6.787,-6.7638,-6.6912,-6.6302,-6.5896,-6.5867,-6.5344,-6.4996,-6.4996,-6.4996,-6.4938,-6.4851,-6.369,-6.2732,-6.2064,-6.1454,-6.0816,-6.0148,-5.9597,-5.9277,-5.9248,-5.9248,-5.919,-5.9161,-5.9161,-5.8813,-5.3384,-5.4487,-5.5736,-5.7797,-5.8058,-5.89,-6.2964,-6.4386,-6.5838,-6.9292,-6.9815,-6.9554,-6.9292,-7.3066,-7.742,-8.1078,-8.5316,-8.8887,-9.0977,-9.1558,-9.2051,-9.2864,-9.269,-9.2457,-9.237,-9.2225,0.0,0.0,0.0,0.0,-9.0832,-8.9438,-8.8422,-8.7929,-8.6303,-8.5142,-8.4474,-8.2965,-8.2239,-8.2268,-8.1165,-8.0643,-8.0614,-7.9975,-7.954,-7.9249,-7.8465,-7.7856,-7.7362,-7.6985,-7.6666,-7.6538,-7.6538,-7.5911,-7.504,-7.4401,-7.3763,-7.324,-7.324,-7.3501,-7.3792,-7.3647,-7.3705,-7.3734,-7.3356,-7.2776,-7.2282,-7.2485,-7.2224,-7.1934,-7.1992,-7.1847,-7.1818,-7.2456,-7.2602,-7.2427,-7.1818,-7.1789,-7.1469,-7.0047,-6.9902,-6.9757,-6.8973,-6.8828,-6.8741,-6.8509,-6.8479,-6.8073,-6.7028,-6.668,-6.6215,-6.5431,-6.5141,-6.4996,-6.4996,-6.4996,-6.4996,-6.4996,-6.4154,-6.3574,-6.3312,-6.2296,-6.1629,-6.1396,-6.0787,-6.0264,-5.9858,-5.9858,-5.9684,-5.9306,-5.9306,-5.8522,-5.173,-5.2426,-5.3907,-5.6461,-5.8203,-6.0787,-6.6418,-6.8741,-7.0918,-7.5127,-7.504,-7.4401,-7.5011,-7.6927,-7.9452,-8.2646,-8.671,-9.0164,-9.2138,-9.2051,-9.208,-9.298,-9.2312,-9.1935,-9.237,0.0,0.0,0.0,0.0,0.0,0.0,-8.8277,-8.7232,-8.7029,-8.5549,-8.4474,-8.3807,-8.2733,-8.1862,-8.1194,-8.0585,-8.0294,-8.0265,-7.9598,-7.9191,-7.8959,-7.7885,-7.7275,-7.7072,-7.6637,-7.6346,-7.6143,-7.594,-7.5475,-7.4837,-7.4169,-7.3792,-7.3618,-7.3618,-7.4024,-7.443,-7.3821,-7.3908,-7.4082,-7.324,-7.2834,-7.266,-7.2921,-7.2805,-7.2515,-7.2079,-7.1963,-7.2079,-7.2515,-7.2456,-7.2137,-7.1498,-7.1557,-7.1266,-6.9757,-6.9989,-7.0076,-6.9002,-6.9002,-6.906,-6.8857,-6.8828,-6.8509,-6.7609,-6.7318,-6.6709,-6.5431,-6.5112,-6.4996,-6.4996,-6.4996,-6.4996,-6.4996,-6.459,-6.4241,-6.3975,-6.3167,-6.2616,-6.2412,-6.2006,-6.1454,-6.0787,-6.054,-6.0252,-5.9916,-5.9587,-5.8589,-5.1991,-5.1178,-5.1323,-5.3907,-5.6984,-6.1861,-7.1469,-7.266,-7.3531,-7.9946,-7.8233,-7.6201,-7.8088,-7.8465,-7.9511,-8.2704,-8.7493,-9.1035,-9.1674,-9.1761,-9.1761,-9.1761,-9.1761,-9.1761,0.0,0.0,0.0,0.0,0.0,0.0,0.0,-8.671,-8.5723,-8.5084,-8.4416,-8.3778,-8.3168,-8.25,-8.1833,-8.1165,-8.0585,-8.0294,-8.0265,-7.9598,-7.8959,-7.8349,-7.7682,-7.7043,-7.6538,-7.6538,-7.6085,-7.5446,-7.4779,-7.414,-7.3531,-7.2863,-7.3037,-7.3618,-7.3618,-7.4024,-7.443,-7.3821,-7.3618,-7.3385,-7.2079,-7.2108,-7.2485,-7.1847,-7.2137,-7.2602,-7.2602,-7.2602,-7.2602,-7.2602,-7.2137,-7.1498,-7.086,-7.025,-6.9612,-6.8973,-6.935,-6.9583,-6.8944,-6.935,-6.9554,-6.8944,-6.8828,-6.8828,-6.8828,-6.8276,-6.7376,-6.607,-6.5373,-6.4996,-6.4996,-6.4996,-6.4996,-6.4996,-6.4996,-6.4706,-6.4004,-6.3975,-6.3748,-6.3109,-6.308,-6.2761,-6.2093,-6.1301,-6.0989,-6.1162,-6.0268,-5.922,-5.263,-5.2484,-5.35,-5.7013,-6.0264,-6.5025,-7.4198,-7.5969,-7.7653,-8.4503,-8.4329,-8.2675,-8.192,-8.25,-8.3429,-8.4358,-8.729,-8.999,-9.1558,-9.1761,-9.1761,-9.1761,-9.1383,0.0,0.0,0.0,0.0,0.0,0.0,0.0,0.0,-8.6071,-8.5055,-8.4416,-8.3778,-8.2907,-8.1804,-8.1601,-8.1165,-8.0556,-8.0381,-8.0062,-7.9569,-7.8959,-7.832,-7.7653,-7.7014,-7.6637,-7.6538,-7.6538,-7.6085,-7.5475,-7.5301,-7.4576,-7.3647,-7.385,-7.3792,-7.3734,-7.4634,-7.5069,-7.5098,-7.4459,-7.3966,-7.3443,-7.2602,-7.2166,-7.1992,-7.2253,-7.2456,-7.2602,-7.2602,-7.2602,-7.2602,-7.2602,-7.2137,-7.1615,-7.144,-7.1237,-7.0918,-7.0279,-7.0686,-7.0918,-7.0279,-6.996,-6.9873,-7.0134,-6.9786,-6.9321,-6.8886,-6.787,-6.6854,-6.6012,-6.5751,-6.546,-6.5025,-6.4996,-6.4996,-6.4996,-6.4996,-6.4909,-6.4706,-6.427,-6.3888,-6.3777,-6.3312,-6.2993,-6.279,-6.1529,-6.097,-6.0983,-6.0224,-5.8939,-5.2397,-5.2281,-5.3442,-5.7826,-6.1861,-6.7405,-7.742,-8.0875,-8.34,-8.8422,-8.7639,-8.5839,-8.52,-8.5084,-8.5345,-8.61,-8.8161,-9.0135,-9.1558,-9.1761,-9.1674,-9.1412,0.0,0.0,0.0,0.0,0.0,0.0,0.0,0.0,0.0,-8.5026,-8.4155,-8.3749,-8.311,-8.2268,-8.1194,-8.1194,-8.0904,-8.0294,-8.0033,-7.9569,-7.893,-7.8582,-7.803,-7.7362,-7.6724,-7.6538,-7.6538,-7.6538,-7.594,-7.5156,-7.5417,-7.4721,-7.3676,-7.4285,-7.4285,-7.4082,-7.4837,-7.5098,-7.5011,-7.4372,-7.3908,-7.3501,-7.2805,-7.234,-7.2108,-7.2515,-7.2285,-7.2011,-7.2011,-7.1695,-7.1637,-7.2414,-7.1934,-7.1353,-7.1615,-7.1266,-7.0889,-7.0744,-7.1237,-7.1469,-7.0831,-7.0395,-7.0279,-7.0657,-7.0192,-6.9554,-6.8915,-6.7928,-6.7028,-6.6389,-6.607,-6.5693,-6.5025,-6.4996,-6.4996,-6.4996,-6.4996,-6.4996,-6.4996,-6.408,-6.3529,-6.3529,-6.3157,-6.2841,-6.2584,-6.137,-6.0839,-6.0883,-5.9577,-5.8181,-5.1643,-5.1439,-5.2514,-5.7623,-6.3196,-7.0163,-8.0643,-8.6013,-8.9322,-9.1209,-8.8945,-8.6971,-8.7987,-8.6768,-8.6158,-8.7842,-8.9584,-9.0919,-9.1499,-9.1587,-9.1383,0.0,0.0,0.0,0.0,0.0,0.0,0.0,0.0,0.0,0.0,-8.3749,-8.3081,-8.3023,-8.2413,-8.1775,-8.1107,-8.1107,-8.0817,-8.0207,-7.9598,-7.8959,-7.832,-7.832,-7.7943,-7.7275,-7.6724,-7.6538,-7.6538,-7.6404,-7.565,-7.4605,-7.5127,-7.4605,-7.3589,-7.4198,-7.443,-7.443,-7.443,-7.4459,-7.4401,-7.3734,-7.356,-7.3501,-7.2805,-7.2573,-7.2544,-7.2544,-7.1766,-7.0992,-7.0992,-7.0305,-7.002,-7.1882,-7.1387,-7.0732,-7.137,-7.0686,-6.9978,-7.0616,-7.1324,-7.1557,-7.0918,-7.0744,-7.0686,-7.0657,-7.0134,-6.9554,-6.9002,-6.8363,-6.7725,-6.7057,-6.6389,-6.5751,-6.5112,-6.5025,-6.4996,-6.4996,-6.4996,-6.4996,-6.4996,-6.359,-6.2773,-6.2773,-6.2641,-6.2295,-6.1669,-6.0824,-6.0456,-6.0598,-5.8491,-5.7199,-5.1875,-5.3704,-5.71,-6.2267,-7.1179,-7.922,-8.1165,-8.4997,-8.8539,-8.9961,-9.0803,-9.1064,-9.0338,-8.9874,-8.9555,-8.9438,-8.9758,-9.0077,-9.0222,-9.0251,-9.0193,0.0,0.0,0.0,0.0,0.0,0.0,0.0,0.0,0.0,-8.3604,-8.2849,-8.2181,-8.163,-8.1484,-8.1107,-8.0497,-8.0497,-8.0149,0.0,-7.9365,-7.8698,-7.7624,-7.7624,-7.7275,-7.6666,-7.6521,-7.6538,-7.6433,-7.5911,-7.5243,-7.4488,-7.414,-7.3531,-7.2892,-7.356,-7.3792,-7.3792,-7.3792,-7.4111,-7.4314,-7.3182,-7.3182,-7.3501,-7.2805,-7.2282,-7.1876,-7.1876,-7.113,-7.0387,-7.0387,-6.999,-6.9749,-7.0149,-6.9703,-6.9371,-7.0284,-7.0296,-7.0296,-7.0861,-7.1779,-7.2224,-7.1586,-7.1063,-7.0541,-7.0047,-6.9873,-6.9728,-6.9583,-6.9002,-6.8392,-6.7725,-6.7086,-6.6418,-6.578,-6.5257,-6.4996,-6.4996,-6.4996,-6.4996,-6.4996,-6.359,-6.2773,-6.2773,-6.1639,-6.1043,-6.0838,-5.9531,-5.892,-5.8934,-5.7922,-5.7434,-5.2862,-5.4662,-5.8087,-6.5083,-7.2021,-7.7943,-8.0991,-8.3749,-8.6187,-8.8074,-8.999,-9.1122,-9.0454,-9.0338,-9.0222,-8.9874,-8.9816,-8.9816,-8.9816,-8.9816,0.0,0.0,0.0,0.0,0.0,0.0,0.0,0.0,0.0,-8.3052,-8.2733,-8.2094,-8.1543,-8.1194,-8.0904,-8.0468,-7.983,-7.983,-7.9511,-7.8872,-7.8553,-7.7885,-7.6956,-7.6956,-7.6782,-7.6538,-7.6538,-7.6288,-7.5969,-7.565,-7.4953,-7.4082,-7.4053,-7.3647,-7.3124,-7.3472,-7.3414,-7.3095,-7.2776,-7.2892,-7.3037,-7.2369,-7.2602,-7.3066,-7.2718,-7.2256,-7.1866,-7.176,-7.0717,-6.9663,-6.9904,-6.8995,-6.8358,-6.9167,-6.8966,-6.8977,-7.0034,-7.0076,-7.0233,-7.1395,-7.1739,-7.1837,-7.1731,-7.115,-7.0395,-6.9466,-6.9583,-6.967,-6.935,-6.9031,-6.8596,-6.7957,-6.758,-6.6706,-6.5068,-6.4602,-6.4026,-6.2962,-6.2868,-6.2868,-6.2868,-6.1504,-6.1002,-6.1706,-6.0276,-5.9515,-5.9515,-5.8771,-5.8418,-5.8347,-5.7352,-5.6892,-5.2949,-5.501,-5.8552,-6.6912,-7.1005,-7.4401,-7.9801,-8.2239,-8.3923,-8.5926,-8.8103,-8.9613,-8.9526,-8.9496,-8.9467,-8.9351,-8.9235,-8.9177,-8.9177,0.0,0.0,0.0,0.0,0.0,0.0,0.0,0.0,0.0,0.0,-8.2617,-8.2065,-8.1281,-8.0875,-8.0875,-8.0294,-7.9714,-7.9162,-7.9133,-7.8843,-7.8233,-7.7566,-7.6956,-7.6538,-7.6346,-7.6346,-7.6538,-7.6346,-7.5998,-7.5475,-7.5272,-7.4576,-7.3647,-7.4024,-7.3879,-7.3443,-7.3443,-7.3095,-7.2515,-7.1905,-7.1731,-7.1818,-7.1702,-7.2108,-7.2602,-7.2602,-7.2258,-7.1841,-7.1602,-7.0261,-6.8897,-6.9236,-6.7919,-6.6946,-6.8357,-6.8513,-6.8738,-7.0078,-6.9879,-6.9936,-7.1467,-7.1237,-7.0931,-7.1283,-7.0831,-7.0047,-6.8973,-6.9263,-6.9408,-6.8886,-6.8828,-6.8625,-6.8102,-6.7957,-6.6873,-6.4285,-6.4021,-6.3066,-6.1041,-6.0837,-6.0782,-6.0782,-5.9219,-5.8956,-6.0208,-5.8771,-5.7992,-5.7992,-5.7992,-5.7992,-5.8018,-5.6776,-5.6219,-4.9407,-5.5242,-6.2558,-6.8247,-7.3995,-7.7943,-7.6695,-8.0323,-8.3923,-8.3749,-8.6536,-8.8829,-8.8277,-8.819,-8.7987,-8.7464,-8.6913,-8.6536,0.0,0.0,0.0,0.0,0.0,0.0,0.0,0.0,0.0,0.0,-8.1833,-8.1426,-8.1339,-8.0207,-7.954,-7.954,-7.8959,-7.8611,-7.8524,-7.8524,-7.8204,-7.7537,-7.6898,-7.655,-7.6508,-7.5882,-7.594,-7.6508,-7.5882,-7.5592,-7.5417,-7.4314,-7.3763,-7.356,-7.3066,-7.2805,-7.2747,-7.2747,-7.2689,-7.2515,-7.1905,-7.2021,-7.2398,-7.1847,-7.2108,-7.2602,-7.2602,-7.1969,-7.1178,-7.0894,-6.9531,-6.8159,-6.8009,-6.7267,-6.6764,-6.7537,-6.7298,-6.7425,-6.9562,-6.9521,-6.9294,-7.0103,-6.9849,-6.9604,-6.9949,-6.9495,-6.9031,-6.8857,-6.8886,-6.8915,-6.8828,-6.8828,-6.8799,-6.8712,-6.8218,-6.7219,-6.544,-6.4825,-6.3804,-6.2166,-6.1581,-6.1283,-6.1283,-5.9431,-5.8489,-5.8701,-5.7256,-5.6485,-5.6485,-5.6485,-5.6485,-5.6485,-5.6267,-5.6219,-5.2252,-5.6955,-6.2006,-6.607,-7.1353,-7.5359,-7.4634,-7.8059,-8.1426,-8.1543,-8.3458,-8.549,-8.6652,-8.6855,-8.6768,-8.6477,-8.6216,0.0,0.0,0.0,0.0,0.0,0.0,0.0,0.0,0.0,0.0,0.0,-8.1368,-8.0875,-8.0178,-7.9598,-7.9133,-7.8814,-7.8553,-7.8233,-7.7856,-7.7856,-7.7507,-7.6869,-7.6608,-7.6259,-7.5911,-7.565,-7.565,-7.5882,-7.5243,-7.475,-7.4401,-7.385,-7.3385,-7.3037,-7.2718,-7.2602,-7.2573,-7.2224,-7.2079,-7.1992,-7.1353,-7.1324,-7.1498,-7.1237,-7.1557,-7.2079,-7.2079,-7.171,-7.1166,-7.0585,-6.965,-6.8781,-6.8485,-6.8061,-6.7888,-6.8843,-6.8337,-6.8043,-6.9342,-6.9189,-6.8822,-6.932,-6.932,-6.916,-6.898,-6.8895,-6.8828,-6.8828,-6.809,-6.7512,-6.7512,-6.679,-6.6553,-6.7443,-6.7256,-6.6295,-6.444,-6.4024,-6.2692,-6.0023,-5.9617,-5.9331,-5.8993,-5.811,-5.7491,-5.7184,-5.6558,-5.6219,-5.6219,-5.6219,-5.6219,-5.6219,-5.6219,-5.6219,-5.35,-5.6694,-5.9597,-6.3138,-6.8363,-7.2805,-7.3472,-7.6695,-7.9656,-7.9975,-8.0933,-8.2326,-8.4416,-8.52,-8.5549,-8.5549,-8.5403,0.0,0.0,0.0,0.0,0.0,0.0,0.0,0.0,0.0,0.0,0.0,-8.0817,-8.0294,-7.9365,-7.8988,-7.8611,-7.8175,-7.8001,-7.7682,-7.7159,-7.7159,-7.6927,-7.6538,-7.6288,-7.5969,-7.5504,-7.5185,-7.504,-7.5011,-7.4488,-7.4024,-7.3618,-7.3443,-7.3066,-7.2602,-7.2602,-7.2602,-7.2573,-7.2079,-7.1905,-7.1847,-7.1382,-7.1092,-7.0947,-7.0947,-7.1266,-7.1644,-7.1428,-7.1237,-7.1065,-7.0089,-6.9537,-6.9084,-6.8867,-6.8624,-6.8759,-6.9826,-6.9264,-6.8646,-6.9264,-6.8899,-6.8622,-6.8952,-6.8938,-6.8728,-6.8263,-6.8353,-6.8557,-6.8625,-6.7374,-6.6342,-6.6483,-6.5182,-6.468,-6.5751,-6.592,-6.506,-6.3091,-6.292,-6.1595,-5.8479,-5.8177,-5.7851,-5.7273,-5.7123,-5.6771,-5.6219,-5.6219,-5.6219,-5.6219,-5.6219,-5.6219,-5.6219,-5.6219,-5.6219,-4.9349,-5.2397,-5.5881,-6.0293,-6.7057,-7.2805,-7.3472,-7.7043,-8.0091,-7.9481,-7.9917,-8.0614,-8.131,-8.2965,-8.4184,-8.4184,0.0,0.0,0.0,0.0,0.0,0.0,0.0,0.0,0.0,0.0,0.0,0.0,-7.9743,-7.9365,-7.9307,-7.8146,-7.7478,-7.7449,-7.6869,-7.655,-7.6596,-7.6596,-7.6567,-7.6538,-7.5853,-7.5534,-7.5475,-7.4256,-7.3705,-7.3705,-7.3676,-7.3647,-7.356,-7.2921,-7.266,-7.2602,-7.2602,-7.2602,-7.2602,-7.2573,-7.2573,-7.2573,-7.2515,-7.2137,-7.1615,-7.1615,-7.1644,-7.1486,-7.0556,-7.0392,-7.0307,-6.9149,-6.867,-6.8537,-6.8245,-6.8314,-6.8646,-6.9292,-6.8955,-6.8646,-6.9264,-6.8899,-6.8622,-6.8952,-6.8514,-6.8101,-6.7793,-6.7747,-6.7913,-6.8313,-6.6958,-6.6061,-6.6413,-6.5182,-6.422,-6.4292,-6.4319,-6.3638,-6.2014,-6.1865,-6.1189,-5.9485,-5.8956,-5.8428,-5.7876,-5.7323,-5.6771,-5.6219,-5.6219,-5.6219,-5.6219,-5.6219,-5.6219,-5.6219,-5.6219,-5.6219,-4.903,-5.1149,-5.3617,-5.7681,-6.3545,-6.8392,-6.8625,-7.3124,-7.7043,-7.6404,-7.742,-7.8756,-7.9801,-8.1572,-8.2878,0.0,0.0,0.0,0.0,0.0,0.0,0.0,0.0,0.0,0.0,0.0,0.0,0.0,0.0,-7.8088,-7.8088,-7.7275,-7.6782,-7.6782,-7.6579,-7.6538,-7.6538,-7.6056,-7.5853,-7.5853,-7.5185,-7.4663,-7.4285,-7.3821,-7.3385,-7.2979,-7.2979,-7.2979,-7.295,-7.2718,-7.2602,-7.2602,-7.2602,-7.2602,-7.2602,-7.2602,-7.2602,-7.2602,-7.2602,-7.1934,-7.1063,-7.1063,-7.0773,-7.0424,-7.0054,-6.9942,-6.985,-6.9393,-6.9137,-6.9084,-6.9004,-6.9253,-6.9714,-6.9939,-6.9517,-6.9124,-6.9349,-6.8899,-6.855,-6.8665,-6.8061,-6.762,-6.793,-6.7826,-6.7959,-6.8734,-6.7552,-6.6291,-6.5616,-6.4553,-6.3514,-6.2843,-6.2791,-6.2434,-6.1467,-6.1441,-6.0862,-5.956,-5.9332,-5.8981,-5.8453,-5.8202,-5.765,-5.6746,-5.6746,-5.657,-5.6219,-5.5926,-5.5926,-5.6219,-5.5926,-5.5926,-4.8043,-4.9669,-5.2049,-5.652,-6.0351,-6.3835,-6.6854,-7.0337,-7.3124,-7.3763,-7.5446,-7.7101,-7.8146,-7.9569,0.0,0.0,0.0,0.0,0.0,0.0,0.0,0.0,0.0,0.0,0.0,0.0,0.0,0.0,0.0,0.0,-7.7391,-7.6811,-7.6538,-7.6538,-7.6538,-7.6346,-7.6143,-7.5708,-7.5388,-7.5156,-7.4518,-7.3995,-7.3618,-7.3385,-7.3037,-7.2602,-7.2602,-7.2602,-7.2602,-7.2602,-7.2602,-7.2602,-7.2602,-7.2602,-7.2602,-7.2602,-7.2602,-7.2602,-7.2602,-7.1789,-7.0715,-7.0715,-7.0279,-6.9728,-6.9388,-6.9281,-6.9278,-6.9137,-6.9094,-6.9124,-6.9349,-6.9854,-7.0304,-7.0304,-6.9523,-6.8994,-6.9612,-6.9208,-6.8646,-6.8225,-6.7589,-6.7066,-6.7038,-6.6628,-6.6529,-6.7277,-6.6103,-6.4897,-6.4375,-6.3126,-6.2017,-6.1299,-6.1271,-6.1066,-6.0532,-6.0635,-6.0353,-5.9629,-5.9531,-5.9257,-5.873,-5.8704,-5.8252,-5.7349,-5.7123,-5.6846,-5.6495,-5.6001,-5.5926,-5.6219,-5.5779,-5.5779,0.0,0.0,0.0,-5.6578,-5.7565,-5.9422,-6.8189,-6.8857,-6.8538,-7.1731,-7.3937,-7.5504,-7.6259,-7.6927,0.0,0.0,0.0,0.0,0.0,0.0,0.0,0.0,0.0,0.0,0.0,0.0,0.0,0.0,-7.774,-7.7362,-7.7362,-7.6782,-7.6538,-7.6538,-7.6508,-7.6143,-7.5534,-7.5475,-7.5127,-7.4488,-7.3879,-7.3589,-7.356,-7.2921,-7.2602,-7.2602,-7.2602,-7.2602,-7.2602,-7.2602,-7.2602,-7.2602,-7.2602,-7.2602,-7.2602,-7.2602,-7.2602,-7.2602,-7.2602,-7.1789,-7.0744,-7.0715,-7.0279,-6.9601,-6.8554,-6.8441,-6.858,-6.8229,-6.8258,-6.8618,-6.9264,-6.9854,-7.0304,-7.023,-6.8978,-6.8269,-6.9802,-6.9753,-6.8967,-6.7803,-6.7166,-6.6508,-6.5267,-6.4164,-6.3541,-6.3872,-6.269,-6.1933,-6.269,-6.1115,-5.9872,-5.9727,-5.9749,-5.9607,-5.9171,-5.944,-5.9677,-5.9653,-5.9523,-5.9205,-5.8678,-5.8678,-5.8478,-5.7926,-5.7374,-5.7072,-5.7022,-5.647,-5.6219,-5.6146,-5.5779,-5.5558,-4.6737,0.0,0.0,0.0,0.0,0.0,-5.6926,-5.9713,-6.2703,-6.6331,-6.8654,-7.1034,-7.443,0.0,0.0,0.0,0.0,0.0,0.0,0.0,0.0,0.0,0.0,0.0,0.0,0.0,0.0,0.0,-7.6666,-7.623,-7.6695,-7.655,-7.6538,-7.6538,-7.5998,-7.5679,-7.5504,-7.4605,-7.4053,-7.385,-7.3211,-7.2892,-7.2892,-7.2689,-7.2602,-7.2602,-7.2602,-7.2602,-7.2602,-7.2602,-7.2602,-7.2602,-7.2602,-7.2602,-7.2602,-7.2602,-7.2602,-7.2544,-7.2079,-7.1702,-7.1237,-7.0031,-6.9696,-6.9572,-6.8252,-6.789,-6.7981,-6.8088,-6.8258,-6.8731,-6.977,-7.0164,-6.9979,-6.8827,-6.8116,-6.7445,-6.622,-6.7197,-6.8331,-6.8793,-6.7387,-6.6189,-6.6399,-6.4721,-6.3672,-6.4528,-6.4271,-6.3727,-6.3047,-6.2876,-6.2069,-6.0139,-5.9968,-5.9764,-5.9228,-5.926,-5.9354,-5.9281,-5.9187,-5.8945,-5.8402,-5.8688,-5.8569,-5.8046,-5.8176,-5.7851,-5.7022,-5.6176,-5.5779,-5.5779,-5.5337,-5.5189,-4.755,-4.723,-4.7695,-4.9669,0.0,0.0,-5.3471,-5.6839,-6.0235,0.0,-6.7202,-7.0395,0.0,0.0,0.0,0.0,0.0,0.0,0.0,0.0,0.0,0.0,0.0,0.0,0.0,-7.7827,-7.7304,-7.7014,-7.6317,-7.6056,-7.6508,-7.6538,-7.6346,-7.6056,-7.5708,-7.5243,-7.4721,-7.3995,-7.3472,-7.3182,-7.2805,-7.2602,-7.2602,-7.2602,-7.2602,-7.2602,-7.2602,-7.2602,-7.2602,-7.2602,-7.2602,-7.2602,-7.2602,-7.2602,-7.2602,-7.2602,-7.2602,-7.2573,-7.2195,-7.1905,-7.1486,-7.0383,-6.9916,-6.9562,-6.8401,-6.7879,-6.781,-6.8371,-6.8361,-6.854,-6.9959,-6.9756,-6.9204,-6.8902,-6.7783,-6.6492,-6.594,-6.5526,-6.5807,-6.7643,-6.6502,-6.5395,-6.5742,-6.3571,-6.1991,-6.2843,-6.2919,-6.2759,-6.2139,-6.2277,-6.1786,-6.0169,-6.0068,-5.9912,-5.9297,-5.9413,-5.9439,-5.9145,-5.914,-5.8876,-5.8335,-5.8521,-5.8529,-5.8232,-5.8139,-5.7721,-5.685,-5.6228,-5.5609,-5.509,-5.5041,-5.4892,-4.8769,-4.8362,-4.9175,-5.231,-5.0365,0.0,-5.4168,-5.6897,-5.9016,-6.1425,-6.6447,0.0,0.0,0.0,0.0,0.0,0.0,0.0,0.0,0.0,0.0,0.0,0.0,0.0,-7.7507,-7.7333,-7.7072,-7.6567,-7.6538,-7.6538,-7.6538,-7.6479,-7.6085,-7.5534,-7.5359,-7.475,-7.3618,-7.3531,-7.3211,-7.2602,-7.2559,-7.2559,-7.2559,-7.2488,-7.2488,-7.2559,-7.2559,-7.2559,-7.2559,-7.2559,-7.2559,-7.2602,-7.2602,-7.2602,-7.2602,-7.2602,-7.2559,-7.253,-7.2544,-7.2195,-7.1689,-7.112,-7.0453,-6.9667,-6.8789,-6.8123,-6.7826,-6.8726,-6.83,-6.7925,-6.9578,-6.8902,-6.8089,-6.9121,-6.7242,-6.5477,-6.6597,-6.4271,-6.2596,-6.5025,-6.481,-6.4143,-6.4065,-6.1484,-5.9642,-6.0099,-6.0171,-6.0339,-6.0674,-6.0423,-6.0146,-5.9995,-6.0133,-5.9979,-5.9522,-5.9805,-5.981,-5.9276,-5.9138,-5.8889,-5.8349,-5.8404,-5.8404,-5.8404,-5.7868,-5.7278,-5.6661,-5.6424,-5.5756,-5.4591,-5.4915,-5.484,-5.1781,-5.202,-5.2078,-5.0743,0.0,0.0,-4.9301,-5.0598,-5.2804,0.0,-5.562,0.0,0.0,0.0,0.0,0.0,0.0,0.0,0.0,0.0,0.0,0.0,0.0,0.0,-7.742,-7.6956,-7.6608,-7.6538,-7.6538,-7.6538,-7.6538,-7.5969,-7.565,-7.5504,-7.4518,-7.385,-7.3618,-7.3066,-7.2747,-7.2602,-7.2345,-7.2201,-7.2201,-7.1841,-7.1869,-7.2201,-7.2201,-7.2201,-7.2201,-7.2201,-7.2345,-7.2602,-7.2602,-7.2602,-7.2602,-7.2602,-7.2416,-7.2215,-7.1979,-7.1966,-7.1783,-7.0321,-6.9974,-6.9827,-6.823,-6.7495,-6.7478,-6.8327,-6.7469,-6.6562,-6.7947,-6.804,-6.7111,-6.4168,-6.4427,-6.4396,-6.1602,-6.1484,-6.2059,-6.2596,-6.2487,-6.2429,-6.2349,-6.1072,-6.0051,-6.0147,-6.0171,-6.0255,-6.0339,-6.0255,-6.0207,-6.0194,-6.0183,-6.0123,-6.0027,-6.0111,-5.9953,-5.9423,-5.9384,-5.9095,-5.8563,-5.8863,-5.9001,-5.9001,-5.8788,-5.7999,-5.6712,-5.6167,-5.5873,-5.5658,-5.5404,-5.525,0.0,0.0,0.0,-5.2339,0.0,0.0,0.0,-5.0481,-5.2281,-5.292,-5.4575,0.0,0.0,0.0,0.0,0.0,0.0,0.0,0.0,0.0,0.0,0.0,0.0,0.0,-7.6956,-7.6637,-7.6538,-7.6538,-7.6538,-7.6317,-7.5998,-7.5679,-7.5214,-7.4576,-7.3937,-7.3443,-7.3124,-7.2776,-7.2559,-7.2345,-7.2201,-7.1985,-7.1797,-7.1579,-7.1579,-7.1797,-7.1797,-7.1797,-7.1797,-7.1797,-7.1942,-7.2057,-7.2057,-7.2057,-7.2057,-7.2057,-7.1942,-7.1812,-7.164,-7.1654,-7.161,-7.062,-7.0107,-6.9677,-6.837,-6.7692,-6.7312,-6.72,-6.6209,-6.5326,-6.6282,-6.587,-6.4925,-6.3512,-6.343,-6.2999,-6.1078,-6.0203,-5.9982,-6.0523,-6.04,-6.0527,-6.1386,-6.0531,-5.9786,-5.9786,-6.0003,-6.0171,-6.0171,-6.0171,-6.0171,-6.0171,-6.0171,-6.0171,-6.0171,-6.0171,-5.9955,-5.9426,-5.9378,-5.9161,-5.8608,-5.8747,-5.879,-5.8524,-5.8387,-5.7824,-5.6903,-5.6493,-5.6103,-5.5718,-5.5487,-5.5385,0.0,0.0,0.0,0.0,0.0,-5.2455,0.0,0.0,0.0,0.0,0.0,0.0,0.0,0.0,0.0,0.0,0.0,0.0,0.0,0.0,0.0,0.0,0.0,0.0,0.0,-7.5446,-7.594,-7.6433,-7.6346,-7.6056,-7.5534,-7.5272,-7.4663,-7.3647,-7.3501,-7.3153,-7.2631,-7.2559,-7.2345,-7.2057,-7.1913,-7.1725,-7.1361,-7.1288,-7.1288,-7.1361,-7.1361,-7.1361,-7.1361,-7.1361,-7.1361,-7.1288,-7.1434,-7.1507,-7.1507,-7.1507,-7.1434,-7.1434,-7.1434,-7.1434,-7.1361,-7.0996,-6.9971,-6.8753,-6.7953,-6.7289,-6.6624,-6.5565,-6.4698,-6.4195,-6.4453,-6.3648,-6.2846,-6.3278,-6.2669,-6.1888,-6.1365,-5.956,-5.8367,-5.9209,-5.9041,-5.9219,-6.0521,-6.0123,-5.9546,-5.9546,-5.9907,-6.0171,-6.0171,-6.0171,-6.0171,-6.0171,-6.0171,-6.0171,-6.0171,-6.0171,-6.0003,-5.957,-5.9546,-5.9353,-5.8921,-5.8897,-5.8656,-5.8127,-5.8096,-5.7805,-5.7333,-5.7176,-5.6643,-5.5698,-5.5698,-5.5698,0.0,0.0,0.0,0.0,-5.8523,0.0,0.0,0.0,-5.1033,-4.8141,0.0,0.0,0.0,0.0,0.0,0.0,0.0,0.0,0.0,0.0,0.0,0.0,0.0,0.0,0.0,-7.1731,-7.3995,-7.6363,-7.594,-7.5592,-7.5504,-7.443,-7.3763,-7.3618,-7.3037,-7.2689,-7.2602,-7.2345,-7.2129,-7.2057,-7.1405,-7.0967,-7.0996,-7.06,-7.06,-7.0996,-7.0996,-7.0996,-7.0996,-7.0996,-7.0747,-7.0526,-7.1215,-7.1507,-7.1507,-7.1507,-7.1288,-7.0996,-7.1361,-7.1288,-7.0996,-7.0922,-6.8919,-6.6274,-6.5036,-6.4654,-6.4346,-6.3328,-6.3252,-6.3311,-6.2538,-6.2482,-6.212,-5.9854,-6.0947,-6.1939,-5.9504,-5.9109,-5.9233,-5.9353,-5.9329,-5.9364,-5.9529,-5.9905,-6.0075,-6.0075,-6.0123,-6.0171,-6.0171,-6.0171,-6.0171,-6.0171,-6.0171,-6.0171,-6.0171,-6.0171,-6.0147,-6.0075,-6.0075,-6.0051,-6.0003,-6.0003,-5.9738,-5.9209,-5.9549,-5.9283,-5.8416,-5.829,-5.7757,-5.6828,-5.6828,-5.6828,0.0,0.0,0.0,0.0,0.0,0.0,-5.5997,0.0,-5.0133,0.0,0.0,0.0,0.0,0.0,0.0,0.0,-4.8943,0.0,0.0,0.0,0.0,0.0,0.0,0.0,0.0,0.0,0.0,0.0,-7.1644,-7.1092,-7.1092,-7.2689,-7.3443,-7.3037,-7.2776,-7.2488,-7.2345,-7.2129,-7.1841,-7.1405,-7.1069,-7.0747,-7.0526,-7.0378,-7.0378,-7.0526,-7.0526,-7.0526,-7.0526,-7.0526,-7.0452,-7.0304,-7.0673,-7.082,-7.082,-7.082,-7.0673,-7.06,-7.0747,-7.0673,-7.0413,-6.9781,-6.7967,-6.5877,-6.4581,-6.3519,-6.2672,-6.1891,-6.1631,-6.1469,-6.1039,-6.0874,-6.0456,-5.9326,-5.9932,-6.0456,-5.9302,-5.8993,-5.9113,-5.9714,-5.9594,-5.9474,-5.9786,-6.0027,-6.0075,-5.9762,-5.9979,-6.0171,-6.0171,-6.0171,-6.0171,-6.0171,-6.0171,-6.0171,-6.0171,-6.0171,-6.0171,-6.0171,-6.0171,-6.0171,-6.0171,-6.0171,-5.9931,-5.9402,-5.9543,-5.9278,-5.8608,-5.853,-5.8144,-5.7478,-5.7165,-5.7021,-6.6476,0.0,0.0,0.0,0.0,0.0,0.0,0.0,0.0,0.0,0.0,0.0,0.0,0.0,0.0,-4.8914,0.0,-4.8362,0.0,0.0,0.0,0.0,0.0,0.0,0.0,0.0,0.0,0.0,0.0,-6.7609,-6.7609,-7.1266,-7.3124,-7.2631,-7.2488,-7.2345,-7.2057,-7.1841,-7.1478,-7.0922,-7.0747,-7.06,-7.0304,-7.0304,-7.0304,-7.0304,-7.0304,-7.0304,-7.0304,-7.0304,-7.0304,-7.0304,-7.0304,-7.0304,-7.0304,-7.0304,-7.0304,-7.0304,-7.0304,-6.9895,-6.9337,-6.867,-6.6761,-6.455,-6.3821,-6.2518,-6.1196,-6.0201,-6.0043,-6.0118,-5.9704,-5.9353,-5.9161,-5.9161,-5.9281,-5.9378,-5.9378,-5.9209,-5.9257,-6.0027,-5.9859,-5.9714,-6.0099,-6.0171,-6.0051,-5.9666,-5.9931,-6.0171,-6.0171,-6.0171,-6.0171,-6.0171,-6.0171,-6.0171,-6.0171,-6.0171,-6.0171,-6.0171,-6.0171,-6.0171,-6.0171,-6.0171,-6.0003,-5.9618,-5.9594,-5.9402,-5.9041,-5.8872,-5.8608,-5.8223,-5.755,-5.7165,0.0,0.0,0.0,-6.4706,0.0,0.0,0.0,0.0,-5.4691,0.0,0.0,0.0,0.0,0.0,-5.1788,-4.9979,-5.0211,0.0,0.0,0.0,0.0,0.0,0.0,0.0,0.0,0.0,0.0,0.0,0.0,0.0,-6.6912,-7.057,-7.2631,-7.2602,-7.2273,-7.2129,-7.2057,-7.1333,-7.0922,-7.0922,-7.0526,-7.0304,-7.0304,-7.0304,-7.0304,-7.0304,-7.0304,-7.0304,-7.0304,-7.0304,-7.0304,-7.0304,-7.0304,-7.0304,-7.0304,-7.0304,-7.0304,-7.0304,-7.0304,-6.8891,-6.721,-6.8211,-6.5216,-6.1312,-6.1752,-6.112,-5.9797,-5.7722,-5.863,-5.9869,-5.8241,-5.8247,-5.8632,-5.8632,-5.9017,-5.9378,-5.9378,-5.9762,-6.0123,-6.0171,-6.0171,-6.0147,-6.0171,-6.0171,-6.0171,-6.0147,-6.0171,-6.0171,-6.0171,-6.0171,-6.0171,-6.0171,-6.0171,-6.0171,-6.0171,-6.0171,-6.0171,-6.0171,-6.0171,-6.0171,-6.0171,-6.0171,-6.0171,-6.0147,-6.0147,-6.0147,-6.0123,-5.9618,-5.9353,-5.9305,-5.8271,-5.7502,0.0,0.0,-7.2316,-6.9901,0.0,0.0,0.0,0.0,0.0,0.0,0.0,0.0,0.0,0.0,-5.2804,-4.9582,-4.9611,-4.8962,0.0,0.0,0.0,0.0,0.0,0.0,0.0,0.0,0.0,0.0,-5.7274,0.0,0.0,-6.448,-6.7988,-6.8421,-7.0549,-7.1579,-7.1333,-7.104,-7.0747,-7.0526,-7.0378,-7.0304,-7.0304,-7.0007,-6.9933,-6.9858,-6.9634,-6.9484,-6.9484,-6.9484,-6.9484,-6.9559,-6.9784,-6.9231,-6.8269,-6.8572,-6.8648,-6.8497,-6.7295,-6.7188,-6.7246,-6.5716,-6.3361,-6.0997,-6.0405,-5.9223,-5.8002,-5.7638,-5.7805,-5.8197,-5.8723,-5.8728,-5.8776,-5.9474,-5.9786,-5.9907,-5.9907,-6.0051,-6.0171,-6.0171,-6.0171,-6.0171,-6.0171,-6.0171,-6.0171,-6.0171,-6.0171,-6.0171,-6.0171,-6.0171,-6.0171,-6.0171,-6.0171,-6.0315,-6.0676,-6.1037,-6.1085,-6.0724,-6.1037,-6.1085,-6.07,-6.07,-6.07,-6.07,-6.0364,-6.0171,-6.0171,-6.0003,-5.9738,-5.9378,-5.8656,-5.8055,-7.3888,-7.3596,0.0,-7.1992,-6.8748,0.0,-6.4446,0.0,0.0,0.0,0.0,0.0,0.0,0.0,-5.5314,-5.1288,-4.9889,-4.8076,0.0,-4.4125,0.0,0.0,0.0,0.0,0.0,0.0,0.0,0.0,-5.2281,0.0,0.0,0.0,-6.5655,-6.6288,-6.9536,-7.1142,-7.0922,-7.0747,-7.0526,-7.0304,-7.0156,-7.0082,-7.0082,-6.9709,-6.9484,-6.9484,-6.9184,-6.9033,-6.8882,-6.8882,-6.8806,-6.8655,-6.8627,-6.7914,-6.704,-6.758,-6.7399,-6.6677,-6.5556,-6.5424,-6.5499,-6.4009,-6.1987,-6.0069,-5.9578,-5.8413,-5.7381,-5.7718,-5.743,-5.7333,-5.8752,-5.8704,-5.8632,-5.9883,-6.0027,-6.0003,-6.0364,-6.0315,-6.0171,-6.0171,-6.0171,-6.0171,-6.0171,-6.0171,-6.0171,-6.0171,-6.0171,-6.0171,-6.0171,-6.0171,-6.0171,-6.0171,-6.0171,-6.0388,-6.0917,-6.1301,-6.1446,-6.1277,-6.159,-6.1638,-6.1277,-6.1061,-6.1157,-6.1542,-6.0652,-6.0364,-6.0724,-6.0364,-6.0003,-5.9642,-5.9113,-5.8704]},{"header":{"parameterUnit":"m.s-1","parameterCategory":1,"la1":30.6,"la2":29.2853,"lo1":-89.7004,"lo2":-87.6739,"dy":0.0162,"dx":0.0183,"nx":112,"ny":82,"refTime":"2024-04-27T12:00:00:Z","depth":0,"parameterNumber":3,"parameterNumberName":"V-component_of_WINDS"},"data":[0.0,0.0,0.0,0.0,0.0,0.0,0.0,0.0,0.0,0.0,0.0,0.0,0.0,0.0,0.0,0.0,0.0,0.0,0.0,0.0,0.0,0.0,0.0,0.0,0.0,0.0,0.0,0.0,0.0,0.0,0.0,0.0,0.0,0.0,0.0,0.0,0.0,0.0,0.0,0.0,0.0,0.0,0.0,0.0,0.0,0.0,0.0,0.0,0.0,0.0,0.0,0.0,0.0,0.0,0.0,0.0,0.0,0.0,0.0,0.0,0.0,0.0,0.0,0.0,0.0,0.0,0.0,0.0,0.0,0.0,0.0,0.0,0.0,0.0,0.0,0.0,0.0,0.0,0.0,0.0,0.0,0.0,0.0,0.0,0.0,0.0,0.0,0.0,0.0,0.0,4.0514,4.4879,5.2302,5.6275,5.4602,5.2459,4.7702,3.9494,0.0,0.0,0.0,0.0,0.0,0.0,0.0,0.0,0.0,0.0,0.0,0.0,0.0,0.0,0.0,0.0,0.0,0.0,0.0,0.0,0.0,0.0,0.0,0.0,0.0,0.0,0.0,0.0,0.0,0.0,0.0,0.0,0.0,0.0,0.0,0.0,0.0,0.0,0.0,0.0,0.0,0.0,0.0,0.0,0.0,0.0,0.0,0.0,0.0,0.0,0.0,0.0,0.0,0.0,0.0,0.0,0.0,0.0,0.0,0.0,0.0,0.0,0.0,0.0,0.0,0.0,0.0,0.0,0.0,0.0,0.0,0.0,0.0,0.0,0.0,0.0,0.0,0.0,0.0,0.0,0.0,0.0,0.0,0.0,0.0,0.0,0.0,0.0,0.0,0.0,0.0,0.0,0.0,0.0,0.0,0.0,0.0,0.0,0.0,0.0,0.0,0.0,0.0,0.0,4.2683,5.1047,5.5308,5.7033,5.5752,5.1858,4.6813,4.054,0.0,0.0,0.0,0.0,0.0,0.0,0.0,0.0,0.0,0.0,0.0,0.0,0.0,0.0,0.0,0.0,0.0,0.0,0.0,0.0,0.0,0.0,0.0,0.0,0.0,0.0,0.0,0.0,0.0,0.0,0.0,0.0,0.0,0.0,0.0,0.0,0.0,0.0,0.0,0.0,0.0,0.0,0.0,0.0,0.0,0.0,0.0,0.0,0.0,0.0,0.0,0.0,0.0,0.0,0.0,0.0,0.0,0.0,0.0,0.0,0.0,0.0,0.0,0.0,0.0,0.0,0.0,0.0,0.0,0.0,0.0,0.0,0.0,0.0,0.0,0.0,0.0,0.0,0.0,0.0,0.0,0.0,0.0,0.0,0.0,0.0,0.0,0.0,0.0,0.0,0.0,0.0,0.0,0.0,0.0,0.0,0.0,0.0,0.0,0.0,0.0,0.0,0.0,4.2004,4.6159,5.353,5.604,5.6484,5.4707,5.089,4.6003,3.9886,3.7037,0.0,0.0,0.0,0.0,0.0,0.0,0.0,0.0,0.0,0.0,0.0,0.0,0.0,0.0,0.0,0.0,0.0,0.0,0.0,0.0,0.0,0.0,0.0,0.0,0.0,0.0,0.0,0.0,0.0,0.0,0.0,0.0,0.0,0.0,0.0,0.0,0.0,0.0,0.0,0.0,0.0,0.0,0.0,0.0,0.0,0.0,0.0,0.0,0.0,0.0,0.0,0.0,0.0,0.0,0.0,0.0,0.0,0.0,0.0,0.0,0.0,0.0,0.0,0.0,0.0,0.0,0.0,0.0,0.0,0.0,0.0,0.0,0.0,0.0,0.0,0.0,0.0,0.0,0.0,0.0,0.0,0.0,0.0,0.0,0.0,0.0,0.0,0.0,0.0,0.0,0.0,0.0,0.0,0.0,0.0,0.0,0.0,0.0,0.0,0.0,0.0,0.0,4.6473,4.9505,5.4733,5.6066,5.5726,5.3583,4.9819,4.5114,3.9285,3.5835,0.0,0.0,0.0,0.0,0.0,0.0,0.0,0.0,0.0,0.0,0.0,0.0,0.0,0.0,0.0,0.0,0.0,0.0,0.0,0.0,0.0,0.0,0.0,0.0,0.0,0.0,0.0,0.0,0.0,0.0,0.0,0.0,0.0,0.0,0.0,0.0,0.0,0.0,0.0,0.0,0.0,0.0,0.0,0.0,0.0,0.0,0.0,0.0,0.0,0.0,0.0,0.0,0.0,0.0,0.0,0.0,0.0,0.0,0.0,0.0,0.0,0.0,0.0,0.0,0.0,0.0,0.0,0.0,0.0,0.0,0.0,0.0,0.0,0.0,0.0,0.0,0.0,0.0,0.0,0.0,0.0,0.0,0.0,0.0,0.0,0.0,0.0,0.0,0.0,0.0,0.0,0.0,0.0,0.0,0.0,0.0,0.0,0.0,0.0,0.0,0.0,0.0,4.7466,5.1858,5.5465,5.5935,5.5282,5.353,4.8747,4.4016,3.9808,3.5312,0.0,0.0,0.0,0.0,0.0,0.0,0.0,0.0,0.0,0.0,0.0,0.0,0.0,0.0,0.0,0.0,0.0,0.0,0.0,0.0,0.0,0.0,0.0,0.0,0.0,0.0,0.0,0.0,0.0,0.0,0.0,0.0,0.0,0.0,0.0,0.0,0.0,0.0,0.0,0.0,0.0,0.0,0.0,0.0,0.0,0.0,0.0,0.0,0.0,0.0,0.0,0.0,0.0,0.0,0.0,0.0,0.0,0.0,0.0,0.0,0.0,0.0,0.0,0.0,0.0,0.0,0.0,0.0,0.0,0.0,0.0,0.0,0.0,0.0,0.0,0.0,0.0,0.0,0.0,0.0,0.0,0.0,0.0,0.0,0.0,0.0,0.0,0.0,0.0,0.0,0.0,0.0,0.0,0.0,0.0,0.0,0.0,0.0,0.0,0.0,0.0,0.0,4.663,5.0629,0.0,5.4837,5.387,5.1413,4.778,4.3598,3.8841,0.0,0.0,0.0,0.0,0.0,0.0,0.0,0.0,0.0,0.0,0.0,0.0,0.0,0.0,0.0,0.0,0.0,0.0,0.0,0.0,0.0,0.0,0.0,0.0,0.0,0.0,0.0,0.0,0.0,0.0,0.0,0.0,0.0,0.0,0.0,0.0,0.0,0.0,0.0,0.0,0.0,0.0,0.0,0.0,0.0,0.0,0.0,0.0,0.0,0.0,0.0,0.0,0.0,0.0,0.0,0.0,0.0,0.0,0.0,0.0,0.0,0.0,0.0,0.0,0.0,0.0,0.0,0.0,0.0,0.0,0.0,0.0,0.0,0.0,0.0,0.0,0.0,0.0,0.0,0.0,0.0,0.0,0.0,0.0,0.0,0.0,0.0,0.0,0.0,0.0,0.0,0.0,0.0,0.0,0.0,0.0,0.0,0.0,0.0,0.0,0.0,0.0,4.2422,4.6525,5.0289,0.0,5.3949,5.2851,5.0132,4.6421,4.2526,3.8423,0.0,0.0,0.0,0.0,0.0,0.0,0.0,0.0,0.0,0.0,0.0,0.0,0.0,0.0,0.0,0.0,0.0,0.0,0.0,0.0,0.0,0.0,0.0,0.0,0.0,0.0,0.0,0.0,0.0,0.0,0.0,0.0,0.0,0.0,0.0,0.0,0.0,0.0,0.0,0.0,0.0,0.0,0.0,0.0,0.0,0.0,0.0,0.0,0.0,0.0,0.0,0.0,0.0,0.0,0.0,0.0,0.0,0.0,0.0,0.0,0.0,0.0,0.0,0.0,0.0,0.0,0.0,0.0,0.0,0.0,0.0,0.0,0.0,0.0,0.0,0.0,0.0,0.0,0.0,0.0,0.0,0.0,0.0,0.0,0.0,0.0,0.0,0.0,0.0,0.0,0.0,0.0,0.0,0.0,0.0,0.0,0.0,0.0,0.0,0.0,0.0,0.0,4.2579,4.7545,5.1439,5.3191,5.3373,5.2433,5.008,4.4617,4.0592,0.0,0.0,0.0,0.0,0.0,0.0,0.0,0.0,0.0,0.0,0.0,0.0,0.0,0.0,0.0,0.0,0.0,0.0,0.0,0.0,0.0,0.0,0.0,0.0,0.0,0.0,0.0,0.0,0.0,0.0,0.0,0.0,0.0,0.0,0.0,0.0,0.0,0.0,0.0,0.0,0.0,0.0,0.0,0.0,0.0,0.0,0.0,0.0,0.0,0.0,0.0,0.0,0.0,0.0,0.0,0.0,0.0,0.0,0.0,0.0,0.0,0.0,0.0,0.0,0.0,0.0,0.0,0.0,0.0,0.0,0.0,0.0,0.0,0.0,0.0,0.0,0.0,0.0,0.0,0.0,0.0,0.0,0.0,0.0,0.0,0.0,0.0,0.0,0.0,0.0,0.0,0.0,0.0,0.0,0.0,0.0,0.0,0.0,0.0,0.0,0.0,0.0,0.0,4.2082,4.6604,5.0394,5.2537,5.238,5.1204,4.8878,4.4905,4.1272,3.8318,0.0,0.0,0.0,0.0,0.0,0.0,0.0,0.0,0.0,0.0,0.0,0.0,0.0,0.0,0.0,0.0,0.0,0.0,0.0,0.0,0.0,0.0,0.0,0.0,0.0,0.0,0.0,0.0,0.0,0.0,0.0,0.0,0.0,0.0,0.0,0.0,0.0,0.0,0.0,0.0,0.0,0.0,0.0,0.0,0.0,0.0,0.0,0.0,0.0,0.0,0.0,0.0,0.0,0.0,0.0,0.0,0.0,0.0,0.0,0.0,0.0,0.0,0.0,0.0,0.0,0.0,0.0,0.0,0.0,0.0,0.0,0.0,0.0,0.0,0.0,0.0,0.0,0.0,0.0,0.0,0.0,0.0,0.0,0.0,0.0,0.0,0.0,0.0,0.0,0.0,0.0,0.0,0.0,0.0,0.0,0.0,0.0,0.0,0.0,0.0,0.0,0.0,4.2186,4.6552,5.0106,5.1936,5.1805,5.0681,4.8381,4.5009,4.1559,3.8109,0.0,0.0,0.0,0.0,0.0,0.0,0.0,0.0,0.0,0.0,0.0,0.0,0.0,0.0,0.0,0.0,0.0,0.0,0.0,0.0,0.0,0.0,0.0,0.0,0.0,0.0,0.0,0.0,0.0,0.0,0.0,0.0,0.0,0.0,0.0,0.0,0.0,0.0,0.0,0.0,0.0,0.0,0.0,0.0,0.0,0.0,0.0,0.0,0.0,0.0,0.0,0.0,0.0,0.0,0.0,0.0,0.0,0.0,0.0,0.0,0.0,0.0,0.0,0.0,0.0,0.0,0.0,0.0,0.0,0.0,0.0,0.0,0.0,0.0,0.0,0.0,0.0,0.0,0.0,0.0,0.0,0.0,0.0,0.0,0.0,0.0,0.0,0.0,0.0,0.0,0.0,0.0,0.0,0.0,0.0,0.0,0.0,0.0,0.0,0.0,0.0,0.0,4.2579,4.6917,5.0185,5.1387,5.1465,5.0524,4.8303,4.4983,4.1559,3.8109,0.0,0.0,0.0,0.0,0.0,0.0,0.0,0.0,0.0,0.0,0.0,0.0,0.0,0.0,0.0,0.0,0.0,0.0,0.0,0.0,0.0,0.0,0.0,0.0,0.0,0.0,0.0,0.0,0.0,0.0,0.0,0.0,0.0,0.0,0.0,0.0,0.0,0.0,0.0,0.0,0.0,0.0,0.0,0.0,0.0,0.0,0.0,0.0,0.0,0.0,0.0,0.0,0.0,0.0,0.0,0.0,0.0,0.0,0.0,0.0,4.6316,0.0,0.0,0.0,0.0,0.0,0.0,0.0,0.0,0.0,0.0,0.0,0.0,0.0,0.0,0.0,0.0,0.0,0.0,0.0,0.0,0.0,0.0,0.0,0.0,0.0,0.0,0.0,0.0,0.0,0.0,0.0,0.0,0.0,0.0,0.0,0.0,0.0,0.0,0.0,0.0,0.0,4.2108,4.5976,4.9165,5.0786,5.0551,4.9505,4.7675,4.4748,4.1559,3.8109,3.5704,0.0,0.0,0.0,0.0,0.0,0.0,0.0,0.0,0.0,0.0,0.0,0.0,0.0,0.0,0.0,0.0,0.0,0.0,0.0,0.0,0.0,0.0,0.0,0.0,0.0,0.0,0.0,0.0,0.0,0.0,0.0,0.0,0.0,0.0,0.0,0.0,0.0,0.0,0.0,0.0,0.0,0.0,0.0,0.0,0.0,0.0,0.0,0.0,0.0,0.0,0.0,0.0,0.0,0.0,0.0,0.0,0.0,0.0,0.0,0.0,4.9087,0.0,0.0,0.0,0.0,0.0,0.0,0.0,0.0,0.0,0.0,0.0,0.0,0.0,0.0,0.0,0.0,0.0,0.0,0.0,0.0,0.0,0.0,0.0,0.0,0.0,0.0,0.0,0.0,0.0,0.0,0.0,0.0,0.0,0.0,0.0,0.0,0.0,0.0,0.0,0.0,4.2343,4.6107,4.9061,5.0237,5.008,4.9191,4.7435,4.4931,4.2082,3.8919,3.6515,0.0,0.0,0.0,0.0,0.0,0.0,0.0,0.0,0.0,0.0,0.0,0.0,0.0,0.0,0.0,0.0,0.0,0.0,0.0,0.0,0.0,0.0,0.0,0.0,0.0,0.0,0.0,0.0,0.0,0.0,0.0,0.0,0.0,0.0,0.0,0.0,0.0,0.0,0.0,0.0,0.0,0.0,0.0,0.0,0.0,0.0,0.0,0.0,0.0,0.0,0.0,0.0,0.0,6.0117,6.1058,6.1319,6.145,6.1555,6.145,5.8601,5.5857,5.3295,5.2067,0.0,0.0,0.0,0.0,0.0,0.0,0.0,0.0,0.0,0.0,0.0,0.0,0.0,0.0,0.0,0.0,0.0,0.0,0.0,0.0,0.0,0.0,0.0,0.0,4.8669,4.7885,0.0,0.0,0.0,0.0,0.0,0.0,0.0,0.0,0.0,0.0,0.0,0.0,4.2657,4.6342,4.9035,4.9688,4.9662,4.893,4.7336,4.5245,4.2814,3.9939,3.7743,3.5521,0.0,0.0,0.0,0.0,0.0,0.0,0.0,0.0,0.0,0.0,0.0,0.0,0.0,0.0,0.0,0.0,0.0,0.0,0.0,0.0,0.0,0.0,0.0,0.0,0.0,0.0,0.0,0.0,0.0,0.0,0.0,0.0,4.744,4.9505,0.0,0.0,0.0,0.0,0.0,0.0,0.0,0.0,0.0,0.0,0.0,0.0,0.0,5.8,5.9307,6.3437,6.5345,6.5083,6.8743,6.9997,6.9135,6.9605,7.0102,7.0572,7.0102,0.0,5.6919,5.5203,0.0,0.0,0.0,0.0,0.0,0.0,0.0,0.0,0.0,0.0,0.0,0.0,0.0,0.0,0.0,0.0,0.0,0.0,0.0,0.0,0.0,0.0,5.0054,5.0289,5.0446,5.0054,0.0,4.5584,4.2866,4.054,3.939,0.0,0.0,0.0,0.0,0.0,0.0,0.0,4.2108,4.5375,4.7989,4.9087,4.8721,4.7911,4.6708,4.5401,4.3415,4.0488,3.9076,3.7325,3.5051,3.3927,0.0,0.0,0.0,0.0,0.0,0.0,0.0,0.0,0.0,0.0,0.0,0.0,0.0,0.0,0.0,0.0,0.0,0.0,0.0,0.0,0.0,0.0,0.0,0.0,0.0,0.0,0.0,0.0,0.0,4.8486,5.0524,4.9897,5.0864,5.0551,0.0,0.0,0.0,0.0,0.0,0.0,0.0,0.0,0.0,6.0771,6.2469,6.4351,6.6495,6.9474,7.1173,7.1618,7.4049,7.512,7.4937,7.5172,7.5434,7.5669,7.5355,7.2376,6.741,6.2443,5.8261,5.4707,0.0,0.0,0.0,0.0,5.1309,5.2276,5.455,5.5125,0.0,5.4916,0.0,0.0,0.0,0.0,0.0,0.0,0.0,0.0,0.0,0.0,5.2877,5.3504,5.4158,5.4341,5.3164,5.0707,4.7466,0.0,4.2239,4.1428,3.9285,0.0,0.0,0.0,0.0,4.1821,4.3023,4.5872,4.8015,4.8538,4.8041,4.7388,4.6552,4.5114,4.3441,4.1507,3.9703,3.7978,3.6332,3.5155,3.4241,0.0,0.0,0.0,0.0,0.0,0.0,0.0,0.0,0.0,0.0,0.0,0.0,0.0,0.0,0.0,0.0,0.0,0.0,0.0,0.0,0.0,0.0,0.0,0.0,0.0,0.0,0.0,0.0,5.1701,5.3426,5.11,5.4001,5.4314,0.0,0.0,0.0,0.0,0.0,0.0,5.8235,6.0823,6.3881,6.7488,6.9004,7.0912,7.3369,7.512,7.6427,7.7263,7.8309,7.9015,7.9433,7.9433,7.9433,7.9381,7.8806,7.7812,7.6035,6.8821,6.3567,5.9751,5.6432,5.4602,5.3922,5.4942,5.5595,5.6432,5.9568,6.03,5.9725,5.9176,5.732,5.4602,5.0864,0.0,0.0,0.0,0.0,5.0002,5.2145,5.3792,5.5203,5.6484,5.7346,5.7608,5.6588,5.4916,5.1962,0.0,4.5297,4.4382,4.1742,0.0,0.0,0.0,0.0,4.297,4.3808,4.6264,4.7963,4.7963,4.7466,4.6891,4.6316,4.4931,4.3598,4.2448,4.0644,3.9024,3.7717,3.641,3.526,3.4267,0.0,0.0,0.0,0.0,0.0,0.0,0.0,0.0,0.0,0.0,0.0,0.0,0.0,0.0,0.0,0.0,0.0,0.0,0.0,0.0,0.0,0.0,0.0,0.0,0.0,0.0,0.0,0.0,0.0,5.5647,5.9124,0.0,0.0,0.0,0.0,5.6379,5.9594,6.2522,6.4796,6.8168,7.1121,7.35,7.5774,7.7525,7.8779,8.0505,8.1419,8.1472,8.2073,8.2387,8.2413,8.2413,8.2413,8.2387,8.1811,8.0583,7.8492,7.2088,6.8324,6.6181,6.1633,5.983,5.9673,5.8653,5.9359,6.0875,6.1633,6.1502,6.1476,6.409,6.1947,5.7739,5.4785,5.2694,0.0,0.0,5.2223,5.353,5.5255,5.617,5.7111,5.8784,5.881,5.8314,5.7712,5.7059,5.5203,0.0,4.7858,4.582,4.4016,0.0,4.2239,4.0618,4.2317,4.386,4.3912,4.5924,4.733,4.733,4.6865,4.629,4.5715,4.5062,4.4146,4.3049,4.2369,4.1246,3.9547,3.7821,3.6619,3.5992,3.4397,0.0,0.0,0.0,0.0,0.0,0.0,0.0,0.0,0.0,0.0,0.0,0.0,0.0,0.0,0.0,0.0,0.0,0.0,0.0,0.0,0.0,0.0,0.0,0.0,0.0,0.0,0.0,0.0,6.1999,6.558,0.0,6.1319,6.2234,6.3071,6.2914,6.6442,6.9291,7.086,7.3892,7.6453,7.8361,7.9956,8.1158,8.1942,8.2935,8.304,8.2334,8.2909,8.2988,8.2622,8.2622,8.2622,8.2622,8.2413,8.155,8.0008,7.6636,7.2925,6.9108,6.6704,6.4639,6.3045,6.3384,6.3907,6.4587,6.5528,6.5711,6.5292,6.3698,6.1058,5.8104,5.5961,5.4863,5.4524,5.5282,5.6066,5.6902,5.7895,5.8287,5.8523,5.8758,5.8653,5.8444,5.8261,5.7477,5.6327,5.4654,5.1596,4.8695,4.6944,4.5245,4.4042,4.3807,4.4487,4.5009,4.5009,4.6369,4.7179,4.6813,4.6264,4.5846,4.5637,4.4748,4.3676,4.2552,4.1246,4.0069,3.9076,3.7717,3.6724,3.6123,3.5182,3.4319,0.0,0.0,0.0,0.0,0.0,0.0,0.0,0.0,0.0,0.0,0.0,0.0,0.0,0.0,0.0,0.0,0.0,0.0,0.0,0.0,0.0,0.0,0.0,0.0,0.0,6.2287,6.6416,6.6782,7.0912,7.1931,6.7305,6.8978,7.018,6.9788,7.2768,7.5199,7.6558,7.8623,8.0478,8.1994,8.3171,8.3981,8.4347,8.4922,8.4739,8.3798,8.3772,8.3484,8.2909,8.2726,8.2622,8.2622,8.2622,8.2073,8.108,7.9747,7.6819,7.2977,7.0834,6.8847,6.7174,6.7357,6.7436,6.7514,6.8089,6.8272,6.7749,6.4482,6.213,6.0248,5.8706,5.7974,5.7817,5.8601,5.9098,5.949,5.9856,5.9803,5.9568,5.9176,5.8784,5.8523,5.8523,5.7921,5.7268,5.6876,5.4184,5.1387,4.9636,4.7911,4.6708,4.6525,4.6499,4.6499,4.6499,4.7153,4.7336,4.6552,4.6133,4.5689,4.5088,4.4487,4.352,4.1977,4.0801,3.9651,3.8475,3.7508,3.6724,3.6123,3.5574,3.4737,3.3587,0.0,0.0,0.0,0.0,0.0,0.0,0.0,0.0,0.0,0.0,0.0,0.0,0.0,0.0,0.0,0.0,0.0,0.0,0.0,0.0,0.0,0.0,0.0,6.0352,6.5894,6.9945,6.9997,7.5016,7.6715,7.2219,7.4833,7.6819,7.6819,7.8387,8.0086,8.1759,8.2439,8.3275,8.4373,8.5523,8.615,8.615,8.6647,8.6621,8.6046,8.4922,8.4059,8.3458,8.2909,8.2648,8.2622,8.2622,8.2308,8.1733,8.1106,7.9851,7.7917,7.397,7.2402,7.2114,7.0415,6.9736,6.9631,6.9056,6.879,6.856,6.6887,6.5554,6.4378,6.3254,6.2104,6.1163,6.1163,6.1163,6.1136,6.111,6.0666,6.0222,6.0169,5.9333,5.8523,5.8523,5.8497,5.8131,5.7033,5.5412,5.3687,5.1936,5.1152,5.0185,4.8486,4.8198,0.0,4.8146,4.8146,4.7728,4.6604,4.6499,4.5794,4.4096,4.4382,4.3702,4.1402,4.1219,4.0174,3.7952,3.7273,3.6671,3.6096,3.5574,3.4763,3.3639,0.0,0.0,0.0,0.0,0.0,0.0,0.0,0.0,0.0,0.0,0.0,0.0,0.0,0.0,0.0,0.0,0.0,0.0,0.0,0.0,0.0,6.1424,6.5031,6.5214,7.0703,7.5329,7.6976,8.006,8.1576,8.0295,8.1027,8.1602,8.1602,8.2805,8.3563,8.3641,8.4974,8.5863,8.6177,8.6935,8.7327,8.7327,8.7039,8.6412,8.5419,8.5105,8.4425,8.3484,8.3327,8.3014,8.2622,8.2622,8.2308,8.1707,8.0688,7.9485,7.8126,7.6192,7.4388,7.2768,7.1905,7.0781,6.9684,6.9527,6.9187,6.869,6.7802,6.6756,6.5658,6.49,6.3593,6.2365,6.2365,6.2051,6.1529,6.0692,6.0352,6.0013,5.9176,5.8732,5.8523,5.8523,5.7869,5.719,5.6876,5.5752,5.4445,5.3138,5.1361,4.9976,4.9505,4.8721,0.0,4.7623,4.7571,4.7283,4.6552,4.6839,4.6395,4.467,4.4278,4.2944,4.0252,3.8893,3.7717,3.6645,3.607,3.5678,3.5521,3.5365,3.5155,0.0,0.0,0.0,0.0,0.0,0.0,0.0,0.0,0.0,0.0,0.0,0.0,0.0,0.0,0.0,0.0,0.0,0.0,0.0,0.0,0.0,0.0,6.6939,7.1304,7.3029,7.6244,7.9433,8.223,8.4164,8.5366,8.5601,8.5628,8.5732,8.5994,8.6177,8.6229,8.6124,8.7065,8.751,8.7274,8.8085,8.8268,8.7797,8.7431,8.6699,8.5549,8.5053,8.4347,8.3484,8.3249,8.2935,8.2622,8.2622,8.2439,8.2047,8.0871,7.9982,0.0,0.0,0.0,0.0,0.0,7.0781,6.9657,6.9422,6.9108,6.8743,6.8168,6.7357,6.6521,6.592,6.456,6.3175,6.3175,6.2417,6.145,6.0771,6.0222,5.9699,5.9019,5.8679,5.8523,5.8523,5.7791,5.7085,5.685,5.5674,0.0,5.3556,5.2276,5.1126,5.0368,4.9479,4.8695,4.8146,4.7649,4.71,4.6552,4.6552,4.6029,4.4567,4.3859,0.0,0.0,0.0,3.7351,3.6515,3.6175,0.0,0.0,0.0,3.5887,3.5626,0.0,0.0,0.0,3.5077,3.5286,0.0,0.0,0.0,0.0,0.0,0.0,0.0,0.0,0.0,0.0,0.0,0.0,0.0,0.0,0.0,0.0,7.2611,7.7708,8.1785,8.1994,8.2883,8.5915,8.73,8.8189,8.8764,8.8738,8.8947,8.9548,8.866,8.8268,8.8686,0.0,0.0,0.0,0.0,8.9052,8.8085,8.7902,8.7248,8.6177,8.5053,8.419,8.3563,8.3066,8.2752,8.2622,8.2622,8.2622,8.2543,8.1367,8.0714,8.0165,7.6976,7.5016,7.3735,7.1592,7.0363,6.9736,6.9213,0.0,0.0,6.8168,6.7592,6.6965,6.6364,6.5005,6.3646,6.3515,6.2339,6.1084,6.0953,6.0143,5.9333,5.9281,5.8889,5.8523,5.8523,5.8026,5.7425,5.6902,5.5386,5.4027,5.3478,5.3243,5.2563,5.0943,5.0185,4.9584,4.8956,4.7989,4.71,4.6552,0.0,0.0,4.4068,4.3441,4.2317,4.0435,3.9128,3.7952,3.6933,3.6907,3.6907,3.6907,3.6959,3.675,3.6201,3.6332,3.6671,3.7194,3.6515,3.6253,0.0,0.0,0.0,0.0,0.0,0.0,0.0,0.0,0.0,0.0,0.0,0.0,0.0,0.0,0.0,7.1879,7.6715,8.1289,8.534,8.6595,8.7196,8.7431,8.8477,8.9391,8.9993,8.9601,8.9574,9.0202,9.0019,8.9731,8.9339,8.9784,9.0202,9.0568,8.9862,8.9627,8.9888,8.8503,8.7431,8.6725,0.0,0.0,8.4164,8.4059,8.351,8.2622,8.2622,8.2622,8.2543,8.1367,7.9799,7.7969,7.6349,7.5016,7.3839,7.248,7.1304,7.0415,7.0285,6.9631,6.8743,6.8168,6.7592,6.6887,6.5867,6.4665,0.0,6.2574,6.1738,6.0901,5.996,5.9542,5.9255,5.8784,5.8601,5.8523,5.8523,5.7712,5.6928,5.6824,5.5386,5.4027,5.3478,5.2223,5.1021,5.0185,4.9584,4.8852,4.7806,4.7409,4.71,4.6552,4.6787,4.6342,4.4722,4.4042,4.2579,3.9939,3.7769,3.6515,3.6279,3.6279,3.6279,3.6279,3.675,3.6959,3.6828,3.7769,3.8266,3.8344,3.7325,3.709,0.0,0.0,0.0,0.0,0.0,0.0,0.0,0.0,0.0,0.0,0.0,6.111,6.2548,0.0,7.3186,7.7237,8.1027,8.4582,8.7745,8.8947,8.9287,8.8712,8.9914,9.0934,9.1221,9.1221,9.1456,9.2084,9.1822,9.1404,9.0829,9.1117,9.096,9.0385,9.0123,8.981,8.9496,8.8372,8.7353,8.649,8.5628,8.4765,8.3903,8.3615,8.3171,8.2622,8.2334,8.2204,8.2099,8.0635,7.8832,7.6924,7.5774,7.4597,7.3395,7.1958,7.0886,7.0102,6.9814,6.9344,6.8607,6.7854,6.7357,6.6834,6.5397,6.4351,6.3437,6.2287,6.1346,6.0483,5.9594,5.915,5.8862,5.8575,5.8523,5.8444,5.8157,5.7425,5.6719,5.6405,5.4968,5.3713,5.3452,5.2171,5.0995,5.042,4.9845,4.9191,4.8329,4.744,4.6787,4.6499,4.6212,4.5689,4.4826,4.3676,4.216,4.0148,3.837,3.7403,3.7403,3.7142,3.7011,3.7011,3.756,3.7848,3.7848,3.8736,3.9155,3.9155,3.8579,3.8475,0.0,0.0,0.0,0.0,0.0,0.0,0.0,5.7399,5.8836,6.0065,6.3541,6.7017,6.9108,7.3944,7.8675,8.1916,8.4765,8.7274,8.9235,9.0228,9.0489,8.9757,9.1195,9.2267,9.2267,9.2659,9.3181,9.373,9.3181,9.2633,9.2293,9.1927,9.1195,8.9862,9.0123,8.9757,8.879,8.8137,8.7222,8.6072,8.5026,8.4138,8.3458,8.3014,8.2726,8.2596,8.2021,8.1707,8.1472,7.972,7.8126,7.6636,7.5277,7.3996,7.2768,7.1304,7.0311,6.9631,6.9161,6.8952,6.8581,6.7645,6.72,6.6756,6.5057,6.4142,6.3384,6.2025,6.0953,6.0065,5.9385,5.8862,5.8523,5.8523,5.8523,5.8366,5.7861,5.7216,5.6641,5.604,5.4628,5.353,5.3426,5.2485,5.1544,5.089,5.0289,4.9636,4.8982,4.7492,4.6447,4.6316,4.5349,4.4696,4.4565,4.3075,4.1716,4.0644,3.952,3.8841,3.871,3.8292,3.8057,3.8057,3.8475,3.8762,3.8893,3.9468,3.9756,3.9782,3.9886,3.9834,5.5804,5.4419,5.4053,5.6405,5.6798,5.8314,0.0,6.5345,6.5449,6.9108,7.1513,7.3343,7.4624,7.8335,8.1994,8.4425,8.6778,8.8607,8.9391,9.0907,9.1482,9.0411,9.1822,9.2816,9.2816,9.2894,9.3181,9.373,9.2816,9.2371,9.2816,9.1404,9.0751,9.1012,9.0123,8.9548,8.9391,8.8346,8.7222,8.6072,8.5419,8.453,8.3484,8.3406,8.3118,8.2596,8.2021,8.1472,8.0844,7.9119,7.7995,7.7159,7.4963,7.3395,7.2297,7.1592,7.0624,6.9684,6.9631,6.9265,6.8743,6.8115,6.754,6.6756,6.5057,6.4142,6.3227,6.1032,6.0326,5.996,5.8889,5.8549,5.8523,5.8523,5.8523,5.8366,5.7861,5.7216,5.6641,5.604,5.4942,5.3949,5.3478,5.2825,5.204,5.0943,5.0289,4.9505,4.8433,4.7231,4.629,4.5767,4.5114,4.4513,4.4016,4.2918,4.1899,4.1246,4.0148,3.9259,3.8736,3.8658,3.8632,3.8632,3.8684,3.8972,3.952,4.0069,4.0331,4.0331,4.088,4.0592,5.834,5.7895,5.8261,5.9777,6.226,6.5214,6.8716,7.0232,7.1487,7.35,7.6375,7.8884,8.0034,8.3249,8.6281,8.7954,8.9574,9.0489,9.0045,9.0332,9.0019,8.8529,8.9574,9.0934,9.2293,9.2737,9.3181,9.373,9.3025,9.2554,9.245,9.1117,9.0332,9.0228,8.9757,8.9496,8.9496,8.8372,8.7379,8.6542,8.5288,8.4268,8.3484,8.3145,8.2491,8.1602,8.1367,8.0557,7.9276,7.7891,7.6793,7.58,7.4127,7.2794,7.1696,7.1147,7.0206,6.9213,6.9213,6.8821,6.8246,6.7645,6.707,6.6286,6.456,6.3855,6.3201,6.0875,6.0222,5.996,5.881,5.8523,5.8523,5.8523,5.8523,5.8366,5.7861,5.7216,5.6641,5.604,5.4733,5.3556,5.2981,5.238,5.1701,5.0917,5.0289,4.9714,4.9244,4.7597,4.6133,4.5192,4.4824,4.4643,4.4382,4.3624,4.3049,4.2814,4.1402,4.0488,4.0226,3.9259,3.8867,3.9233,3.9233,3.952,4.0095,4.0644,4.0932,4.0958,4.1193,4.1063,5.9699,6.0457,6.1947,6.3489,6.741,7.12,7.2454,7.4597,7.661,7.7656,8.0322,8.2883,8.419,8.6856,8.9235,9.0411,9.1456,9.1718,9.0568,8.9888,8.8607,8.6229,8.6542,8.7693,8.9548,9.1221,9.245,9.3077,9.2554,9.211,9.1848,9.0777,8.994,8.9522,8.9496,8.9418,8.9261,8.8294,8.7327,8.6412,8.5,8.3955,8.3249,8.2831,8.2073,8.1106,8.0792,7.9851,7.8466,7.7159,7.6035,7.5016,7.3813,7.2559,7.133,7.0781,6.9945,6.9056,6.8899,6.8481,6.7906,6.7488,6.6861,6.5972,6.4404,6.3803,6.3227,6.1084,6.0352,5.9986,5.9019,5.8627,5.8523,5.8523,5.8523,5.8366,5.7861,5.7216,5.6641,5.604,5.468,5.3373,5.2616,5.2145,5.1596,5.089,5.042,5.008,4.9897,4.7885,4.6081,4.5088,4.4826,4.4668,4.4668,4.4199,4.3912,4.3912,4.2552,4.1716,4.1559,4.0331,3.986,4.0305,4.0148,4.0357,4.0906,4.1167,4.1324,4.1324,4.1324,4.1324,5.9385,6.1032,6.3724,6.7645,7.1278,7.4624,7.7446,7.9015,8.0505,8.2779,8.3798,8.4765,8.6464,8.8268,8.9862,9.1012,9.1718,9.1718,9.0568,8.9888,8.8032,8.4059,8.3118,8.3066,8.3693,8.7823,9.0672,9.1221,9.0777,9.0672,9.1195,9.0149,8.9522,8.9496,8.9496,8.9208,8.8633,8.8085,8.6935,8.5236,8.4634,8.3746,8.2648,8.2648,8.2308,8.1681,8.0557,7.9694,7.9015,7.7316,7.6244,7.5565,7.4441,7.2925,7.133,7.0781,7.0206,6.9579,6.903,6.8481,6.7985,6.7958,6.72,6.605,6.4874,6.4116,6.3306,6.1581,6.0666,6.0091,5.949,5.8941,5.8523,5.8523,5.8523,5.8366,5.7861,5.7216,5.6641,5.604,5.4968,5.3818,5.2694,5.2485,5.2093,5.0969,5.076,5.0551,4.9976,4.7885,4.6264,4.5663,4.5033,4.4668,4.4668,4.4199,4.3912,4.3912,4.331,4.2709,4.2211,4.2133,4.2107,4.2133,4.1559,4.1533,4.2159,4.1585,4.1324,4.1324,4.1324,4.1324,6.1816,6.4743,6.8455,7.2898,7.6296,7.9224,8.1733,8.2622,8.3118,8.3903,8.3301,8.2935,8.3876,8.5157,8.6699,8.8633,9.0385,9.1221,9.0489,8.9888,8.7562,8.236,8.2282,8.1942,8.0217,8.3537,8.6987,8.9862,8.9522,8.9627,9.0594,8.9914,8.9496,8.9496,8.9496,8.9052,8.8085,8.7875,8.6725,8.4608,8.3667,8.3014,8.2622,8.223,8.1733,8.1106,7.9956,7.8701,7.7368,7.6035,7.4885,7.3866,7.2716,7.1931,7.1278,7.0337,6.9866,6.9605,6.903,6.822,6.7383,6.7383,6.6625,6.5475,6.4325,6.3829,6.3332,6.1607,6.098,6.0588,5.962,5.9228,5.8993,5.8601,5.8523,5.847,5.8261,5.7765,5.719,5.6615,5.5569,5.4314,5.2772,5.2485,5.2223,5.1439,5.0681,4.9845,4.8878,4.7754,4.6839,4.6264,4.5663,4.5323,4.5323,4.4774,4.4434,4.4434,4.3912,4.3493,4.3363,4.263,4.2211,4.2211,4.1611,4.1402,4.1611,4.1402,4.1507,4.1873,4.1873,4.2082,6.524,6.8926,7.2872,7.7081,8.0139,8.2569,8.4268,8.4478,8.4216,8.3824,8.2021,8.0583,8.0766,8.0897,8.1994,8.5131,8.6882,8.8294,8.9574,8.8555,8.6124,8.1994,8.1263,8.0452,7.8779,8.0269,8.3171,8.7614,8.8189,8.8738,8.9705,8.9601,8.9496,8.9496,8.9104,8.8529,8.7797,8.717,8.5915,8.4007,8.3066,8.2517,8.2308,8.1942,8.1236,8.0217,7.9276,7.7891,7.6218,7.5303,7.4205,7.3029,7.2088,7.1461,7.099,7.0049,6.9553,6.9344,6.8978,6.822,6.7383,6.7148,6.6469,6.5449,6.409,6.3672,6.3358,6.1842,6.1293,6.0901,5.9908,5.9516,5.9228,5.8653,5.8523,5.8523,5.8523,5.8052,5.7477,5.6928,5.5883,5.4602,5.3086,5.2459,5.204,5.1648,5.0629,4.9636,4.8878,4.812,4.7414,4.6839,4.6081,4.5581,4.5581,4.5033,4.4668,4.4668,4.4382,4.4173,4.4173,4.3467,4.3075,4.3075,4.2526,4.2239,4.2239,4.203,4.2108,4.2474,4.2474,4.2657,6.9501,7.3421,7.6845,8.0243,8.2726,8.4478,8.5026,8.4608,8.3772,8.2569,7.9956,7.7656,7.6976,7.5695,7.6218,8.074,8.1759,8.3563,8.8085,8.6386,8.4216,8.2909,8.0348,7.8832,7.9276,7.8309,7.9773,8.4843,0.0,8.7928,8.8607,8.9182,8.9496,8.9496,8.8424,8.7797,8.7693,8.5941,8.453,8.3484,8.2909,8.2334,8.1785,8.1733,8.0792,7.9119,7.8492,7.7263,7.5617,7.5042,7.4101,7.2977,7.2428,7.1539,7.0468,6.9866,6.9318,6.8764,6.8764,6.8455,6.7854,6.7279,6.6704,6.592,6.4195,6.3672,6.3437,6.2287,6.1581,6.1006,6.0378,5.9803,5.9255,5.8653,5.8523,5.8523,5.8523,5.8078,5.7529,5.6954,5.5883,5.468,5.3556,5.238,5.1596,5.157,5.0655,4.9949,4.9897,4.8878,4.7963,4.733,4.6286,4.5663,4.5581,4.5033,4.4668,4.4668,4.4668,4.4668,4.4668,4.4668,4.4722,4.4696,4.4147,4.3912,4.3833,4.3284,4.3049,4.3075,4.3075,4.3075,7.3787,7.7603,8.0844,8.3432,8.4216,8.4373,8.453,8.2779,8.0557,7.857,7.4807,7.12,6.8899,7.0572,7.3369,7.6715,8.1602,8.6281,9.0019,8.9914,8.8241,8.4922,8.3876,8.2831,8.1263,8.0844,8.2125,8.5601,8.5471,8.6412,8.913,8.9418,8.9496,8.9496,8.879,8.7797,8.6542,8.4373,8.3354,8.3484,8.2909,8.2334,8.1759,8.1315,8.04,7.9093,7.7656,7.6323,7.5042,7.3996,7.2872,7.1775,7.1252,7.0572,6.9866,6.9265,6.8978,6.8764,6.8764,6.8168,6.7305,6.7148,6.6416,6.5371,6.4064,6.3672,6.3437,6.2287,6.1868,6.1529,6.0483,6.0117,5.9751,5.8758,5.8523,5.8523,5.8523,5.8392,5.8131,5.7556,5.5804,5.4079,5.2929,5.2093,5.1465,5.1047,5.11,5.0864,5.0002,4.8878,4.7963,4.733,4.6682,4.6081,4.5663,4.5033,4.4668,4.4668,4.4668,4.4668,4.4668,4.4668,4.4539,4.4095,4.3938,4.3676,4.3232,4.3101,4.3232,4.365,4.365,4.3885,7.8126,8.1419,8.3981,8.5262,8.4948,8.3876,8.2099,8.006,7.7237,7.2637,6.8821,6.5423,6.2522,6.4456,6.7932,7.235,7.8257,8.4112,8.9339,8.9862,8.9156,8.764,8.6804,8.5837,8.4556,8.372,8.4373,8.6987,8.5889,8.6281,8.8947,8.9104,8.9104,8.9104,8.8058,8.6673,8.4974,8.3641,8.304,8.3092,8.2779,8.2177,8.1367,8.1027,7.9982,7.8361,0.0,7.58,7.4441,7.35,7.2585,7.1722,7.0912,7.0389,6.9997,6.9161,6.869,6.8507,6.8769,6.7932,6.6782,6.7017,6.6495,6.5554,6.4404,6.3881,6.3489,6.26,6.1999,6.145,6.0797,6.0222,5.9673,5.9045,5.8706,5.8523,5.8523,5.8523,5.834,5.7765,5.6196,5.4576,5.3452,5.2772,5.2093,5.1256,5.1204,5.1021,5.0368,4.9505,4.8616,4.778,4.7205,4.6734,4.6338,4.5555,4.5059,4.5059,4.4879,4.4668,4.4668,4.4668,4.4565,4.4251,4.4251,4.4095,4.3781,4.3781,4.3938,4.4251,4.4251,4.4408,8.2308,8.4765,8.6386,8.6229,8.5131,8.3066,7.9015,7.6741,7.3395,6.6076,6.2705,6.0195,5.7442,5.8627,6.2208,6.8638,7.4127,8.0191,8.7666,8.8398,8.8712,9.0228,8.913,8.8189,8.8032,8.6569,8.649,8.8555,8.7222,8.7013,8.8633,8.8633,8.8503,8.8268,8.6778,8.5157,8.351,8.3406,8.3118,8.2622,8.2543,8.1942,8.0871,8.0792,7.9564,7.742,7.6767,0.0,7.3944,7.3291,7.2663,7.2088,7.1017,7.0546,7.0337,6.9161,6.8429,6.8063,6.856,6.7697,6.6469,6.6939,6.6625,6.5841,6.4743,6.4012,6.3437,6.2862,6.1947,6.111,6.1032,6.0195,5.9333,5.9281,5.8862,5.8523,5.8523,5.8523,5.8314,5.7686,5.6719,5.5647,5.4419,5.3818,5.306,5.1779,5.1204,5.0838,5.0681,5.0159,4.9374,4.8303,4.7675,4.7252,4.7231,4.6316,4.5741,4.5741,4.5111,4.4853,4.4853,4.472,4.4668,4.4668,4.4668,4.4668,4.4668,4.4668,4.4668,4.4668,4.4668,4.4668,8.5471,8.7144,8.7928,8.6987,8.4817,8.1864,7.7839,7.3055,6.7749,6.1659,5.8209,5.5543,5.3086,5.6405,6.1738,6.8586,7.4467,8.0792,8.8294,8.9679,9.0045,9.0385,9.0515,9.0228,8.9287,8.8477,8.8372,8.9287,8.8189,8.8032,8.9287,8.8869,8.7954,8.6569,8.5758,8.4739,8.3484,8.3014,8.2726,8.2622,8.2151,8.155,8.0844,8.0374,7.9172,7.7394,7.6323,0.0,7.3918,7.2872,7.2088,7.1487,7.0834,7.0285,6.971,6.856,6.8063,6.8011,6.8115,6.7619,6.6965,6.707,6.6076,6.4717,6.4038,6.3437,6.2862,6.2287,6.1633,6.1006,6.0509,5.9882,5.9255,5.8758,5.8601,5.8523,5.8523,5.8523,5.8209,5.7163,5.6798,5.6118,5.4471,5.4131,5.3504,5.1858,5.1518,5.1126,5.0159,4.9557,4.8956,4.825,4.7675,4.7153,4.6656,4.6447,4.6316,4.6316,4.5794,4.5425,4.5425,4.4929,4.4668,4.4668,4.4668,4.4668,4.4668,4.4668,4.4668,4.4668,4.4668,4.4668,8.7693,8.866,8.8869,8.8006,8.4059,7.9015,7.3761,6.8089,6.2051,5.5386,5.2929,5.1439,4.9714,5.3635,5.8915,6.4351,6.9579,7.5878,8.4295,8.5732,8.7117,9.0411,9.13,9.1561,9.13,9.0489,9.0045,9.0385,8.9339,8.8921,8.947,8.8372,8.7065,8.5654,8.4765,8.4033,8.3484,8.2909,8.2622,8.2622,8.2047,8.1446,8.0844,7.9982,7.8806,7.7394,7.6218,0.0,7.3944,7.3081,7.2376,7.1775,7.0938,7.0415,7.0023,6.8873,6.8037,6.7566,6.788,6.741,6.6678,6.6678,6.6103,6.5292,6.4378,6.3724,6.3149,6.2574,6.179,6.1058,6.0771,6.0039,5.9307,5.9019,5.8732,5.8523,5.8523,5.8523,5.8366,5.7791,5.7451,5.6876,5.5752,5.5072,5.4184,5.2746,5.2276,5.1648,5.0498,5.0132,4.9636,4.8747,4.8407,4.8015,4.7414,4.71,4.6917,4.6917,4.6395,4.595,4.5637,4.5294,4.5007,4.4694,4.4668,4.4668,4.4668,4.4668,4.4668,4.4668,4.4668,4.4668,8.9052,8.9679,8.9627,8.866,8.3249,7.6479,7.0102,6.3803,5.732,5.0342,4.8695,4.8329,4.7649,5.1073,5.5595,6.0509,6.4639,7.052,7.9903,8.1759,8.4295,9.0123,9.1587,9.2293,9.2711,9.1822,9.1143,9.1038,9.0045,8.9391,8.9156,8.7719,8.6307,8.5053,8.4007,8.3432,8.3301,8.2857,8.2569,8.2439,8.1864,8.1263,8.0661,7.9511,7.844,7.7394,7.6218,0.0,0.0,7.3369,7.2794,7.2193,7.1043,7.0598,7.0442,6.9135,6.8063,6.7331,6.7671,6.72,6.6442,6.6312,6.6181,6.5867,6.4691,6.3959,6.3384,6.2809,6.1894,6.111,6.111,6.0248,5.9333,5.9202,5.8836,5.8523,5.8523,5.8523,5.8523,5.8523,5.8157,5.766,5.7085,5.6249,5.5229,5.3949,5.3243,5.2459,5.1309,5.1047,5.0577,4.9557,4.9348,4.9061,4.859,4.8041,4.7702,4.7702,4.7048,4.6473,4.5947,4.5872,4.5532,4.4877,4.4905,4.4853,4.4668,4.4668,4.4668,4.4668,4.4668,4.4668,8.9182,9.0228,9.0568,8.8398,8.2674,7.5878,6.9527,6.1973,5.4785,4.9374,4.744,4.6996,4.7937,4.9348,5.2903,6.064,6.3567,6.8246,7.8048,8.1655,8.4896,8.9156,9.1117,9.211,9.2188,9.1587,9.1012,9.0489,8.9862,8.9052,8.8006,8.7274,8.6124,8.4478,8.3798,8.3249,8.2726,8.2648,8.236,8.1838,8.1236,8.0661,8.006,7.891,7.8048,7.7394,7.6218,0.0,0.0,7.3369,7.2794,7.2193,7.1043,7.0598,7.0389,6.869,6.8011,6.7828,6.7331,6.7096,6.6939,6.6442,6.592,6.524,6.4116,6.3358,6.2783,6.2208,6.1607,6.111,6.111,6.0248,5.9228,5.8706,5.8549,5.8523,5.8523,5.8523,5.8523,5.8523,5.847,5.8261,5.7686,5.7573,5.685,5.5203,5.4419,5.3635,5.2485,5.1858,5.1282,5.0707,5.0132,4.9793,4.974,4.9244,4.893,4.893,4.7885,4.7174,4.7122,4.6682,4.6133,4.5558,4.5558,4.5271,4.4668,4.4668,4.4668,4.4668,4.4668,4.4668,8.8529,9.0306,9.0751,8.8764,8.1785,7.3813,6.7802,5.962,5.204,4.7571,4.6003,4.5794,4.6944,4.7806,5.0211,5.5883,5.6771,5.9934,6.9082,7.1644,7.5512,8.338,8.615,8.8529,9.13,9.1038,9.0489,8.9914,8.9313,8.8607,8.7849,8.7222,8.6098,8.4399,8.3772,8.3197,8.2648,8.2622,8.2334,8.1759,8.1158,8.0583,7.9982,7.8832,7.7995,7.7394,7.6218,0.0,0.0,7.3369,7.2794,7.2193,7.1043,7.0598,7.0415,6.903,6.8298,6.7906,6.7331,6.7096,6.6939,6.6024,6.605,6.6103,6.4247,6.3515,6.3149,6.2234,6.1816,6.1555,6.1215,6.0509,5.9725,5.915,5.9019,5.8941,5.8601,5.8523,5.8523,5.8523,5.8523,5.8444,5.8209,5.7895,5.732,5.6275,5.5334,5.4341,5.3191,5.2825,5.2459,5.1884,5.0995,5.0289,4.9923,4.9688,4.9557,4.9557,4.8826,4.8224,4.7858,4.731,4.6734,4.6159,4.582,4.5451,4.5216,4.485,4.4668,4.4668,4.4668,4.4877,8.615,8.8816,8.981,8.8241,8.074,7.2219,6.6442,5.8104,5.0472,4.6447,4.5085,4.5036,4.6029,4.6708,4.8303,5.2014,5.2485,5.5229,6.3384,6.5318,6.9187,7.8048,8.0844,8.385,8.8477,8.9653,8.9888,8.9287,8.8686,8.8111,8.7562,8.6987,8.5941,8.4373,8.3772,8.3197,8.2648,8.2622,8.2256,8.1498,8.108,8.04,7.9485,7.8518,7.776,7.7159,7.5983,0.0,0.0,7.3369,7.2794,7.2193,7.1043,7.0598,7.0442,6.9291,6.8586,6.8141,6.7383,6.7227,6.7174,6.6024,6.6207,6.6547,6.4717,6.4168,6.3881,6.2391,6.1973,6.1842,6.1267,6.0797,6.0352,5.9751,5.949,5.9255,5.8862,5.8627,5.8523,5.8523,5.8523,5.8523,5.8523,5.8183,5.7712,5.7137,5.6379,5.5386,5.4079,5.3896,5.3609,5.2851,5.204,5.1309,5.0707,5.0342,5.0159,5.0159,4.9636,4.9139,4.8695,4.8146,4.7571,4.6996,4.6421,4.6055,4.5872,4.5454,4.5166,4.4955,4.5166,4.548,8.1602,8.5209,8.7562,8.6412,7.9564,7.1618,6.5841,5.7817,5.0472,4.6447,4.5085,4.4905,4.5532,4.6107,4.744,5.0342,5.2694,5.6588,6.3567,6.6024,6.9056,7.4284,7.5957,7.8492,8.3118,8.717,8.9261,8.866,8.8111,0.0,8.6935,8.6386,8.5549,8.4373,8.3772,8.3197,8.2648,8.2622,8.2047,8.0897,8.0871,7.9982,7.8309,7.7734,7.7159,0.0,0.0,0.0,0.0,7.3369,7.2794,7.2193,7.1043,7.0598,7.0442,6.9291,6.8764,6.8664,6.7488,6.7488,6.7802,6.6652,6.6286,6.6181,6.5554,6.5371,6.49,6.26,6.1973,6.1842,6.1267,6.111,6.0953,6.0352,5.9777,5.9359,5.9359,5.8915,5.8523,5.8523,5.8523,5.8523,5.8523,5.8497,5.8314,5.7739,5.7704,5.7033,5.5308,5.5072,5.4654,5.3504,5.3373,5.3138,5.2511,5.1439,5.0786,5.0786,5.0211,4.9871,4.9871,4.9348,4.8773,4.8172,4.7597,4.7022,4.6473,4.6447,4.6159,4.5637,4.6186,4.6447,7.3526,7.6924,7.8884,7.6166,7.133,6.5946,6.098,5.5282,5.0028,4.6369,4.5085,4.485,4.5451,4.6081,4.8068,5.2955,5.4341,5.6536,6.1502,6.5397,6.9213,7.3212,7.993,8.5131,8.7379,8.8032,8.8398,8.8581,8.7379,8.6542,8.6359,8.5419,8.4713,8.4347,8.3772,8.3197,8.2648,8.2256,8.1655,8.0871,8.0086,7.9224,7.8309,7.7734,7.6924,0.0,0.0,0.0,0.0,7.2794,7.2454,7.2219,7.1461,7.0912,7.0494,6.971,6.9187,6.8743,6.7958,6.7828,6.7854,6.7096,6.7122,6.72,6.5815,6.5109,6.4482,6.2992,6.2548,6.2417,6.1842,6.1711,6.1555,6.098,6.0692,6.0352,5.9542,5.9542,5.9437,5.8653,5.8836,5.8967,5.8575,5.8523,5.8444,5.8261,5.7895,5.7547,5.6928,5.651,5.5987,5.5203,5.4785,5.4001,5.2616,5.2171,5.1779,5.1361,5.0812,5.0498,5.0498,4.9584,4.8982,4.8799,4.7832,4.7257,4.7074,4.6656,4.6395,4.6212,4.6787,4.7074,6.673,7.0337,7.2402,7.0677,6.6887,6.2469,5.8287,5.3609,4.9218,4.595,4.4929,4.4798,4.5164,4.5767,4.7414,5.123,5.2772,5.4889,5.8915,6.328,6.788,7.2872,8.04,8.5628,8.6804,8.7431,8.7849,8.7954,8.6569,8.5758,8.5758,8.4634,8.4007,8.4007,8.3667,8.3197,8.2648,8.2073,8.1472,8.0871,7.993,7.8962,7.7995,7.7629,7.6715,0.0,0.0,0.0,0.0,7.2533,7.2297,7.2245,7.1644,7.1069,7.052,6.9919,6.9344,6.8769,6.8194,6.8141,6.822,6.7619,6.754,6.741,6.6103,6.5005,6.4064,6.3358,6.2992,6.2705,6.213,6.1973,6.1894,6.1529,6.1293,6.0927,6.0169,6.0117,6.0013,5.9307,5.9437,5.9516,5.8941,5.8836,5.8758,5.8549,5.8209,5.7895,5.7756,5.7346,5.6902,5.6301,5.5935,5.5203,5.3896,5.3191,5.2668,5.2302,5.1753,5.1439,5.1439,5.0342,4.961,4.9401,4.8486,4.7885,4.7649,4.7074,4.6917,4.7127,4.7257,4.744,0.0,6.4796,6.72,6.8063,6.4691,6.03,5.6954,5.2433,0.0,4.5375,4.4748,4.472,4.4957,4.5323,4.595,4.6944,4.9348,5.2485,5.6432,6.0771,6.6312,7.3787,7.857,8.1681,8.2779,8.5784,8.7431,8.6882,8.5784,8.5105,8.5079,8.4007,8.3432,8.3432,8.338,8.3118,8.2569,8.1994,8.1419,8.0818,8.0191,7.9041,7.7473,7.7368,7.6427,0.0,0.0,0.0,0.0,7.2454,7.2245,7.2167,7.1592,7.1017,7.0468,6.9866,6.9291,6.8769,6.8194,6.8377,6.8743,6.8168,6.7592,6.6991,6.6442,6.5109,6.3776,6.3698,6.3306,6.2757,6.213,6.1973,6.1973,6.1973,6.1555,6.1163,6.1136,6.0718,6.0326,6.0248,6.0248,6.0091,5.9464,5.9359,5.9176,5.8601,5.8523,5.8314,5.7791,5.7782,5.7503,5.6928,5.6876,5.6615,5.604,5.4471,5.3504,5.3452,5.2903,5.2537,5.2485,5.1439,5.0577,4.9976,4.9427,4.8878,4.8303,4.7728,4.7728,4.8224,4.7675,4.7675,5.2406,0.0,5.6981,5.502,5.3975,5.2851,0.0,4.893,4.731,4.5741,4.5007,4.5271,4.7048,4.6421,4.7257,5.2276,5.3635,5.5177,5.8314,6.5658,7.3317,8.04,8.338,8.4974,8.5262,8.602,8.6438,8.6281,8.5183,8.4347,8.3903,8.3223,8.2831,8.2831,8.2413,8.2125,8.1968,8.1393,8.0792,8.0217,7.9198,7.8283,7.7446,7.6532,7.5434,0.0,0.0,0.0,7.2454,7.1853,7.1618,7.1565,7.099,7.0415,6.984,6.9265,6.8952,6.8769,6.8194,6.8377,6.8743,6.8168,6.7592,6.7017,6.6442,6.5684,6.4796,6.3933,6.3593,6.3254,6.2234,6.1973,6.1973,6.1973,6.1868,6.1659,6.1215,6.1346,6.1293,6.0405,6.0588,6.0588,5.9542,5.9359,5.9176,5.8601,5.8523,5.847,5.834,5.8314,5.8104,5.7529,5.7451,5.7216,5.6641,5.5438,5.4497,5.4053,5.3504,5.2981,5.2511,5.1805,5.1152,5.0603,5.0002,4.9636,4.9479,4.893,4.8747,4.8852,4.825,4.8041,4.8538,5.0812,5.2772,5.1753,5.1152,5.0472,4.9244,4.7702,4.6234,4.5346,4.4957,4.5192,4.6734,4.6473,4.7414,5.1648,5.3217,5.6013,6.2051,6.9265,7.6218,8.236,8.4634,8.5784,0.0,8.6098,8.5863,8.5314,8.4451,8.3798,8.351,8.2935,8.2517,8.2256,8.1942,8.1785,8.1785,8.0923,8.0191,7.9616,7.8753,7.7891,7.7054,7.6113,7.5094,0.0,0.0,0.0,7.2245,7.1644,7.1409,7.1356,7.0807,7.0232,6.9631,6.9056,6.8764,6.8716,6.788,6.7958,6.8455,6.8403,6.7802,6.707,6.6756,6.5867,6.4822,6.3933,6.3672,6.341,6.226,6.2156,6.2365,6.2365,6.2574,6.26,6.2025,6.2156,6.2104,6.1189,6.1293,6.1215,6.0326,6.0169,5.9882,5.9019,5.8915,5.881,5.8549,5.8523,5.8392,5.8078,5.8052,5.7921,5.7608,5.6771,5.5909,5.5046,5.421,5.3609,5.3295,5.2459,5.1622,5.0812,5.0211,4.9897,4.9897,4.9584,4.9453,4.9453,4.9113,4.8956,4.7774,4.9897,5.1936,5.2276,5.1439,5.0315,4.9427,4.7362,4.5425,4.4903,4.4853,4.5166,4.6107,4.6761,4.7832,4.9923,5.2485,5.7477,6.6834,7.2271,7.7081,8.1916,8.4164,0.0,8.5549,8.5811,8.5471,8.4295,8.3746,8.3432,8.3354,8.2883,8.236,8.1785,8.1602,8.1472,8.1367,8.04,7.9616,7.9041,7.8387,7.7499,7.6453,7.5774,7.4885,7.3839,0.0,0.0,7.2114,7.1513,7.1226,7.1095,7.0546,7.0023,6.9474,6.8821,6.8638,6.856,6.7462,6.741,6.7932,6.8429,6.7854,6.6965,6.6965,6.5841,6.4404,6.3829,6.362,6.3358,6.2469,6.2522,6.2835,6.294,6.3332,6.3541,6.3071,6.2888,6.2679,6.2182,6.2025,6.179,6.1215,6.111,6.0718,5.9542,5.9359,5.915,5.8601,5.8523,5.8523,5.8523,5.8523,5.8523,5.8523,5.8,5.7242,5.6249,5.5099,5.4393,5.421,5.3112,5.204,5.1073,5.0446,5.0159,5.0159,5.008,5.0028,5.0028,4.9923,4.9897,5.0159,5.2014,5.2223,4.8486,4.846,4.8799,4.6761,4.595,4.5555,4.5451,4.5425,4.6264,4.8773,4.9714,5.1335,5.502,5.9202,6.4534,7.1905,7.5303,7.8257,8.1524,8.4295,8.5209,8.3354,8.4478,8.4843,8.3693,8.3537,8.3275,8.2805,8.2674,8.236,8.1785,8.0818,8.006,7.9564,7.9381,7.9015,7.844,7.7368,7.6505,7.58,7.4754,7.3892,7.3212,0.0,7.2088,7.1513,7.0938,7.0415,6.9893,6.9344,6.9056,6.8847,6.7749,6.7671,6.8011,6.7331,6.7148,6.7253,6.7331,6.6939,6.6416,6.6416,6.5528,6.4404,6.3829,6.3332,6.3018,6.3332,6.3123,6.294,6.3437,6.362,6.3646,6.3567,6.3175,6.2809,6.2705,6.2313,6.179,6.1215,6.111,6.0718,5.9542,5.9359,5.915,5.8601,5.8523,5.8523,5.8523,5.8523,5.8523,5.8523,5.8,5.7651,5.7468,5.6301,5.5203,5.4236,5.3112,5.2406,5.2223,5.1648,5.1335,5.1335,5.0864,5.0655,5.0629,5.0132,4.9897,4.7937,4.9688,5.0629,4.8773,5.0342,5.1727,4.9401,4.8146,4.7675,4.8277,4.7937,4.8277,5.0838,5.2537,5.5386,6.1006,6.5789,7.0128,7.3918,7.6453,7.8989,8.189,0.0,8.4059,8.3589,8.3981,8.3929,8.3092,0.0,0.0,8.2648,8.2334,8.189,8.1315,8.0165,7.9302,7.8727,7.776,7.7159,7.6898,7.6087,7.5382,7.4754,7.3918,7.3369,7.3055,0.0,7.1644,7.133,7.0468,6.9945,6.9631,6.9082,6.8764,6.8743,6.788,6.7357,6.707,6.7096,6.7096,6.7096,6.7096,6.7148,6.7148,6.6808,6.592,6.5005,6.5057,6.3985,6.2888,6.3149,6.3254,6.3437,6.4012,6.4378,6.443,6.3803,6.3724,6.3463,6.2548,6.2391,6.226,6.1685,6.1581,6.1293,6.0431,6.0326,5.9986,5.9098,5.8967,5.8862,5.8549,5.8523,5.8523,5.8523,5.8261,5.7869,5.7242,5.6379,5.5543,5.4733,5.387,5.3269,5.2981,5.272,5.2406,5.2093,5.1831,5.1544,5.123,5.0943,5.0812,4.6813,4.8224,4.9636,5.0342,5.2197,5.3661,5.2798,5.1204,5.0368,5.204,5.1596,5.1387,5.3008,5.5935,6.0169,6.6469,7.1356,7.4754,7.5904,7.7943,8.0165,8.236,8.2857,8.3275,8.3876,8.3667,8.3249,8.2674,0.0,0.0,8.2439,8.189,8.1236,8.0505,7.9381,7.8492,7.7917,7.6192,7.546,7.5695,7.4885,7.4232,7.3787,7.3186,7.2846,7.2663,7.1775,7.1252,7.0938,7.0049,6.9631,6.9448,6.9004,6.869,6.8377,6.7802,6.6939,6.6129,6.6547,6.6704,6.6704,6.6861,6.7122,6.7305,6.6834,6.5998,6.524,6.558,6.4404,6.3097,6.3358,6.3646,6.4012,6.4587,6.5057,6.5109,6.409,6.4116,6.3907,6.2443,6.2417,6.2496,6.2051,6.1973,6.179,6.1215,6.111,6.0744,5.9699,5.9437,5.9202,5.8758,5.8601,5.8523,5.8523,5.8523,5.8131,5.7268,5.651,5.5883,5.5308,5.4733,5.4158,5.3583,5.3452,5.3164,5.2694,5.2694,5.2459,5.2014,5.2014,5.1936,5.0315,5.0917,5.0943,5.204,5.1282,5.1204,5.4785,5.387,5.3191,5.6552,5.6667,5.6118,5.5726,6.0614,6.6076,7.0337,7.4911,7.8335,7.9485,8.1184,8.2387,8.2596,8.3563,8.3824,8.2857,8.3197,8.3249,0.0,0.0,0.0,8.1864,8.1263,8.0426,7.9328,7.8178,7.7316,7.6741,7.499,7.465,7.5695,7.4022,7.3212,7.316,7.2611,7.2062,7.1513,7.1435,7.0807,6.9814,6.9736,6.9396,6.8899,6.879,6.8168,6.7148,6.6599,6.5998,6.5449,6.5501,6.5501,6.5606,6.6155,6.5998,6.5554,6.5528,6.5083,6.4482,6.4012,6.375,6.3855,6.4926,6.4848,6.4613,6.5188,6.5345,6.5214,6.4613,6.409,6.3541,6.2888,6.2365,6.2025,6.1973,6.1973,6.179,6.1215,6.111,6.0901,6.0248,5.9699,5.9333,5.9307,5.8836,5.8523,5.8523,5.8523,5.847,5.8392,5.7346,5.6484,5.5883,5.5334,5.4759,5.4158,5.3661,5.3373,5.3347,5.3347,5.3295,5.3269,5.3269,5.2955,4.8068,4.9061,5.0185,5.204,5.2276,5.3034,5.6693,5.7974,5.9281,6.2391,6.2862,6.2626,6.2391,6.5789,6.971,7.3003,7.6819,8.0034,8.1916,8.2439,8.2883,8.3615,8.3458,8.3249,8.3171,8.304,0.0,0.0,0.0,0.0,8.1785,8.0531,7.9616,7.9172,7.7708,7.6662,7.6061,7.4702,7.4049,7.4075,7.3081,7.2611,7.2585,7.201,7.1618,7.1356,7.0651,7.0102,6.9657,6.9318,6.903,6.8764,6.8764,6.835,6.7566,6.6991,6.6416,6.5946,6.5946,6.6181,6.6442,6.6312,6.6364,6.639,6.605,6.5528,6.5083,6.5266,6.5031,6.477,6.4822,6.4691,6.4665,6.524,6.5371,6.5214,6.4665,6.4639,6.4351,6.3071,6.294,6.2809,6.2104,6.1973,6.1894,6.1685,6.1659,6.1293,6.0352,6.0039,5.962,5.8915,5.8653,5.8523,5.8523,5.8523,5.8523,5.8523,5.7765,5.7242,5.7007,5.6092,5.5491,5.5282,5.4733,5.4262,5.3896,5.3896,5.3739,5.34,5.34,5.3508,4.6578,4.7205,4.8538,5.0838,5.2406,5.4733,5.9803,6.1894,6.3855,6.7645,6.7566,6.6991,6.754,6.9265,7.1539,7.4414,7.8074,8.1184,8.2962,8.2883,8.2909,8.372,8.3118,8.2779,8.3171,0.0,0.0,0.0,0.0,0.0,0.0,7.9485,7.8544,7.8361,7.7028,7.6061,7.546,7.4493,7.3709,7.3108,7.2559,7.2297,7.2271,7.167,7.1304,7.1095,7.0128,6.9579,6.9396,6.9004,6.8743,6.856,6.8377,6.7958,6.7383,6.6782,6.6442,6.6286,6.6286,6.6652,6.7017,6.6469,6.6547,6.6704,6.5946,6.558,6.5423,6.5658,6.5554,6.5292,6.49,6.4796,6.49,6.5292,6.524,6.4953,6.4378,6.443,6.4168,6.2809,6.3018,6.3097,6.213,6.213,6.2182,6.1999,6.1973,6.1685,6.0875,6.0614,6.0065,5.8915,5.8627,5.8523,5.8523,5.8523,5.8523,5.8523,5.8157,5.7843,5.773,5.6876,5.6379,5.6196,5.583,5.5334,5.4733,5.5353,5.509,5.3949,5.4601,5.4874,4.6813,4.6081,4.6212,4.8538,5.1309,5.57,6.4351,6.5423,6.6207,7.1984,7.0442,6.8612,7.0311,7.0651,7.1592,7.4467,7.8779,8.1968,8.2543,8.2622,8.2622,8.2622,8.2622,8.2622,0.0,0.0,0.0,0.0,0.0,0.0,0.0,7.8074,7.7185,7.661,7.6009,7.5434,7.4885,7.4284,7.3683,7.3081,7.2559,7.2297,7.2271,7.167,7.1095,7.0546,6.9945,6.937,6.8764,6.8764,6.8507,6.7932,6.7331,6.6756,6.6207,6.5606,6.5763,6.6286,6.6286,6.6652,6.7017,6.6469,6.6286,6.6076,6.49,6.4926,6.5266,6.4691,6.4953,6.5371,6.5371,6.5371,6.5371,6.5371,6.4953,6.4378,6.3803,6.3254,6.2679,6.2104,6.2443,6.2652,6.2077,6.2443,6.2626,6.2077,6.1973,6.1973,6.1973,6.1476,6.0666,5.949,5.8862,5.8523,5.8523,5.8523,5.8523,5.8523,5.8523,5.8261,5.7756,5.773,5.7399,5.6824,5.6798,5.651,5.5909,5.7919,5.7624,5.5191,5.7192,5.7439,4.7388,4.7257,4.8172,5.1335,5.4262,5.8549,6.6808,6.8403,6.9919,7.6087,7.593,7.4441,7.3761,7.4284,7.512,7.5957,7.8597,8.1027,8.2439,8.2622,8.2622,8.2622,8.2282,0.0,0.0,0.0,0.0,0.0,0.0,0.0,0.0,7.7499,7.6584,7.6009,7.5434,7.465,7.3656,7.3474,7.3081,7.2533,7.2376,7.2088,7.1644,7.1095,7.052,6.9919,6.9344,6.9004,6.8764,6.8764,6.8507,6.7958,6.7802,6.7148,6.6312,6.6495,6.6442,6.639,6.72,6.7592,6.7619,6.7044,6.6599,6.6129,6.5371,6.4979,6.4822,6.5057,6.524,6.5371,6.5371,6.5371,6.5371,6.5371,6.4953,6.4482,6.4325,6.4142,6.3855,6.328,6.3646,6.3855,6.328,6.2992,6.2914,6.3149,6.2835,6.2417,6.2025,6.111,6.0195,5.9437,5.9202,5.8941,5.8549,5.8523,5.8523,5.8523,5.8523,5.8444,5.8261,5.7869,5.7651,5.7425,5.7007,5.6719,5.6536,5.8134,5.8494,5.7744,5.803,5.8173,4.7179,4.7074,4.812,5.2067,5.57,6.0692,6.971,7.282,7.5094,7.9616,7.891,7.729,7.6715,7.661,7.6845,7.7525,7.9381,8.1158,8.2439,8.2622,8.2543,8.2308,0.0,0.0,0.0,0.0,0.0,0.0,0.0,0.0,0.0,7.6558,7.5774,7.5408,7.4833,7.4075,7.3108,7.3108,7.2846,7.2297,7.2062,7.1644,7.1069,7.0755,7.0259,6.9657,6.9082,6.8764,6.8764,6.8764,6.8377,6.7671,6.7906,6.7279,6.6338,6.6887,6.6887,6.6704,6.7383,6.7619,6.754,6.6965,6.6547,6.6181,6.5554,6.5136,6.4926,6.5292,6.5372,6.5267,6.5267,6.5266,6.5214,6.5345,6.477,6.4247,6.4482,6.4168,6.3829,6.3698,6.4142,6.4351,6.3776,6.3384,6.328,6.362,6.3201,6.2626,6.2051,6.1163,6.0352,5.9777,5.949,5.915,5.8549,5.8523,5.8523,5.8523,5.8523,5.8523,5.8523,5.8718,5.8854,5.8854,5.8509,5.8217,5.7978,5.9654,5.9917,5.8922,5.9968,6.0512,4.6499,4.6316,4.7283,5.1884,5.6902,6.3175,7.2611,7.7446,8.0426,8.2125,8.0086,7.8309,7.9224,7.8126,7.7577,7.9093,8.0661,8.1864,8.2387,8.2465,8.2282,0.0,0.0,0.0,0.0,0.0,0.0,0.0,0.0,0.0,0.0,7.5408,7.4807,7.4754,7.4205,7.363,7.3029,7.3029,7.2768,7.2219,7.167,7.1095,7.052,7.052,7.018,6.9579,6.9082,6.8764,6.8764,6.8795,6.8115,6.7174,6.7645,6.7174,6.6259,6.6808,6.7017,6.7017,6.7017,6.7044,6.6991,6.639,6.6233,6.6181,6.5554,6.5345,6.5318,6.5318,6.5188,6.5052,6.5052,6.499,6.501,6.5293,6.456,6.3827,6.4403,6.3646,6.3147,6.3723,6.4221,6.443,6.3855,6.3698,6.3646,6.362,6.3149,6.2626,6.213,6.1555,6.098,6.0378,5.9777,5.9202,5.8627,5.8549,5.8523,5.8523,5.8523,5.8523,5.8523,5.982,6.062,6.062,6.0756,6.0552,6.0075,6.203,6.1789,5.955,6.2587,6.3665,4.6708,4.8355,5.1413,5.6066,6.409,7.133,7.3081,7.6532,7.972,8.1001,8.1759,8.1994,8.1341,8.0923,8.0635,8.0531,8.0818,8.1106,8.1236,8.1263,8.121,0.0,0.0,0.0,0.0,0.0,0.0,0.0,0.0,0.0,7.5277,7.4597,7.3996,7.35,7.3369,7.3029,7.248,7.248,7.2167,0.0,7.1461,7.086,6.9893,6.9893,6.9579,6.903,6.8899,6.8764,6.8821,6.835,6.7749,6.707,6.6756,6.6207,6.5632,6.6233,6.6442,6.6442,6.6442,6.673,6.6913,6.5894,6.5894,6.6181,6.5554,6.5083,6.4717,6.4717,6.461,6.4498,6.4498,6.4698,6.49,6.4987,6.4433,6.3986,6.4263,6.4133,6.4133,6.479,6.5057,6.5031,6.4456,6.3985,6.3515,6.3071,6.2914,6.2783,6.2652,6.213,6.1581,6.098,6.0405,5.9803,5.9228,5.8758,5.8523,5.8523,5.8523,5.8523,5.8523,5.982,6.062,6.062,6.1773,6.2253,6.218,6.37,6.4159,6.3615,6.3907,6.3927,4.7597,4.9218,5.2302,5.8601,6.4848,7.018,7.2925,7.5408,7.7603,7.9302,8.1027,8.2047,8.1446,8.1341,8.1236,8.0923,8.0871,8.0871,8.0871,8.0871,0.0,0.0,0.0,0.0,0.0,0.0,0.0,0.0,0.0,7.478,7.4493,7.3918,7.3421,7.3108,7.2846,7.2454,7.1879,7.1879,7.1592,7.1017,7.0729,7.0128,6.9291,6.9291,6.9135,6.8764,6.8764,6.869,6.8403,6.8115,6.7488,6.6704,6.6678,6.6312,6.5841,6.6155,6.6103,6.5815,6.5528,6.5632,6.5763,6.5162,6.5371,6.5789,6.5475,6.5346,6.5136,6.4613,6.4658,6.482,6.4619,6.4621,6.4727,6.5065,6.4594,6.4182,6.4881,6.4778,6.4781,6.5421,6.545,6.511,6.4587,6.4064,6.3384,6.2548,6.2652,6.2731,6.2443,6.2156,6.1764,6.1189,6.0849,6.0592,6.0412,6.011,6.0098,6.0537,6.0578,6.0578,6.0578,6.1908,6.2347,6.1706,6.3103,6.3822,6.3822,6.456,6.488,6.4944,6.5253,6.5447,4.7675,4.9531,5.272,6.0248,6.3933,6.6991,7.1853,7.4049,7.5565,7.7368,7.9328,8.0688,8.0609,8.0583,8.0557,8.0452,8.0348,8.0295,8.0295,0.0,0.0,0.0,0.0,0.0,0.0,0.0,0.0,0.0,0.0,7.4388,7.3892,7.3186,7.282,7.282,7.2297,7.1775,7.1278,7.1252,7.099,7.0442,6.984,6.9291,6.8764,6.8743,6.8743,6.8764,6.8743,6.8429,6.7958,6.7775,6.7148,6.6312,6.6652,6.6521,6.6129,6.6129,6.5815,6.5292,6.4743,6.4587,6.4665,6.456,6.4926,6.5371,6.5371,6.5634,6.5686,6.4613,6.4807,6.5238,6.4705,6.4452,6.4508,6.5295,6.4733,6.438,6.5635,6.5448,6.5216,6.5919,6.542,6.4712,6.4325,6.3776,6.3071,6.2104,6.2365,6.2496,6.2025,6.1973,6.179,6.1319,6.1189,6.1278,6.1809,6.169,6.211,6.3072,6.2998,6.2942,6.2942,6.4203,6.4339,6.3169,6.456,6.5261,6.5261,6.5261,6.5261,6.529,6.6476,6.6999,4.4487,4.974,5.6327,6.145,6.6625,7.018,6.9056,7.2323,7.5565,7.5408,7.7917,7.9982,7.9485,7.9407,7.9224,7.8753,7.8257,7.7917,0.0,0.0,0.0,0.0,0.0,0.0,0.0,0.0,0.0,0.0,7.3683,7.3317,7.3238,7.2219,7.1618,7.1618,7.1095,7.0781,7.0703,7.0703,7.0415,6.9814,6.9239,6.8926,6.8738,6.8324,6.8377,6.8738,6.8324,6.8063,6.7906,6.6913,6.6416,6.6233,6.5789,6.5554,6.5501,6.5501,6.5449,6.5292,6.4743,6.4848,6.5188,6.4691,6.4926,6.5371,6.5371,6.5372,6.508,6.4114,6.4274,6.4539,6.3559,6.3834,6.4473,6.5078,6.4706,6.4687,6.6012,6.5829,6.5614,6.6236,6.4851,6.3501,6.3121,6.2574,6.2156,6.1999,6.2025,6.2051,6.1973,6.1973,6.1947,6.1868,6.1424,6.1595,6.2919,6.2601,6.2975,6.4375,6.3908,6.3599,6.3599,6.4433,6.4816,6.4624,6.6011,6.6723,6.6723,6.6723,6.6723,6.6723,6.6908,6.6999,4.7048,5.1282,5.583,5.949,6.4247,6.7854,6.72,7.0285,7.3317,7.3421,7.5146,7.6976,7.8021,7.8204,7.8126,7.7865,7.7629,0.0,0.0,0.0,0.0,0.0,0.0,0.0,0.0,0.0,0.0,0.0,7.3264,7.282,7.2193,7.167,7.1252,7.0964,7.0729,7.0442,7.0102,7.0102,6.9788,6.9213,6.8978,6.8664,6.835,6.8115,6.8115,6.8324,6.7749,6.7305,6.6991,6.6495,6.6076,6.5763,6.5475,6.5371,6.5345,6.5031,6.49,6.4822,6.4247,6.4221,6.4378,6.4142,6.443,6.49,6.49,6.5423,6.5785,6.4397,6.495,6.57,6.4707,6.487,6.5558,6.6481,6.5992,6.5565,6.6526,6.6234,6.5883,6.5926,6.4501,6.3235,6.2794,6.2306,6.1973,6.1973,6.2667,6.3232,6.3232,6.3938,6.4129,6.3306,6.2992,6.3325,6.444,6.4304,6.5062,6.6956,6.6795,6.6475,6.6096,6.6407,6.6428,6.6073,6.6661,6.6999,6.6999,6.6999,6.6999,6.6999,6.6999,6.6999,4.8172,5.1047,5.3661,5.685,6.1555,6.5554,6.6155,6.9056,7.1722,7.201,7.2872,7.4127,7.6009,7.6715,7.7028,7.7028,7.6898,0.0,0.0,0.0,0.0,0.0,0.0,0.0,0.0,0.0,0.0,0.0,7.2768,7.2297,7.1461,7.1121,7.0781,7.0389,7.0232,6.9945,6.9474,6.9474,6.9265,6.8764,6.869,6.8403,6.7985,6.7697,6.7566,6.754,6.707,6.6652,6.6286,6.6129,6.5789,6.5371,6.5371,6.5371,6.5345,6.49,6.4743,6.4691,6.4273,6.4012,6.3881,6.3881,6.4168,6.4508,6.4455,6.542,6.6124,6.4648,6.5413,6.6568,6.5496,6.5694,6.6399,6.7431,6.6888,6.6291,6.6888,6.6535,6.5979,6.5576,6.4567,6.3531,6.2826,6.2497,6.2273,6.2198,6.3379,6.4346,6.4201,6.5467,6.5963,6.4895,6.4779,6.5202,6.6194,6.6304,6.7219,6.9385,6.9333,6.8944,6.8256,6.8076,6.7657,6.6999,6.6999,6.6999,6.6999,6.6999,6.6999,6.6999,6.6999,6.6999,4.4434,4.7179,5.0315,5.4288,6.0378,6.5554,6.6155,6.937,7.2114,7.1565,7.1958,7.2585,7.3212,7.4702,7.58,7.58,0.0,0.0,0.0,0.0,0.0,0.0,0.0,0.0,0.0,0.0,0.0,0.0,7.1801,7.1461,7.1409,7.0363,6.9762,6.9736,6.9213,6.8926,6.8816,6.8816,6.879,6.8764,6.8298,6.8011,6.7958,6.6861,6.6364,6.6364,6.6338,6.6312,6.6233,6.5658,6.5423,6.5371,6.5371,6.5371,6.5371,6.5345,6.5345,6.5345,6.5292,6.4953,6.4482,6.4482,6.4508,6.4508,6.437,6.5069,6.5562,6.4341,6.5023,6.5897,6.4903,6.5396,6.6291,6.6915,6.6589,6.6291,6.6888,6.6535,6.5979,6.5576,6.5017,6.4203,6.3218,6.3037,6.2916,6.2598,6.3819,6.4635,6.4274,6.5467,6.6356,6.6286,6.6314,6.6914,6.8422,6.8557,6.9161,7.0734,7.026,6.9632,6.8974,6.8315,6.7657,6.6999,6.6999,6.6999,6.6999,6.6999,6.6999,6.6999,6.6999,6.6999,4.4147,4.6055,4.8277,5.1936,5.7216,6.1581,6.179,6.5841,6.937,6.8795,6.971,7.0912,7.1853,7.3447,7.4624,0.0,0.0,0.0,0.0,0.0,0.0,0.0,0.0,0.0,0.0,0.0,0.0,0.0,0.0,7.0311,7.0311,6.9579,6.9135,6.9135,6.8952,6.8764,6.8764,6.8481,6.8298,6.8298,6.7697,6.7227,6.6887,6.6469,6.6076,6.5711,6.5711,6.5711,6.5684,6.5475,6.5371,6.5371,6.5371,6.5371,6.5371,6.5371,6.5371,6.5371,6.5371,6.477,6.3985,6.3985,6.3724,6.341,6.3354,6.4231,6.5136,6.471,6.5609,6.6568,6.6201,6.6731,6.7322,6.7539,6.7132,6.6752,6.6969,6.6535,6.6053,6.5877,6.487,6.4029,6.4042,6.3526,6.3096,6.3121,6.4385,6.5571,6.6191,6.7877,6.901,6.8882,6.8825,6.8885,6.9019,6.899,6.9553,7.0824,7.0709,7.029,6.9662,6.9363,6.8704,6.7627,6.7627,6.7418,6.6999,6.7243,6.7243,6.6999,6.7243,6.7243,4.3258,4.4722,4.6865,5.089,5.4341,5.7477,6.0195,6.3332,6.5841,6.6416,6.7932,6.9422,7.0363,7.1644,0.0,0.0,0.0,0.0,0.0,0.0,0.0,0.0,0.0,0.0,0.0,0.0,0.0,0.0,0.0,0.0,6.9684,6.9161,6.8764,6.8764,6.8764,6.8743,6.856,6.8168,6.788,6.7671,6.7096,6.6625,6.6286,6.6076,6.5763,6.5371,6.5371,6.5371,6.5371,6.5371,6.5371,6.5371,6.5371,6.5371,6.5371,6.5371,6.5371,6.5371,6.5371,6.4639,6.3672,6.3672,6.328,6.2783,6.2752,6.3623,6.4603,6.4754,6.5711,6.6752,6.6969,6.7458,6.7892,6.7892,6.8023,6.7948,6.7371,6.6834,6.6291,6.5884,6.5698,6.5619,6.5591,6.5619,6.5664,6.5682,6.6974,6.8089,6.8582,7.0417,7.15,7.0984,7.1266,7.1185,7.0562,7.0371,7.0664,7.1378,7.1103,7.062,6.9991,6.9961,6.9423,6.8345,6.8076,6.7747,6.7328,6.7334,6.7243,6.6999,6.7365,6.7365,0.0,0.0,0.0,5.0943,5.1831,5.3504,6.1398,6.1999,6.1711,6.4587,6.6573,6.7985,6.8664,6.9265,0.0,0.0,0.0,0.0,0.0,0.0,0.0,0.0,0.0,0.0,0.0,0.0,0.0,0.0,6.9997,6.9657,6.9657,6.9135,6.8764,6.8764,6.8738,6.856,6.8011,6.7958,6.7645,6.707,6.6521,6.6259,6.6233,6.5658,6.5371,6.5371,6.5371,6.5371,6.5371,6.5371,6.5371,6.5371,6.5371,6.5371,6.5371,6.5371,6.5371,6.5371,6.5371,6.4639,6.3698,6.3672,6.328,6.2807,6.2681,6.3266,6.4092,6.4465,6.5342,6.6264,6.6888,6.7458,6.7892,6.7968,6.9129,6.9774,6.8296,6.7507,6.6746,6.5477,6.746,6.8871,6.7734,6.926,7.057,7.0164,7.1327,7.2036,7.1327,7.2834,7.3607,7.2616,7.3456,7.3772,7.307,7.275,7.2555,7.2525,7.1568,7.0714,7.0085,7.0085,6.9692,6.9034,6.8375,6.8016,6.7956,6.7298,6.6999,6.706,6.7365,6.7548,4.2082,0.0,0.0,0.0,0.0,0.0,5.1256,5.3766,5.6458,5.9725,6.1816,6.3959,6.7017,0.0,0.0,0.0,0.0,0.0,0.0,0.0,0.0,0.0,0.0,0.0,0.0,0.0,0.0,0.0,6.903,6.8638,6.9056,6.8926,6.8764,6.8764,6.8429,6.8141,6.7985,6.7174,6.6678,6.6495,6.592,6.5632,6.5632,6.5449,6.5371,6.5371,6.5371,6.5371,6.5371,6.5371,6.5371,6.5371,6.5371,6.5371,6.5371,6.5371,6.5371,6.5318,6.49,6.456,6.4142,6.3612,6.3168,6.2781,6.2953,6.3171,6.3532,6.4331,6.5342,6.6372,6.7376,6.7756,6.8171,6.9279,6.9923,7.03,7.0548,6.9889,6.878,6.6869,6.7681,6.869,6.8759,6.9862,7.0715,7.0729,7.1068,7.1557,7.2208,7.3132,7.3971,7.4598,7.4885,7.4798,7.4127,7.4001,7.3624,7.288,7.2603,7.2145,7.148,7.1194,7.0735,7.0103,6.9639,6.8944,6.7956,6.7544,6.7365,6.7365,6.7729,6.785,4.2814,4.2526,4.2944,4.4722,0.0,0.0,4.8146,5.1178,5.4236,0.0,6.0509,6.3384,0.0,0.0,0.0,0.0,0.0,0.0,0.0,0.0,0.0,0.0,0.0,0.0,0.0,7.0076,6.9605,6.9344,6.8716,6.8481,6.8738,6.8764,6.8743,6.8481,6.8168,6.7749,6.7279,6.6625,6.6155,6.5894,6.5554,6.5371,6.5371,6.5371,6.5371,6.5371,6.5371,6.5371,6.5371,6.5371,6.5371,6.5371,6.5371,6.5371,6.5371,6.5371,6.5371,6.5345,6.5005,6.4743,6.4508,6.4212,6.3507,6.2909,6.3367,6.3298,6.3372,6.4599,6.6305,6.7797,6.7855,6.8399,6.8902,6.9204,7.0192,7.1149,7.1022,7.1352,7.0879,6.8087,6.8714,6.9822,7.0192,7.1696,7.3065,7.3417,7.3506,7.3644,7.4218,7.4714,7.512,7.5474,7.5855,7.5828,7.5218,7.5028,7.4558,7.3693,7.3195,7.2705,7.2038,7.1786,7.1477,7.1114,7.0685,6.9865,6.8811,6.821,6.791,6.7879,6.797,6.809,4.3912,4.3546,4.4278,4.71,4.5349,0.0,4.8773,5.123,5.3138,5.5308,5.983,0.0,0.0,0.0,0.0,0.0,0.0,0.0,0.0,0.0,0.0,0.0,0.0,0.0,6.9788,6.9631,6.9396,6.879,6.8764,6.8764,6.8764,6.8711,6.8507,6.8011,6.7854,6.7305,6.6286,6.6207,6.592,6.5371,6.5476,6.5476,6.5476,6.5555,6.5555,6.5476,6.5476,6.5476,6.5476,6.5476,6.5476,6.5371,6.5371,6.5371,6.5371,6.5371,6.5476,6.545,6.5318,6.5005,6.4691,6.5027,6.4135,6.3142,6.3867,6.3665,6.3526,6.5077,6.7706,6.9727,6.8524,6.9204,6.9895,6.882,7.0549,7.2243,7.1105,7.2327,7.2806,6.9579,7.0418,7.1709,7.1779,7.4255,7.6338,7.6923,7.7016,7.6884,7.662,7.6818,7.6638,7.5763,7.645,7.6769,7.6184,7.5863,7.5361,7.4687,7.3849,7.3047,7.2378,7.2284,7.2284,7.2284,7.1461,7.0732,7.0126,6.906,6.8546,6.8631,6.8423,6.8482,4.6521,4.6839,4.6891,4.5689,0.0,0.0,4.4488,4.5558,4.7545,0.0,5.008,0.0,0.0,0.0,0.0,0.0,0.0,0.0,0.0,0.0,0.0,0.0,0.0,0.0,6.971,6.9291,6.8978,6.8764,6.8764,6.8764,6.8764,6.8403,6.8115,6.7985,6.7096,6.6495,6.6286,6.5789,6.5501,6.5371,6.5713,6.5871,6.5871,6.6264,6.629,6.5871,6.5871,6.5871,6.5871,6.5871,6.5713,6.5371,6.5371,6.5371,6.5371,6.5371,6.5634,6.5739,6.4953,6.5084,6.5633,6.5146,6.4542,6.4125,6.4748,6.4331,6.3895,6.5552,6.7322,6.8927,6.9597,6.9997,7.0566,7.221,7.2502,7.2947,7.4563,7.4255,7.3469,7.2806,7.3002,7.3257,7.3325,7.525,7.6862,7.6985,7.7016,7.695,7.6884,7.695,7.6888,7.67,7.6858,7.6954,7.6831,7.6765,7.6392,7.5716,7.5498,7.513,7.4454,7.4167,7.4008,7.4008,7.2274,7.1304,7.1137,6.9671,6.9306,7.0128,7.028,7.04,0.0,0.0,0.0,4.7127,0.0,0.0,0.0,4.5454,4.7074,4.7649,4.9139,0.0,0.0,0.0,0.0,0.0,0.0,0.0,0.0,0.0,0.0,0.0,0.0,0.0,6.9291,6.9004,6.8764,6.8764,6.8764,6.8716,6.8429,6.8141,6.7723,6.7148,6.6573,6.6129,6.5841,6.5528,6.5476,6.5713,6.5871,6.6107,6.6369,6.6603,6.6603,6.6369,6.6369,6.6369,6.6369,6.6369,6.6212,6.6028,6.6028,6.6028,6.6028,6.6028,6.6212,6.6237,6.579,6.5947,6.6341,6.6143,6.5376,6.4691,6.545,6.5085,6.4861,6.6762,6.8562,7.0207,7.1078,7.1884,7.2424,7.2581,7.2807,7.3438,7.459,7.4345,7.4072,7.4739,7.4588,7.4081,7.332,7.5084,7.6523,7.6523,7.68,7.7016,7.7016,7.7016,7.7016,7.7016,7.7016,7.7016,7.7016,7.7016,7.6739,7.6061,7.6,7.5723,7.5015,7.4856,7.4574,7.4237,7.2748,7.2048,7.2182,7.0862,7.0373,7.0678,7.086,7.089,0.0,0.0,0.0,0.0,0.0,4.7231,0.0,0.0,0.0,0.0,0.0,0.0,0.0,0.0,0.0,0.0,0.0,0.0,0.0,0.0,0.0,0.0,0.0,0.0,0.0,6.7932,6.8377,6.8821,6.8743,6.8481,6.8011,6.7775,6.7227,6.6312,6.6181,6.5867,6.5397,6.5476,6.5713,6.6028,6.6185,6.6447,6.6837,6.6915,6.6915,6.6837,6.6837,6.6837,6.6837,6.6837,6.6837,6.6915,6.6759,6.6681,6.6681,6.6681,6.6759,6.6759,6.6759,6.6759,6.6837,6.7225,6.6545,6.5673,6.6052,6.5837,6.5901,6.8043,6.999,7.161,7.2532,7.3704,7.4236,7.2473,7.3052,7.3919,7.3948,7.4211,7.4707,7.5784,7.5569,7.4783,7.3581,7.4911,7.6215,7.6215,7.6677,7.7016,7.7016,7.7016,7.7016,7.7016,7.7016,7.7016,7.7016,7.7016,7.68,7.6246,7.6215,7.5969,7.5415,7.5384,7.5076,7.4399,7.3529,7.3161,7.3383,7.2365,7.169,7.129,7.129,7.129,0.0,0.0,0.0,0.0,5.2694,0.0,0.0,0.0,4.595,4.3441,0.0,0.0,0.0,0.0,0.0,0.0,0.0,0.0,0.0,0.0,0.0,0.0,0.0,0.0,0.0,6.4587,6.6625,6.8607,6.8377,6.8063,6.7985,6.7017,6.6416,6.6286,6.5763,6.5449,6.5371,6.5713,6.595,6.6028,6.6732,6.7198,6.7225,6.7584,6.7584,6.7225,6.7225,6.7225,6.7225,6.7225,6.743,6.7661,6.6993,6.6681,6.6681,6.6681,6.6915,6.7225,6.6837,6.6915,6.7225,6.7303,6.7579,6.7736,6.6761,6.637,6.6778,6.8809,7.0094,7.1247,7.3061,7.4134,7.4692,7.4576,7.4596,7.4639,7.4806,7.5317,7.5815,7.5969,7.5938,7.5812,7.5682,7.6331,7.6892,7.6892,7.6954,7.7016,7.7016,7.7016,7.7016,7.7016,7.7016,7.7016,7.7016,7.7016,7.6985,7.6892,7.6892,7.6862,7.68,7.68,7.6461,7.5784,7.5368,7.5031,7.4769,7.3774,7.31,7.2737,7.2737,7.2737,0.0,0.0,0.0,0.0,0.0,0.0,5.042,0.0,4.514,0.0,0.0,0.0,0.0,0.0,0.0,0.0,4.4068,0.0,0.0,0.0,0.0,0.0,0.0,0.0,0.0,0.0,0.0,0.0,6.4508,6.4012,6.4012,6.5449,6.6129,6.5763,6.5528,6.5555,6.5713,6.595,6.6264,6.6732,6.7148,6.743,6.7661,6.7815,6.7815,6.7661,6.7661,6.7661,6.7661,6.7661,6.7738,6.7892,6.7507,6.7353,6.7353,6.7353,6.7507,6.7584,6.743,6.7507,6.7553,6.6801,6.7376,6.8069,6.6876,6.7081,6.8245,7.0729,7.1369,7.1971,7.4874,7.551,7.5495,7.5593,7.5514,7.5495,7.5563,7.5507,7.5661,7.6431,7.6277,7.6123,7.6523,7.6831,7.6892,7.6492,7.6769,7.7016,7.7016,7.7016,7.7016,7.7016,7.7016,7.7016,7.7016,7.7016,7.7016,7.7016,7.7016,7.7016,7.7016,7.7016,7.6708,7.6031,7.587,7.5532,7.5015,7.4579,7.4088,7.3568,7.3168,7.2983,5.9856,0.0,0.0,0.0,0.0,0.0,0.0,0.0,0.0,0.0,0.0,0.0,0.0,0.0,0.0,4.4042,0.0,4.3546,0.0,0.0,0.0,0.0,0.0,0.0,0.0,0.0,0.0,0.0,0.0,6.0875,6.0875,6.4168,6.5841,6.5397,6.5555,6.5713,6.6028,6.6264,6.6655,6.7303,6.743,6.7584,6.7892,6.7892,6.7892,6.7892,6.7892,6.7892,6.7892,6.7892,6.7892,6.7892,6.7892,6.7892,6.7892,6.7892,6.7892,6.7892,6.7892,6.8089,6.7989,6.6604,6.7641,6.9221,6.7548,6.8227,6.9935,7.2223,7.2355,7.2445,7.5395,7.5969,7.5723,7.5723,7.5877,7.6,7.6,7.5784,7.5846,7.6831,7.6615,7.6431,7.6923,7.7016,7.6862,7.6369,7.6708,7.7016,7.7016,7.7016,7.7016,7.7016,7.7016,7.7016,7.7016,7.7016,7.7016,7.7016,7.7016,7.7016,7.7016,7.7016,7.68,7.6308,7.6277,7.6031,7.5569,7.5353,7.5015,7.4522,7.366,7.3168,0.0,0.0,0.0,5.8261,0.0,0.0,0.0,0.0,4.9244,0.0,0.0,0.0,0.0,0.0,4.663,4.4903,4.5111,0.0,0.0,0.0,0.0,0.0,0.0,0.0,0.0,0.0,0.0,0.0,0.0,0.0,6.0248,6.3541,6.5397,6.5371,6.5792,6.595,6.6028,6.681,6.7303,6.7303,6.7661,6.7892,6.7892,6.7892,6.7892,6.7892,6.7892,6.7892,6.7892,6.7892,6.7892,6.7892,6.7892,6.7892,6.7892,6.7892,6.7892,6.7892,6.7892,6.8441,6.8843,6.6739,6.9025,7.2105,6.934,7.0002,7.1899,7.2729,7.2402,7.2144,7.3713,7.4553,7.5046,7.5046,7.5538,7.6,7.6,7.6492,7.6954,7.7016,7.7016,7.6985,7.7016,7.7016,7.7016,7.6985,7.7016,7.7016,7.7016,7.7016,7.7016,7.7016,7.7016,7.7016,7.7016,7.7016,7.7016,7.7016,7.7016,7.7016,7.7016,7.7016,7.7016,7.6985,7.6985,7.6985,7.6954,7.6308,7.5969,7.5907,7.4584,7.3599,0.0,0.0,6.5976,6.4334,0.0,0.0,0.0,0.0,0.0,0.0,0.0,0.0,0.0,0.0,4.7545,4.4643,4.467,4.4571,0.0,0.0,0.0,0.0,0.0,0.0,0.0,0.0,0.0,0.0,5.157,0.0,0.0,5.8569,6.2027,6.2422,6.5072,6.6603,6.681,6.7121,6.743,6.7661,6.7815,6.7892,6.7892,6.8198,6.8274,6.8351,6.8579,6.8731,6.8731,6.8731,6.8731,6.8655,6.8427,6.893,6.9774,6.9476,6.9401,6.9551,7.0606,7.0492,6.9787,6.925,7.0679,7.2372,7.0569,7.1208,7.2756,7.3442,7.3161,7.3,7.4825,7.5169,7.523,7.6123,7.6523,7.6677,7.6677,7.6862,7.7016,7.7016,7.7016,7.7016,7.7016,7.7016,7.7016,7.7016,7.7016,7.7016,7.7016,7.7016,7.7016,7.7016,7.7016,7.72,7.7662,7.8124,7.8185,7.7724,7.8124,7.8185,7.7693,7.7693,7.7693,7.7693,7.7262,7.7016,7.7016,7.68,7.6461,7.6,7.5076,7.4307,6.7557,6.7586,0.0,6.7134,6.3969,0.0,5.9704,0.0,0.0,0.0,0.0,0.0,0.0,0.0,5.0244,4.6484,4.5815,4.5127,0.0,4.2985,0.0,0.0,0.0,0.0,0.0,0.0,0.0,0.0,4.7074,0.0,0.0,0.0,6.0294,6.0875,6.4843,6.707,6.7303,6.743,6.7661,6.7892,6.8045,6.8122,6.8122,6.8503,6.8731,6.8731,6.9033,6.9184,6.9334,6.9334,6.9409,6.9559,6.9532,7.0174,7.0955,7.0441,7.056,7.119,7.2171,7.2027,7.1323,7.0778,7.1939,7.3194,7.1318,7.1974,7.3445,7.3876,7.3506,7.3383,7.5199,7.5138,7.5046,7.6646,7.6831,7.68,7.7262,7.72,7.7016,7.7016,7.7016,7.7016,7.7016,7.7016,7.7016,7.7016,7.7016,7.7016,7.7016,7.7016,7.7016,7.7016,7.7016,7.7293,7.797,7.8462,7.8647,7.8432,7.8832,7.8893,7.8432,7.8154,7.8278,7.877,7.7631,7.7262,7.7724,7.7262,7.68,7.6338,7.5661,7.5138]}]]